<?xml version="1.0" encoding="UTF-8" standalone="no" ?>
<gpx xmlns="http://www.topografix.com/GPX/1/1" xmlns:xsi="http://www.w3.org/2001/XMLSchema-instance" xsi:schemaLocation="http://www.topografix.com/GPX/1/1 http://www.topografix.com/GPX/1/1/gpx.xsd" version="1.1" creator="VisuGPX - https://www.visugpx.com">
  <metadata>
    <name>FALAISES DU DEVENSON</name>
    <desc><![CDATA[Depuis le col de la Gardiole,pour randonneurs expérimentés.
Site magnifique et vertigineux!!!!!]]></desc>
  </metadata>
  <trk>
    <name><![CDATA[FALAISES DU DEVENSON_1]]></name>
    <trkseg>
      <trkpt lat="43.22653" lon="5.50298">
        <ele>306</ele>
        <time>2019-02-06T08:36:52Z</time>
      </trkpt>
      <trkpt lat="43.22648" lon="5.50293">
        <ele>305</ele>
        <time>2019-02-06T08:36:58Z</time>
      </trkpt>
      <trkpt lat="43.22643" lon="5.50288">
        <ele>305</ele>
        <time>2019-02-06T08:37:04Z</time>
      </trkpt>
      <trkpt lat="43.22639" lon="5.50285">
        <ele>305</ele>
        <time>2019-02-06T08:37:12Z</time>
      </trkpt>
      <trkpt lat="43.22634" lon="5.50282">
        <ele>305</ele>
        <time>2019-02-06T08:37:30Z</time>
      </trkpt>
      <trkpt lat="43.2263" lon="5.50278">
        <ele>303</ele>
        <time>2019-02-06T08:37:42Z</time>
      </trkpt>
      <trkpt lat="43.22624" lon="5.50276">
        <ele>303</ele>
        <time>2019-02-06T08:37:48Z</time>
      </trkpt>
      <trkpt lat="43.22618" lon="5.50274">
        <ele>303</ele>
        <time>2019-02-06T08:37:54Z</time>
      </trkpt>
      <trkpt lat="43.22611" lon="5.50274">
        <ele>303</ele>
        <time>2019-02-06T08:38:00Z</time>
      </trkpt>
      <trkpt lat="43.22606" lon="5.50274">
        <ele>303</ele>
        <time>2019-02-06T08:38:04Z</time>
      </trkpt>
      <trkpt lat="43.22601" lon="5.50274">
        <ele>302</ele>
        <time>2019-02-06T08:38:08Z</time>
      </trkpt>
      <trkpt lat="43.22596" lon="5.50274">
        <ele>302</ele>
        <time>2019-02-06T08:38:12Z</time>
      </trkpt>
      <trkpt lat="43.22591" lon="5.50274">
        <ele>301</ele>
        <time>2019-02-06T08:38:16Z</time>
      </trkpt>
      <trkpt lat="43.22585" lon="5.50274">
        <ele>300</ele>
        <time>2019-02-06T08:38:22Z</time>
      </trkpt>
      <trkpt lat="43.2258" lon="5.50274">
        <ele>299</ele>
        <time>2019-02-06T08:38:26Z</time>
      </trkpt>
      <trkpt lat="43.22575" lon="5.50274">
        <ele>298</ele>
        <time>2019-02-06T08:38:30Z</time>
      </trkpt>
      <trkpt lat="43.2257" lon="5.50275">
        <ele>299</ele>
        <time>2019-02-06T08:38:34Z</time>
      </trkpt>
      <trkpt lat="43.22565" lon="5.50275">
        <ele>299</ele>
        <time>2019-02-06T08:38:38Z</time>
      </trkpt>
      <trkpt lat="43.22558" lon="5.50275">
        <ele>299</ele>
        <time>2019-02-06T08:38:44Z</time>
      </trkpt>
      <trkpt lat="43.22552" lon="5.50274">
        <ele>299</ele>
        <time>2019-02-06T08:38:50Z</time>
      </trkpt>
      <trkpt lat="43.22546" lon="5.50273">
        <ele>297</ele>
        <time>2019-02-06T08:38:56Z</time>
      </trkpt>
      <trkpt lat="43.2254" lon="5.50274">
        <ele>297</ele>
        <time>2019-02-06T08:39:02Z</time>
      </trkpt>
      <trkpt lat="43.22534" lon="5.50275">
        <ele>297</ele>
        <time>2019-02-06T08:39:08Z</time>
      </trkpt>
      <trkpt lat="43.2253" lon="5.50273">
        <ele>296</ele>
        <time>2019-02-06T08:39:14Z</time>
      </trkpt>
      <trkpt lat="43.22524" lon="5.50271">
        <ele>296</ele>
        <time>2019-02-06T08:39:22Z</time>
      </trkpt>
      <trkpt lat="43.2252" lon="5.50268">
        <ele>296</ele>
        <time>2019-02-06T08:39:28Z</time>
      </trkpt>
      <trkpt lat="43.22514" lon="5.50267">
        <ele>298</ele>
        <time>2019-02-06T08:39:34Z</time>
      </trkpt>
      <trkpt lat="43.22508" lon="5.50266">
        <ele>298</ele>
        <time>2019-02-06T08:39:40Z</time>
      </trkpt>
      <trkpt lat="43.22503" lon="5.50262">
        <ele>299</ele>
        <time>2019-02-06T08:39:46Z</time>
      </trkpt>
      <trkpt lat="43.22498" lon="5.50259">
        <ele>298</ele>
        <time>2019-02-06T08:39:52Z</time>
      </trkpt>
      <trkpt lat="43.22492" lon="5.50256">
        <ele>298</ele>
        <time>2019-02-06T08:39:58Z</time>
      </trkpt>
      <trkpt lat="43.22487" lon="5.50251">
        <ele>297</ele>
        <time>2019-02-06T08:40:04Z</time>
      </trkpt>
      <trkpt lat="43.22482" lon="5.50247">
        <ele>298</ele>
        <time>2019-02-06T08:40:10Z</time>
      </trkpt>
      <trkpt lat="43.22478" lon="5.50243">
        <ele>297</ele>
        <time>2019-02-06T08:40:16Z</time>
      </trkpt>
      <trkpt lat="43.22474" lon="5.5024">
        <ele>297</ele>
        <time>2019-02-06T08:40:22Z</time>
      </trkpt>
      <trkpt lat="43.22469" lon="5.50239">
        <ele>297</ele>
        <time>2019-02-06T08:40:28Z</time>
      </trkpt>
      <trkpt lat="43.22464" lon="5.50237">
        <ele>297</ele>
        <time>2019-02-06T08:40:36Z</time>
      </trkpt>
      <trkpt lat="43.2246" lon="5.50234">
        <ele>297</ele>
        <time>2019-02-06T08:40:44Z</time>
      </trkpt>
      <trkpt lat="43.22455" lon="5.50229">
        <ele>294</ele>
        <time>2019-02-06T08:40:52Z</time>
      </trkpt>
      <trkpt lat="43.22451" lon="5.50226">
        <ele>294</ele>
        <time>2019-02-06T08:40:58Z</time>
      </trkpt>
      <trkpt lat="43.22446" lon="5.50223">
        <ele>294</ele>
        <time>2019-02-06T08:41:04Z</time>
      </trkpt>
      <trkpt lat="43.22441" lon="5.5022">
        <ele>294</ele>
        <time>2019-02-06T08:41:12Z</time>
      </trkpt>
      <trkpt lat="43.22435" lon="5.50218">
        <ele>293</ele>
        <time>2019-02-06T08:41:20Z</time>
      </trkpt>
      <trkpt lat="43.2243" lon="5.50215">
        <ele>293</ele>
        <time>2019-02-06T08:41:26Z</time>
      </trkpt>
      <trkpt lat="43.22426" lon="5.50212">
        <ele>292</ele>
        <time>2019-02-06T08:41:32Z</time>
      </trkpt>
      <trkpt lat="43.22422" lon="5.50207">
        <ele>293</ele>
        <time>2019-02-06T08:41:38Z</time>
      </trkpt>
      <trkpt lat="43.22418" lon="5.50203">
        <ele>293</ele>
        <time>2019-02-06T08:41:44Z</time>
      </trkpt>
      <trkpt lat="43.22414" lon="5.502">
        <ele>292</ele>
        <time>2019-02-06T08:41:52Z</time>
      </trkpt>
      <trkpt lat="43.22409" lon="5.50196">
        <ele>292</ele>
        <time>2019-02-06T08:42:02Z</time>
      </trkpt>
      <trkpt lat="43.22405" lon="5.50192">
        <ele>290</ele>
        <time>2019-02-06T08:42:12Z</time>
      </trkpt>
      <trkpt lat="43.22403" lon="5.50185">
        <ele>290</ele>
        <time>2019-02-06T08:42:18Z</time>
      </trkpt>
      <trkpt lat="43.22402" lon="5.50178">
        <ele>289</ele>
        <time>2019-02-06T08:42:22Z</time>
      </trkpt>
      <trkpt lat="43.22399" lon="5.50173">
        <ele>289</ele>
        <time>2019-02-06T08:42:26Z</time>
      </trkpt>
      <trkpt lat="43.22394" lon="5.50167">
        <ele>289</ele>
        <time>2019-02-06T08:42:32Z</time>
      </trkpt>
      <trkpt lat="43.22388" lon="5.50164">
        <ele>287</ele>
        <time>2019-02-06T08:42:38Z</time>
      </trkpt>
      <trkpt lat="43.22381" lon="5.50163">
        <ele>286</ele>
        <time>2019-02-06T08:42:44Z</time>
      </trkpt>
      <trkpt lat="43.22376" lon="5.50164">
        <ele>286</ele>
        <time>2019-02-06T08:42:48Z</time>
      </trkpt>
      <trkpt lat="43.2237" lon="5.50165">
        <ele>285</ele>
        <time>2019-02-06T08:42:52Z</time>
      </trkpt>
      <trkpt lat="43.22365" lon="5.50165">
        <ele>284</ele>
        <time>2019-02-06T08:42:56Z</time>
      </trkpt>
      <trkpt lat="43.22361" lon="5.50164">
        <ele>284</ele>
        <time>2019-02-06T08:43:00Z</time>
      </trkpt>
      <trkpt lat="43.22355" lon="5.50164">
        <ele>283</ele>
        <time>2019-02-06T08:43:04Z</time>
      </trkpt>
      <trkpt lat="43.2235" lon="5.50165">
        <ele>283</ele>
        <time>2019-02-06T08:43:08Z</time>
      </trkpt>
      <trkpt lat="43.22344" lon="5.50166">
        <ele>282</ele>
        <time>2019-02-06T08:43:12Z</time>
      </trkpt>
      <trkpt lat="43.2234" lon="5.50167">
        <ele>282</ele>
        <time>2019-02-06T08:43:16Z</time>
      </trkpt>
      <trkpt lat="43.22335" lon="5.50167">
        <ele>280</ele>
        <time>2019-02-06T08:43:20Z</time>
      </trkpt>
      <trkpt lat="43.22329" lon="5.50168">
        <ele>279</ele>
        <time>2019-02-06T08:43:24Z</time>
      </trkpt>
      <trkpt lat="43.22324" lon="5.50169">
        <ele>279</ele>
        <time>2019-02-06T08:43:28Z</time>
      </trkpt>
      <trkpt lat="43.2232" lon="5.50172">
        <ele>277</ele>
        <time>2019-02-06T08:43:32Z</time>
      </trkpt>
      <trkpt lat="43.22315" lon="5.50174">
        <ele>278</ele>
        <time>2019-02-06T08:43:36Z</time>
      </trkpt>
      <trkpt lat="43.2231" lon="5.50175">
        <ele>277</ele>
        <time>2019-02-06T08:43:42Z</time>
      </trkpt>
      <trkpt lat="43.22304" lon="5.50176">
        <ele>275</ele>
        <time>2019-02-06T08:43:50Z</time>
      </trkpt>
      <trkpt lat="43.22298" lon="5.50178">
        <ele>274</ele>
        <time>2019-02-06T08:43:58Z</time>
      </trkpt>
      <trkpt lat="43.22293" lon="5.5018">
        <ele>273</ele>
        <time>2019-02-06T08:44:06Z</time>
      </trkpt>
      <trkpt lat="43.22288" lon="5.50181">
        <ele>272</ele>
        <time>2019-02-06T08:44:14Z</time>
      </trkpt>
      <trkpt lat="43.22282" lon="5.50182">
        <ele>270</ele>
        <time>2019-02-06T08:44:20Z</time>
      </trkpt>
      <trkpt lat="43.22275" lon="5.50184">
        <ele>269</ele>
        <time>2019-02-06T08:44:26Z</time>
      </trkpt>
      <trkpt lat="43.2227" lon="5.50186">
        <ele>270</ele>
        <time>2019-02-06T08:44:30Z</time>
      </trkpt>
      <trkpt lat="43.22265" lon="5.50188">
        <ele>271</ele>
        <time>2019-02-06T08:44:34Z</time>
      </trkpt>
      <trkpt lat="43.22259" lon="5.50186">
        <ele>272</ele>
        <time>2019-02-06T08:44:40Z</time>
      </trkpt>
      <trkpt lat="43.22253" lon="5.50183">
        <ele>272</ele>
        <time>2019-02-06T08:44:46Z</time>
      </trkpt>
      <trkpt lat="43.2225" lon="5.50178">
        <ele>272</ele>
        <time>2019-02-06T08:44:50Z</time>
      </trkpt>
      <trkpt lat="43.22248" lon="5.50172">
        <ele>272</ele>
        <time>2019-02-06T08:44:54Z</time>
      </trkpt>
      <trkpt lat="43.22244" lon="5.50165">
        <ele>273</ele>
        <time>2019-02-06T08:45:00Z</time>
      </trkpt>
      <trkpt lat="43.22242" lon="5.50156">
        <ele>275</ele>
        <time>2019-02-06T08:45:06Z</time>
      </trkpt>
      <trkpt lat="43.22239" lon="5.50149">
        <ele>276</ele>
        <time>2019-02-06T08:45:12Z</time>
      </trkpt>
      <trkpt lat="43.22235" lon="5.50142">
        <ele>276</ele>
        <time>2019-02-06T08:45:18Z</time>
      </trkpt>
      <trkpt lat="43.22231" lon="5.50137">
        <ele>276</ele>
        <time>2019-02-06T08:45:24Z</time>
      </trkpt>
      <trkpt lat="43.22226" lon="5.5013">
        <ele>277</ele>
        <time>2019-02-06T08:45:30Z</time>
      </trkpt>
      <trkpt lat="43.22222" lon="5.50124">
        <ele>278</ele>
        <time>2019-02-06T08:45:36Z</time>
      </trkpt>
      <trkpt lat="43.22218" lon="5.50118">
        <ele>277</ele>
        <time>2019-02-06T08:45:42Z</time>
      </trkpt>
      <trkpt lat="43.22212" lon="5.50113">
        <ele>278</ele>
        <time>2019-02-06T08:45:48Z</time>
      </trkpt>
      <trkpt lat="43.22207" lon="5.50112">
        <ele>278</ele>
        <time>2019-02-06T08:45:54Z</time>
      </trkpt>
      <trkpt lat="43.22202" lon="5.50111">
        <ele>277</ele>
        <time>2019-02-06T08:46:00Z</time>
      </trkpt>
      <trkpt lat="43.22197" lon="5.50112">
        <ele>277</ele>
        <time>2019-02-06T08:46:06Z</time>
      </trkpt>
      <trkpt lat="43.22191" lon="5.50111">
        <ele>276</ele>
        <time>2019-02-06T08:46:12Z</time>
      </trkpt>
      <trkpt lat="43.22186" lon="5.50112">
        <ele>275</ele>
        <time>2019-02-06T08:46:18Z</time>
      </trkpt>
      <trkpt lat="43.22182" lon="5.50112">
        <ele>275</ele>
        <time>2019-02-06T08:46:24Z</time>
      </trkpt>
      <trkpt lat="43.22177" lon="5.50111">
        <ele>274</ele>
        <time>2019-02-06T08:46:30Z</time>
      </trkpt>
      <trkpt lat="43.22173" lon="5.5011">
        <ele>273</ele>
        <time>2019-02-06T08:46:36Z</time>
      </trkpt>
      <trkpt lat="43.22167" lon="5.50108">
        <ele>272</ele>
        <time>2019-02-06T08:46:44Z</time>
      </trkpt>
      <trkpt lat="43.22162" lon="5.50108">
        <ele>271</ele>
        <time>2019-02-06T08:46:50Z</time>
      </trkpt>
      <trkpt lat="43.22157" lon="5.5011">
        <ele>270</ele>
        <time>2019-02-06T08:46:56Z</time>
      </trkpt>
      <trkpt lat="43.22153" lon="5.50111">
        <ele>269</ele>
        <time>2019-02-06T08:47:02Z</time>
      </trkpt>
      <trkpt lat="43.22148" lon="5.50114">
        <ele>267</ele>
        <time>2019-02-06T08:47:10Z</time>
      </trkpt>
      <trkpt lat="43.22143" lon="5.50115">
        <ele>266</ele>
        <time>2019-02-06T08:47:16Z</time>
      </trkpt>
      <trkpt lat="43.22138" lon="5.50111">
        <ele>264</ele>
        <time>2019-02-06T08:47:22Z</time>
      </trkpt>
      <trkpt lat="43.22137" lon="5.50105">
        <ele>263</ele>
        <time>2019-02-06T08:47:26Z</time>
      </trkpt>
      <trkpt lat="43.22135" lon="5.50098">
        <ele>262</ele>
        <time>2019-02-06T08:47:30Z</time>
      </trkpt>
      <trkpt lat="43.22134" lon="5.50092">
        <ele>262</ele>
        <time>2019-02-06T08:47:34Z</time>
      </trkpt>
      <trkpt lat="43.22133" lon="5.50085">
        <ele>260</ele>
        <time>2019-02-06T08:47:38Z</time>
      </trkpt>
      <trkpt lat="43.22132" lon="5.50078">
        <ele>259</ele>
        <time>2019-02-06T08:47:42Z</time>
      </trkpt>
      <trkpt lat="43.22131" lon="5.50072">
        <ele>257</ele>
        <time>2019-02-06T08:47:46Z</time>
      </trkpt>
      <trkpt lat="43.2213" lon="5.50063">
        <ele>257</ele>
        <time>2019-02-06T08:47:52Z</time>
      </trkpt>
      <trkpt lat="43.22129" lon="5.50057">
        <ele>257</ele>
        <time>2019-02-06T08:47:56Z</time>
      </trkpt>
      <trkpt lat="43.22128" lon="5.50048">
        <ele>255</ele>
        <time>2019-02-06T08:48:02Z</time>
      </trkpt>
      <trkpt lat="43.22128" lon="5.5004">
        <ele>255</ele>
        <time>2019-02-06T08:48:08Z</time>
      </trkpt>
      <trkpt lat="43.22127" lon="5.50034">
        <ele>254</ele>
        <time>2019-02-06T08:48:12Z</time>
      </trkpt>
      <trkpt lat="43.22125" lon="5.50025">
        <ele>254</ele>
        <time>2019-02-06T08:48:18Z</time>
      </trkpt>
      <trkpt lat="43.22125" lon="5.50017">
        <ele>254</ele>
        <time>2019-02-06T08:48:24Z</time>
      </trkpt>
      <trkpt lat="43.22124" lon="5.50009">
        <ele>255</ele>
        <time>2019-02-06T08:48:30Z</time>
      </trkpt>
      <trkpt lat="43.22124" lon="5.50002">
        <ele>253</ele>
        <time>2019-02-06T08:48:36Z</time>
      </trkpt>
      <trkpt lat="43.22123" lon="5.49993">
        <ele>252</ele>
        <time>2019-02-06T08:48:42Z</time>
      </trkpt>
      <trkpt lat="43.22122" lon="5.49986">
        <ele>255</ele>
        <time>2019-02-06T08:48:46Z</time>
      </trkpt>
      <trkpt lat="43.22122" lon="5.49979">
        <ele>254</ele>
        <time>2019-02-06T08:48:50Z</time>
      </trkpt>
      <trkpt lat="43.22122" lon="5.49972">
        <ele>253</ele>
        <time>2019-02-06T08:48:56Z</time>
      </trkpt>
      <trkpt lat="43.22122" lon="5.49964">
        <ele>253</ele>
        <time>2019-02-06T08:49:02Z</time>
      </trkpt>
      <trkpt lat="43.22122" lon="5.49958">
        <ele>251</ele>
        <time>2019-02-06T08:49:06Z</time>
      </trkpt>
      <trkpt lat="43.22123" lon="5.4995">
        <ele>254</ele>
        <time>2019-02-06T08:49:12Z</time>
      </trkpt>
      <trkpt lat="43.22124" lon="5.49944">
        <ele>254</ele>
        <time>2019-02-06T08:49:18Z</time>
      </trkpt>
      <trkpt lat="43.22126" lon="5.49936">
        <ele>253</ele>
        <time>2019-02-06T08:49:24Z</time>
      </trkpt>
      <trkpt lat="43.2213" lon="5.4993">
        <ele>252</ele>
        <time>2019-02-06T08:49:30Z</time>
      </trkpt>
      <trkpt lat="43.22133" lon="5.49924">
        <ele>253</ele>
        <time>2019-02-06T08:49:34Z</time>
      </trkpt>
      <trkpt lat="43.22134" lon="5.49917">
        <ele>251</ele>
        <time>2019-02-06T08:49:38Z</time>
      </trkpt>
      <trkpt lat="43.22135" lon="5.4991">
        <ele>252</ele>
        <time>2019-02-06T08:49:42Z</time>
      </trkpt>
      <trkpt lat="43.22135" lon="5.49902">
        <ele>249</ele>
        <time>2019-02-06T08:49:48Z</time>
      </trkpt>
      <trkpt lat="43.22135" lon="5.49893">
        <ele>251</ele>
        <time>2019-02-06T08:49:54Z</time>
      </trkpt>
      <trkpt lat="43.22136" lon="5.49885">
        <ele>251</ele>
        <time>2019-02-06T08:50:00Z</time>
      </trkpt>
      <trkpt lat="43.22136" lon="5.49877">
        <ele>251</ele>
        <time>2019-02-06T08:50:06Z</time>
      </trkpt>
      <trkpt lat="43.22135" lon="5.49871">
        <ele>249</ele>
        <time>2019-02-06T08:50:12Z</time>
      </trkpt>
      <trkpt lat="43.2213" lon="5.49868">
        <ele>250</ele>
        <time>2019-02-06T08:50:18Z</time>
      </trkpt>
      <trkpt lat="43.22125" lon="5.49868">
        <ele>253</ele>
        <time>2019-02-06T08:50:24Z</time>
      </trkpt>
      <trkpt lat="43.22121" lon="5.49869">
        <ele>253</ele>
        <time>2019-02-06T08:50:30Z</time>
      </trkpt>
      <trkpt lat="43.22116" lon="5.4987">
        <ele>254</ele>
        <time>2019-02-06T08:50:36Z</time>
      </trkpt>
      <trkpt lat="43.22111" lon="5.49874">
        <ele>256</ele>
        <time>2019-02-06T08:50:42Z</time>
      </trkpt>
      <trkpt lat="43.22104" lon="5.49874">
        <ele>255</ele>
        <time>2019-02-06T08:50:48Z</time>
      </trkpt>
      <trkpt lat="43.22098" lon="5.49876">
        <ele>254</ele>
        <time>2019-02-06T08:50:54Z</time>
      </trkpt>
      <trkpt lat="43.22092" lon="5.49876">
        <ele>254</ele>
        <time>2019-02-06T08:51:00Z</time>
      </trkpt>
      <trkpt lat="43.22086" lon="5.49877">
        <ele>254</ele>
        <time>2019-02-06T08:51:06Z</time>
      </trkpt>
      <trkpt lat="43.22079" lon="5.49879">
        <ele>256</ele>
        <time>2019-02-06T08:51:12Z</time>
      </trkpt>
      <trkpt lat="43.22073" lon="5.4988">
        <ele>256</ele>
        <time>2019-02-06T08:51:18Z</time>
      </trkpt>
      <trkpt lat="43.22067" lon="5.49882">
        <ele>256</ele>
        <time>2019-02-06T08:51:24Z</time>
      </trkpt>
      <trkpt lat="43.22062" lon="5.49884">
        <ele>256</ele>
        <time>2019-02-06T08:51:30Z</time>
      </trkpt>
      <trkpt lat="43.22057" lon="5.49886">
        <ele>256</ele>
        <time>2019-02-06T08:51:34Z</time>
      </trkpt>
      <trkpt lat="43.22051" lon="5.49887">
        <ele>256</ele>
        <time>2019-02-06T08:51:40Z</time>
      </trkpt>
      <trkpt lat="43.22044" lon="5.4989">
        <ele>257</ele>
        <time>2019-02-06T08:51:46Z</time>
      </trkpt>
      <trkpt lat="43.22039" lon="5.49892">
        <ele>257</ele>
        <time>2019-02-06T08:51:50Z</time>
      </trkpt>
      <trkpt lat="43.22035" lon="5.49895">
        <ele>256</ele>
        <time>2019-02-06T08:51:54Z</time>
      </trkpt>
      <trkpt lat="43.22031" lon="5.49898">
        <ele>257</ele>
        <time>2019-02-06T08:51:58Z</time>
      </trkpt>
      <trkpt lat="43.22025" lon="5.49902">
        <ele>258</ele>
        <time>2019-02-06T08:52:04Z</time>
      </trkpt>
      <trkpt lat="43.22021" lon="5.49905">
        <ele>258</ele>
        <time>2019-02-06T08:52:08Z</time>
      </trkpt>
      <trkpt lat="43.22016" lon="5.49908">
        <ele>259</ele>
        <time>2019-02-06T08:52:12Z</time>
      </trkpt>
      <trkpt lat="43.2201" lon="5.49909">
        <ele>258</ele>
        <time>2019-02-06T08:52:18Z</time>
      </trkpt>
      <trkpt lat="43.22005" lon="5.4991">
        <ele>258</ele>
        <time>2019-02-06T08:52:22Z</time>
      </trkpt>
      <trkpt lat="43.21999" lon="5.49912">
        <ele>257</ele>
        <time>2019-02-06T08:52:28Z</time>
      </trkpt>
      <trkpt lat="43.21995" lon="5.49913">
        <ele>258</ele>
        <time>2019-02-06T08:52:32Z</time>
      </trkpt>
      <trkpt lat="43.2199" lon="5.49915">
        <ele>258</ele>
        <time>2019-02-06T08:52:36Z</time>
      </trkpt>
      <trkpt lat="43.21984" lon="5.49916">
        <ele>257</ele>
        <time>2019-02-06T08:52:42Z</time>
      </trkpt>
      <trkpt lat="43.21977" lon="5.49917">
        <ele>257</ele>
        <time>2019-02-06T08:52:48Z</time>
      </trkpt>
      <trkpt lat="43.21973" lon="5.49917">
        <ele>257</ele>
        <time>2019-02-06T08:52:52Z</time>
      </trkpt>
      <trkpt lat="43.21966" lon="5.49916">
        <ele>256</ele>
        <time>2019-02-06T08:52:58Z</time>
      </trkpt>
      <trkpt lat="43.2196" lon="5.49913">
        <ele>254</ele>
        <time>2019-02-06T08:53:04Z</time>
      </trkpt>
      <trkpt lat="43.21954" lon="5.49909">
        <ele>255</ele>
        <time>2019-02-06T08:53:10Z</time>
      </trkpt>
      <trkpt lat="43.21951" lon="5.49906">
        <ele>255</ele>
        <time>2019-02-06T08:53:14Z</time>
      </trkpt>
      <trkpt lat="43.21946" lon="5.49901">
        <ele>254</ele>
        <time>2019-02-06T08:53:20Z</time>
      </trkpt>
      <trkpt lat="43.21941" lon="5.49895">
        <ele>251</ele>
        <time>2019-02-06T08:53:26Z</time>
      </trkpt>
      <trkpt lat="43.21938" lon="5.49891">
        <ele>252</ele>
        <time>2019-02-06T08:53:30Z</time>
      </trkpt>
      <trkpt lat="43.21933" lon="5.49885">
        <ele>251</ele>
        <time>2019-02-06T08:53:36Z</time>
      </trkpt>
      <trkpt lat="43.21929" lon="5.4988">
        <ele>250</ele>
        <time>2019-02-06T08:53:40Z</time>
      </trkpt>
      <trkpt lat="43.21925" lon="5.49876">
        <ele>250</ele>
        <time>2019-02-06T08:53:44Z</time>
      </trkpt>
      <trkpt lat="43.2192" lon="5.4987">
        <ele>251</ele>
        <time>2019-02-06T08:53:50Z</time>
      </trkpt>
      <trkpt lat="43.21914" lon="5.49866">
        <ele>251</ele>
        <time>2019-02-06T08:53:56Z</time>
      </trkpt>
      <trkpt lat="43.21909" lon="5.49861">
        <ele>250</ele>
        <time>2019-02-06T08:54:02Z</time>
      </trkpt>
      <trkpt lat="43.21903" lon="5.49857">
        <ele>250</ele>
        <time>2019-02-06T08:54:08Z</time>
      </trkpt>
      <trkpt lat="43.21899" lon="5.49853">
        <ele>250</ele>
        <time>2019-02-06T08:54:12Z</time>
      </trkpt>
      <trkpt lat="43.21895" lon="5.49849">
        <ele>251</ele>
        <time>2019-02-06T08:54:16Z</time>
      </trkpt>
      <trkpt lat="43.21892" lon="5.49846">
        <ele>250</ele>
        <time>2019-02-06T08:54:20Z</time>
      </trkpt>
      <trkpt lat="43.21887" lon="5.4984">
        <ele>250</ele>
        <time>2019-02-06T08:54:26Z</time>
      </trkpt>
      <trkpt lat="43.21883" lon="5.49833">
        <ele>250</ele>
        <time>2019-02-06T08:54:32Z</time>
      </trkpt>
      <trkpt lat="43.2188" lon="5.49825">
        <ele>250</ele>
        <time>2019-02-06T08:54:38Z</time>
      </trkpt>
      <trkpt lat="43.21879" lon="5.49816">
        <ele>249</ele>
        <time>2019-02-06T08:54:44Z</time>
      </trkpt>
      <trkpt lat="43.21881" lon="5.49807">
        <ele>248</ele>
        <time>2019-02-06T08:54:50Z</time>
      </trkpt>
      <trkpt lat="43.21883" lon="5.49799">
        <ele>246</ele>
        <time>2019-02-06T08:54:56Z</time>
      </trkpt>
      <trkpt lat="43.21885" lon="5.49792">
        <ele>245</ele>
        <time>2019-02-06T08:55:02Z</time>
      </trkpt>
      <trkpt lat="43.21889" lon="5.49786">
        <ele>244</ele>
        <time>2019-02-06T08:55:08Z</time>
      </trkpt>
      <trkpt lat="43.21891" lon="5.49781">
        <ele>243</ele>
        <time>2019-02-06T08:55:12Z</time>
      </trkpt>
      <trkpt lat="43.21894" lon="5.49775">
        <ele>243</ele>
        <time>2019-02-06T08:55:16Z</time>
      </trkpt>
      <trkpt lat="43.21897" lon="5.4977">
        <ele>243</ele>
        <time>2019-02-06T08:55:20Z</time>
      </trkpt>
      <trkpt lat="43.21901" lon="5.49764">
        <ele>242</ele>
        <time>2019-02-06T08:55:26Z</time>
      </trkpt>
      <trkpt lat="43.21904" lon="5.49756">
        <ele>241</ele>
        <time>2019-02-06T08:55:32Z</time>
      </trkpt>
      <trkpt lat="43.21904" lon="5.49747">
        <ele>240</ele>
        <time>2019-02-06T08:55:38Z</time>
      </trkpt>
      <trkpt lat="43.21903" lon="5.4974">
        <ele>239</ele>
        <time>2019-02-06T08:55:44Z</time>
      </trkpt>
      <trkpt lat="43.21898" lon="5.49736">
        <ele>237</ele>
        <time>2019-02-06T08:55:52Z</time>
      </trkpt>
      <trkpt lat="43.21893" lon="5.49734">
        <ele>235</ele>
        <time>2019-02-06T08:55:58Z</time>
      </trkpt>
      <trkpt lat="43.21887" lon="5.49731">
        <ele>235</ele>
        <time>2019-02-06T08:56:04Z</time>
      </trkpt>
      <trkpt lat="43.21881" lon="5.4973">
        <ele>233</ele>
        <time>2019-02-06T08:56:10Z</time>
      </trkpt>
      <trkpt lat="43.21875" lon="5.4973">
        <ele>232</ele>
        <time>2019-02-06T08:56:16Z</time>
      </trkpt>
      <trkpt lat="43.21869" lon="5.49731">
        <ele>230</ele>
        <time>2019-02-06T08:56:22Z</time>
      </trkpt>
      <trkpt lat="43.21862" lon="5.49732">
        <ele>229</ele>
        <time>2019-02-06T08:56:28Z</time>
      </trkpt>
      <trkpt lat="43.21855" lon="5.49731">
        <ele>229</ele>
        <time>2019-02-06T08:56:34Z</time>
      </trkpt>
      <trkpt lat="43.21849" lon="5.49732">
        <ele>229</ele>
        <time>2019-02-06T08:56:40Z</time>
      </trkpt>
      <trkpt lat="43.21842" lon="5.49733">
        <ele>228</ele>
        <time>2019-02-06T08:56:46Z</time>
      </trkpt>
      <trkpt lat="43.21838" lon="5.49733">
        <ele>228</ele>
        <time>2019-02-06T08:56:50Z</time>
      </trkpt>
      <trkpt lat="43.21833" lon="5.49734">
        <ele>227</ele>
        <time>2019-02-06T08:56:54Z</time>
      </trkpt>
      <trkpt lat="43.21826" lon="5.49735">
        <ele>226</ele>
        <time>2019-02-06T08:57:00Z</time>
      </trkpt>
      <trkpt lat="43.21822" lon="5.49737">
        <ele>225</ele>
        <time>2019-02-06T08:57:04Z</time>
      </trkpt>
      <trkpt lat="43.21816" lon="5.49738">
        <ele>226</ele>
        <time>2019-02-06T08:57:10Z</time>
      </trkpt>
      <trkpt lat="43.2181" lon="5.49741">
        <ele>223</ele>
        <time>2019-02-06T08:57:16Z</time>
      </trkpt>
      <trkpt lat="43.21805" lon="5.49739">
        <ele>222</ele>
        <time>2019-02-06T08:57:22Z</time>
      </trkpt>
      <trkpt lat="43.21806" lon="5.49733">
        <ele>222</ele>
        <time>2019-02-06T08:57:28Z</time>
      </trkpt>
      <trkpt lat="43.2181" lon="5.49726">
        <ele>221</ele>
        <time>2019-02-06T08:57:34Z</time>
      </trkpt>
      <trkpt lat="43.21813" lon="5.4972">
        <ele>219</ele>
        <time>2019-02-06T08:57:40Z</time>
      </trkpt>
      <trkpt lat="43.21815" lon="5.49714">
        <ele>217</ele>
        <time>2019-02-06T08:57:46Z</time>
      </trkpt>
      <trkpt lat="43.21819" lon="5.49707">
        <ele>217</ele>
        <time>2019-02-06T08:57:52Z</time>
      </trkpt>
      <trkpt lat="43.21823" lon="5.49702">
        <ele>217</ele>
        <time>2019-02-06T08:57:58Z</time>
      </trkpt>
      <trkpt lat="43.21827" lon="5.49694">
        <ele>216</ele>
        <time>2019-02-06T08:58:04Z</time>
      </trkpt>
      <trkpt lat="43.21831" lon="5.49688">
        <ele>216</ele>
        <time>2019-02-06T08:58:10Z</time>
      </trkpt>
      <trkpt lat="43.21835" lon="5.49682">
        <ele>215</ele>
        <time>2019-02-06T08:58:16Z</time>
      </trkpt>
      <trkpt lat="43.21838" lon="5.49675">
        <ele>213</ele>
        <time>2019-02-06T08:58:22Z</time>
      </trkpt>
      <trkpt lat="43.21841" lon="5.49667">
        <ele>212</ele>
        <time>2019-02-06T08:58:28Z</time>
      </trkpt>
      <trkpt lat="43.21844" lon="5.4966">
        <ele>211</ele>
        <time>2019-02-06T08:58:34Z</time>
      </trkpt>
      <trkpt lat="43.21846" lon="5.49652">
        <ele>209</ele>
        <time>2019-02-06T08:58:40Z</time>
      </trkpt>
      <trkpt lat="43.21848" lon="5.49643">
        <ele>208</ele>
        <time>2019-02-06T08:58:46Z</time>
      </trkpt>
      <trkpt lat="43.2185" lon="5.49638">
        <ele>205</ele>
        <time>2019-02-06T08:58:52Z</time>
      </trkpt>
      <trkpt lat="43.21855" lon="5.49633">
        <ele>205</ele>
        <time>2019-02-06T08:59:00Z</time>
      </trkpt>
      <trkpt lat="43.21859" lon="5.49627">
        <ele>204</ele>
        <time>2019-02-06T08:59:06Z</time>
      </trkpt>
      <trkpt lat="43.21864" lon="5.49624">
        <ele>206</ele>
        <time>2019-02-06T08:59:10Z</time>
      </trkpt>
      <trkpt lat="43.21868" lon="5.49622">
        <ele>208</ele>
        <time>2019-02-06T08:59:14Z</time>
      </trkpt>
      <trkpt lat="43.21874" lon="5.49619">
        <ele>208</ele>
        <time>2019-02-06T08:59:20Z</time>
      </trkpt>
      <trkpt lat="43.21878" lon="5.49617">
        <ele>208</ele>
        <time>2019-02-06T08:59:24Z</time>
      </trkpt>
      <trkpt lat="43.21883" lon="5.49611">
        <ele>207</ele>
        <time>2019-02-06T08:59:30Z</time>
      </trkpt>
      <trkpt lat="43.21882" lon="5.49603">
        <ele>206</ele>
        <time>2019-02-06T08:59:36Z</time>
      </trkpt>
      <trkpt lat="43.21878" lon="5.49602">
        <ele>202</ele>
        <time>2019-02-06T08:59:44Z</time>
      </trkpt>
      <trkpt lat="43.21872" lon="5.49603">
        <ele>201</ele>
        <time>2019-02-06T08:59:50Z</time>
      </trkpt>
      <trkpt lat="43.21867" lon="5.49604">
        <ele>198</ele>
        <time>2019-02-06T08:59:56Z</time>
      </trkpt>
      <trkpt lat="43.21861" lon="5.49607">
        <ele>196</ele>
        <time>2019-02-06T09:00:02Z</time>
      </trkpt>
      <trkpt lat="43.21857" lon="5.49608">
        <ele>196</ele>
        <time>2019-02-06T09:00:06Z</time>
      </trkpt>
      <trkpt lat="43.21852" lon="5.4961">
        <ele>196</ele>
        <time>2019-02-06T09:00:10Z</time>
      </trkpt>
      <trkpt lat="43.21846" lon="5.49614">
        <ele>195</ele>
        <time>2019-02-06T09:00:16Z</time>
      </trkpt>
      <trkpt lat="43.21841" lon="5.49619">
        <ele>196</ele>
        <time>2019-02-06T09:00:22Z</time>
      </trkpt>
      <trkpt lat="43.21837" lon="5.49623">
        <ele>199</ele>
        <time>2019-02-06T09:00:26Z</time>
      </trkpt>
      <trkpt lat="43.21832" lon="5.49629">
        <ele>201</ele>
        <time>2019-02-06T09:00:32Z</time>
      </trkpt>
      <trkpt lat="43.21828" lon="5.49633">
        <ele>200</ele>
        <time>2019-02-06T09:00:38Z</time>
      </trkpt>
      <trkpt lat="43.21822" lon="5.49636">
        <ele>202</ele>
        <time>2019-02-06T09:00:46Z</time>
      </trkpt>
      <trkpt lat="43.21817" lon="5.4964">
        <ele>200</ele>
        <time>2019-02-06T09:00:54Z</time>
      </trkpt>
      <trkpt lat="43.2181" lon="5.49642">
        <ele>198</ele>
        <time>2019-02-06T09:01:00Z</time>
      </trkpt>
      <trkpt lat="43.21805" lon="5.49644">
        <ele>197</ele>
        <time>2019-02-06T09:01:04Z</time>
      </trkpt>
      <trkpt lat="43.21801" lon="5.49646">
        <ele>194</ele>
        <time>2019-02-06T09:01:08Z</time>
      </trkpt>
      <trkpt lat="43.21796" lon="5.49649">
        <ele>193</ele>
        <time>2019-02-06T09:01:14Z</time>
      </trkpt>
      <trkpt lat="43.21791" lon="5.49653">
        <ele>193</ele>
        <time>2019-02-06T09:01:22Z</time>
      </trkpt>
      <trkpt lat="43.21787" lon="5.49659">
        <ele>192</ele>
        <time>2019-02-06T09:01:28Z</time>
      </trkpt>
      <trkpt lat="43.21784" lon="5.49663">
        <ele>193</ele>
        <time>2019-02-06T09:01:34Z</time>
      </trkpt>
      <trkpt lat="43.21781" lon="5.49669">
        <ele>195</ele>
        <time>2019-02-06T09:01:38Z</time>
      </trkpt>
      <trkpt lat="43.21777" lon="5.49674">
        <ele>195</ele>
        <time>2019-02-06T09:01:42Z</time>
      </trkpt>
      <trkpt lat="43.21774" lon="5.49679">
        <ele>193</ele>
        <time>2019-02-06T09:01:46Z</time>
      </trkpt>
      <trkpt lat="43.21767" lon="5.4968">
        <ele>192</ele>
        <time>2019-02-06T09:01:52Z</time>
      </trkpt>
      <trkpt lat="43.21761" lon="5.49678">
        <ele>192</ele>
        <time>2019-02-06T09:01:58Z</time>
      </trkpt>
      <trkpt lat="43.21756" lon="5.49676">
        <ele>194</ele>
        <time>2019-02-06T09:02:02Z</time>
      </trkpt>
      <trkpt lat="43.21753" lon="5.4967">
        <ele>189</ele>
        <time>2019-02-06T09:02:08Z</time>
      </trkpt>
      <trkpt lat="43.2175" lon="5.49664">
        <ele>189</ele>
        <time>2019-02-06T09:02:14Z</time>
      </trkpt>
      <trkpt lat="43.21747" lon="5.49659">
        <ele>192</ele>
        <time>2019-02-06T09:02:18Z</time>
      </trkpt>
      <trkpt lat="43.21744" lon="5.49652">
        <ele>192</ele>
        <time>2019-02-06T09:02:24Z</time>
      </trkpt>
      <trkpt lat="43.21741" lon="5.49645">
        <ele>192</ele>
        <time>2019-02-06T09:02:30Z</time>
      </trkpt>
      <trkpt lat="43.21737" lon="5.49637">
        <ele>192</ele>
        <time>2019-02-06T09:02:36Z</time>
      </trkpt>
      <trkpt lat="43.21735" lon="5.49631">
        <ele>192</ele>
        <time>2019-02-06T09:02:40Z</time>
      </trkpt>
      <trkpt lat="43.21732" lon="5.49623">
        <ele>193</ele>
        <time>2019-02-06T09:02:46Z</time>
      </trkpt>
      <trkpt lat="43.21728" lon="5.49616">
        <ele>192</ele>
        <time>2019-02-06T09:02:52Z</time>
      </trkpt>
      <trkpt lat="43.21726" lon="5.49609">
        <ele>191</ele>
        <time>2019-02-06T09:02:58Z</time>
      </trkpt>
      <trkpt lat="43.21723" lon="5.49602">
        <ele>190</ele>
        <time>2019-02-06T09:03:04Z</time>
      </trkpt>
      <trkpt lat="43.21721" lon="5.49595">
        <ele>189</ele>
        <time>2019-02-06T09:03:10Z</time>
      </trkpt>
      <trkpt lat="43.21718" lon="5.49587">
        <ele>188</ele>
        <time>2019-02-06T09:03:16Z</time>
      </trkpt>
      <trkpt lat="43.21716" lon="5.4958">
        <ele>187</ele>
        <time>2019-02-06T09:03:22Z</time>
      </trkpt>
      <trkpt lat="43.21713" lon="5.49573">
        <ele>187</ele>
        <time>2019-02-06T09:03:28Z</time>
      </trkpt>
      <trkpt lat="43.21709" lon="5.49565">
        <ele>187</ele>
        <time>2019-02-06T09:03:34Z</time>
      </trkpt>
      <trkpt lat="43.21706" lon="5.49558">
        <ele>187</ele>
        <time>2019-02-06T09:03:40Z</time>
      </trkpt>
      <trkpt lat="43.21702" lon="5.49551">
        <ele>187</ele>
        <time>2019-02-06T09:03:46Z</time>
      </trkpt>
      <trkpt lat="43.21698" lon="5.49545">
        <ele>186</ele>
        <time>2019-02-06T09:03:52Z</time>
      </trkpt>
      <trkpt lat="43.21695" lon="5.4954">
        <ele>185</ele>
        <time>2019-02-06T09:03:56Z</time>
      </trkpt>
      <trkpt lat="43.21693" lon="5.49535">
        <ele>183</ele>
        <time>2019-02-06T09:04:00Z</time>
      </trkpt>
      <trkpt lat="43.21688" lon="5.49528">
        <ele>184</ele>
        <time>2019-02-06T09:04:06Z</time>
      </trkpt>
      <trkpt lat="43.21683" lon="5.49522">
        <ele>185</ele>
        <time>2019-02-06T09:04:12Z</time>
      </trkpt>
      <trkpt lat="43.21679" lon="5.49515">
        <ele>183</ele>
        <time>2019-02-06T09:04:18Z</time>
      </trkpt>
      <trkpt lat="43.21676" lon="5.49509">
        <ele>182</ele>
        <time>2019-02-06T09:04:22Z</time>
      </trkpt>
      <trkpt lat="43.21673" lon="5.49504">
        <ele>183</ele>
        <time>2019-02-06T09:04:26Z</time>
      </trkpt>
      <trkpt lat="43.21671" lon="5.49498">
        <ele>183</ele>
        <time>2019-02-06T09:04:30Z</time>
      </trkpt>
      <trkpt lat="43.21666" lon="5.49492">
        <ele>182</ele>
        <time>2019-02-06T09:04:36Z</time>
      </trkpt>
      <trkpt lat="43.21662" lon="5.49485">
        <ele>182</ele>
        <time>2019-02-06T09:04:42Z</time>
      </trkpt>
      <trkpt lat="43.21659" lon="5.49478">
        <ele>181</ele>
        <time>2019-02-06T09:04:48Z</time>
      </trkpt>
      <trkpt lat="43.21656" lon="5.49471">
        <ele>181</ele>
        <time>2019-02-06T09:04:54Z</time>
      </trkpt>
      <trkpt lat="43.21653" lon="5.49466">
        <ele>181</ele>
        <time>2019-02-06T09:04:58Z</time>
      </trkpt>
      <trkpt lat="43.21649" lon="5.49458">
        <ele>179</ele>
        <time>2019-02-06T09:05:04Z</time>
      </trkpt>
      <trkpt lat="43.21646" lon="5.49454">
        <ele>179</ele>
        <time>2019-02-06T09:05:08Z</time>
      </trkpt>
      <trkpt lat="43.21642" lon="5.49452">
        <ele>178</ele>
        <time>2019-02-06T09:05:12Z</time>
      </trkpt>
      <trkpt lat="43.21636" lon="5.49449">
        <ele>176</ele>
        <time>2019-02-06T09:05:18Z</time>
      </trkpt>
      <trkpt lat="43.21632" lon="5.49449">
        <ele>176</ele>
        <time>2019-02-06T09:05:22Z</time>
      </trkpt>
      <trkpt lat="43.21626" lon="5.49449">
        <ele>175</ele>
        <time>2019-02-06T09:05:28Z</time>
      </trkpt>
      <trkpt lat="43.21621" lon="5.49449">
        <ele>175</ele>
        <time>2019-02-06T09:05:34Z</time>
      </trkpt>
      <trkpt lat="43.21616" lon="5.49449">
        <ele>174</ele>
        <time>2019-02-06T09:05:40Z</time>
      </trkpt>
      <trkpt lat="43.21611" lon="5.4945">
        <ele>173</ele>
        <time>2019-02-06T09:05:44Z</time>
      </trkpt>
      <trkpt lat="43.21606" lon="5.49451">
        <ele>173</ele>
        <time>2019-02-06T09:05:48Z</time>
      </trkpt>
      <trkpt lat="43.216" lon="5.49452">
        <ele>171</ele>
        <time>2019-02-06T09:05:54Z</time>
      </trkpt>
      <trkpt lat="43.21594" lon="5.4945">
        <ele>168</ele>
        <time>2019-02-06T09:06:00Z</time>
      </trkpt>
      <trkpt lat="43.2159" lon="5.49447">
        <ele>168</ele>
        <time>2019-02-06T09:06:04Z</time>
      </trkpt>
      <trkpt lat="43.21584" lon="5.49443">
        <ele>168</ele>
        <time>2019-02-06T09:06:08Z</time>
      </trkpt>
      <trkpt lat="43.21579" lon="5.4944">
        <ele>168</ele>
        <time>2019-02-06T09:06:12Z</time>
      </trkpt>
      <trkpt lat="43.21575" lon="5.49438">
        <ele>166</ele>
        <time>2019-02-06T09:06:16Z</time>
      </trkpt>
      <trkpt lat="43.2157" lon="5.49436">
        <ele>165</ele>
        <time>2019-02-06T09:06:20Z</time>
      </trkpt>
      <trkpt lat="43.21566" lon="5.49432">
        <ele>167</ele>
        <time>2019-02-06T09:06:24Z</time>
      </trkpt>
      <trkpt lat="43.21561" lon="5.49427">
        <ele>168</ele>
        <time>2019-02-06T09:06:30Z</time>
      </trkpt>
      <trkpt lat="43.21558" lon="5.49422">
        <ele>164</ele>
        <time>2019-02-06T09:06:36Z</time>
      </trkpt>
      <trkpt lat="43.21552" lon="5.4942">
        <ele>164</ele>
        <time>2019-02-06T09:06:40Z</time>
      </trkpt>
      <trkpt lat="43.21547" lon="5.49418">
        <ele>165</ele>
        <time>2019-02-06T09:06:44Z</time>
      </trkpt>
      <trkpt lat="43.21542" lon="5.49416">
        <ele>161</ele>
        <time>2019-02-06T09:06:48Z</time>
      </trkpt>
      <trkpt lat="43.21537" lon="5.49414">
        <ele>158</ele>
        <time>2019-02-06T09:06:54Z</time>
      </trkpt>
      <trkpt lat="43.21531" lon="5.49413">
        <ele>159</ele>
        <time>2019-02-06T09:07:00Z</time>
      </trkpt>
      <trkpt lat="43.21525" lon="5.49413">
        <ele>162</ele>
        <time>2019-02-06T09:07:06Z</time>
      </trkpt>
      <trkpt lat="43.21518" lon="5.49413">
        <ele>160</ele>
        <time>2019-02-06T09:07:12Z</time>
      </trkpt>
      <trkpt lat="43.21512" lon="5.49417">
        <ele>160</ele>
        <time>2019-02-06T09:07:20Z</time>
      </trkpt>
      <trkpt lat="43.21507" lon="5.4942">
        <ele>159</ele>
        <time>2019-02-06T09:07:24Z</time>
      </trkpt>
      <trkpt lat="43.21502" lon="5.49423">
        <ele>160</ele>
        <time>2019-02-06T09:07:28Z</time>
      </trkpt>
      <trkpt lat="43.21497" lon="5.49425">
        <ele>160</ele>
        <time>2019-02-06T09:07:32Z</time>
      </trkpt>
      <trkpt lat="43.21493" lon="5.49428">
        <ele>159</ele>
        <time>2019-02-06T09:07:36Z</time>
      </trkpt>
      <trkpt lat="43.21489" lon="5.49429">
        <ele>157</ele>
        <time>2019-02-06T09:08:04Z</time>
      </trkpt>
      <trkpt lat="43.21485" lon="5.49434">
        <ele>166</ele>
        <time>2019-02-06T09:09:40Z</time>
      </trkpt>
      <trkpt lat="43.21481" lon="5.49439">
        <ele>162</ele>
        <time>2019-02-06T09:09:46Z</time>
      </trkpt>
      <trkpt lat="43.21477" lon="5.49444">
        <ele>158</ele>
        <time>2019-02-06T09:09:54Z</time>
      </trkpt>
      <trkpt lat="43.21472" lon="5.49445">
        <ele>161</ele>
        <time>2019-02-06T09:10:00Z</time>
      </trkpt>
      <trkpt lat="43.21465" lon="5.49446">
        <ele>159</ele>
        <time>2019-02-06T09:10:06Z</time>
      </trkpt>
      <trkpt lat="43.21461" lon="5.49447">
        <ele>157</ele>
        <time>2019-02-06T09:10:10Z</time>
      </trkpt>
      <trkpt lat="43.21454" lon="5.49453">
        <ele>157</ele>
        <time>2019-02-06T09:10:18Z</time>
      </trkpt>
      <trkpt lat="43.21447" lon="5.49455">
        <ele>158</ele>
        <time>2019-02-06T09:10:22Z</time>
      </trkpt>
      <trkpt lat="43.21442" lon="5.49457">
        <ele>159</ele>
        <time>2019-02-06T09:10:28Z</time>
      </trkpt>
      <trkpt lat="43.21438" lon="5.49464">
        <ele>160</ele>
        <time>2019-02-06T09:10:36Z</time>
      </trkpt>
      <trkpt lat="43.21435" lon="5.49471">
        <ele>161</ele>
        <time>2019-02-06T09:10:42Z</time>
      </trkpt>
      <trkpt lat="43.21433" lon="5.49479">
        <ele>160</ele>
        <time>2019-02-06T09:10:48Z</time>
      </trkpt>
      <trkpt lat="43.21432" lon="5.49485">
        <ele>159</ele>
        <time>2019-02-06T09:10:52Z</time>
      </trkpt>
      <trkpt lat="43.21433" lon="5.49493">
        <ele>160</ele>
        <time>2019-02-06T09:10:58Z</time>
      </trkpt>
      <trkpt lat="43.21434" lon="5.49499">
        <ele>159</ele>
        <time>2019-02-06T09:11:02Z</time>
      </trkpt>
      <trkpt lat="43.21436" lon="5.49507">
        <ele>159</ele>
        <time>2019-02-06T09:11:08Z</time>
      </trkpt>
      <trkpt lat="43.2144" lon="5.49515">
        <ele>160</ele>
        <time>2019-02-06T09:11:14Z</time>
      </trkpt>
      <trkpt lat="43.21442" lon="5.4952">
        <ele>158</ele>
        <time>2019-02-06T09:11:20Z</time>
      </trkpt>
      <trkpt lat="43.21444" lon="5.49527">
        <ele>156</ele>
        <time>2019-02-06T09:11:28Z</time>
      </trkpt>
      <trkpt lat="43.21444" lon="5.49536">
        <ele>160</ele>
        <time>2019-02-06T09:11:32Z</time>
      </trkpt>
      <trkpt lat="43.21444" lon="5.49544">
        <ele>160</ele>
        <time>2019-02-06T09:11:36Z</time>
      </trkpt>
      <trkpt lat="43.21442" lon="5.49554">
        <ele>159</ele>
        <time>2019-02-06T09:11:40Z</time>
      </trkpt>
      <trkpt lat="43.2144" lon="5.49561">
        <ele>159</ele>
        <time>2019-02-06T09:11:48Z</time>
      </trkpt>
      <trkpt lat="43.21437" lon="5.49568">
        <ele>158</ele>
        <time>2019-02-06T09:11:54Z</time>
      </trkpt>
      <trkpt lat="43.21431" lon="5.49573">
        <ele>158</ele>
        <time>2019-02-06T09:12:00Z</time>
      </trkpt>
      <trkpt lat="43.21425" lon="5.49572">
        <ele>158</ele>
        <time>2019-02-06T09:12:06Z</time>
      </trkpt>
      <trkpt lat="43.2142" lon="5.49573">
        <ele>157</ele>
        <time>2019-02-06T09:12:10Z</time>
      </trkpt>
      <trkpt lat="43.21411" lon="5.4957">
        <ele>156</ele>
        <time>2019-02-06T09:12:18Z</time>
      </trkpt>
      <trkpt lat="43.21407" lon="5.49567">
        <ele>155</ele>
        <time>2019-02-06T09:12:22Z</time>
      </trkpt>
      <trkpt lat="43.21402" lon="5.49566">
        <ele>155</ele>
        <time>2019-02-06T09:12:26Z</time>
      </trkpt>
      <trkpt lat="43.21396" lon="5.49567">
        <ele>155</ele>
        <time>2019-02-06T09:12:32Z</time>
      </trkpt>
      <trkpt lat="43.21391" lon="5.49569">
        <ele>153</ele>
        <time>2019-02-06T09:12:38Z</time>
      </trkpt>
      <trkpt lat="43.21386" lon="5.49572">
        <ele>154</ele>
        <time>2019-02-06T09:12:44Z</time>
      </trkpt>
      <trkpt lat="43.21382" lon="5.49578">
        <ele>150</ele>
        <time>2019-02-06T09:12:50Z</time>
      </trkpt>
      <trkpt lat="43.21379" lon="5.49583">
        <ele>148</ele>
        <time>2019-02-06T09:12:54Z</time>
      </trkpt>
      <trkpt lat="43.21377" lon="5.49589">
        <ele>149</ele>
        <time>2019-02-06T09:12:58Z</time>
      </trkpt>
      <trkpt lat="43.21375" lon="5.49597">
        <ele>149</ele>
        <time>2019-02-06T09:13:04Z</time>
      </trkpt>
      <trkpt lat="43.21373" lon="5.49604">
        <ele>149</ele>
        <time>2019-02-06T09:13:08Z</time>
      </trkpt>
      <trkpt lat="43.21371" lon="5.49611">
        <ele>149</ele>
        <time>2019-02-06T09:13:12Z</time>
      </trkpt>
      <trkpt lat="43.21371" lon="5.49622">
        <ele>151</ele>
        <time>2019-02-06T09:13:18Z</time>
      </trkpt>
      <trkpt lat="43.21374" lon="5.49628">
        <ele>149</ele>
        <time>2019-02-06T09:13:22Z</time>
      </trkpt>
      <trkpt lat="43.21376" lon="5.49635">
        <ele>150</ele>
        <time>2019-02-06T09:13:28Z</time>
      </trkpt>
      <trkpt lat="43.2138" lon="5.49643">
        <ele>152</ele>
        <time>2019-02-06T09:13:32Z</time>
      </trkpt>
      <trkpt lat="43.21382" lon="5.49651">
        <ele>153</ele>
        <time>2019-02-06T09:13:36Z</time>
      </trkpt>
      <trkpt lat="43.21385" lon="5.49658">
        <ele>153</ele>
        <time>2019-02-06T09:13:42Z</time>
      </trkpt>
      <trkpt lat="43.21388" lon="5.49666">
        <ele>152</ele>
        <time>2019-02-06T09:13:48Z</time>
      </trkpt>
      <trkpt lat="43.2139" lon="5.49672">
        <ele>152</ele>
        <time>2019-02-06T09:13:52Z</time>
      </trkpt>
      <trkpt lat="43.21392" lon="5.49677">
        <ele>152</ele>
        <time>2019-02-06T09:13:56Z</time>
      </trkpt>
      <trkpt lat="43.21394" lon="5.49685">
        <ele>151</ele>
        <time>2019-02-06T09:14:02Z</time>
      </trkpt>
      <trkpt lat="43.21397" lon="5.49692">
        <ele>151</ele>
        <time>2019-02-06T09:14:08Z</time>
      </trkpt>
      <trkpt lat="43.21398" lon="5.49699">
        <ele>151</ele>
        <time>2019-02-06T09:14:12Z</time>
      </trkpt>
      <trkpt lat="43.214" lon="5.49706">
        <ele>151</ele>
        <time>2019-02-06T09:14:16Z</time>
      </trkpt>
      <trkpt lat="43.21402" lon="5.49713">
        <ele>151</ele>
        <time>2019-02-06T09:14:22Z</time>
      </trkpt>
      <trkpt lat="43.21402" lon="5.49721">
        <ele>149</ele>
        <time>2019-02-06T09:14:28Z</time>
      </trkpt>
      <trkpt lat="43.21401" lon="5.4973">
        <ele>150</ele>
        <time>2019-02-06T09:14:34Z</time>
      </trkpt>
      <trkpt lat="43.21401" lon="5.49736">
        <ele>148</ele>
        <time>2019-02-06T09:14:40Z</time>
      </trkpt>
      <trkpt lat="43.21399" lon="5.49744">
        <ele>149</ele>
        <time>2019-02-06T09:14:44Z</time>
      </trkpt>
      <trkpt lat="43.21396" lon="5.4975">
        <ele>148</ele>
        <time>2019-02-06T09:14:48Z</time>
      </trkpt>
      <trkpt lat="43.21393" lon="5.49756">
        <ele>151</ele>
        <time>2019-02-06T09:14:52Z</time>
      </trkpt>
      <trkpt lat="43.21389" lon="5.49759">
        <ele>153</ele>
        <time>2019-02-06T09:14:56Z</time>
      </trkpt>
      <trkpt lat="43.21383" lon="5.49763">
        <ele>149</ele>
        <time>2019-02-06T09:15:02Z</time>
      </trkpt>
      <trkpt lat="43.21378" lon="5.49764">
        <ele>149</ele>
        <time>2019-02-06T09:15:06Z</time>
      </trkpt>
      <trkpt lat="43.21373" lon="5.49764">
        <ele>147</ele>
        <time>2019-02-06T09:15:10Z</time>
      </trkpt>
      <trkpt lat="43.21368" lon="5.49765">
        <ele>145</ele>
        <time>2019-02-06T09:15:14Z</time>
      </trkpt>
      <trkpt lat="43.21361" lon="5.49766">
        <ele>143</ele>
        <time>2019-02-06T09:15:20Z</time>
      </trkpt>
      <trkpt lat="43.21355" lon="5.49767">
        <ele>143</ele>
        <time>2019-02-06T09:15:24Z</time>
      </trkpt>
      <trkpt lat="43.21351" lon="5.49768">
        <ele>142</ele>
        <time>2019-02-06T09:15:28Z</time>
      </trkpt>
      <trkpt lat="43.21345" lon="5.49769">
        <ele>141</ele>
        <time>2019-02-06T09:15:34Z</time>
      </trkpt>
      <trkpt lat="43.21339" lon="5.49772">
        <ele>144</ele>
        <time>2019-02-06T09:15:40Z</time>
      </trkpt>
      <trkpt lat="43.21334" lon="5.49773">
        <ele>142</ele>
        <time>2019-02-06T09:15:48Z</time>
      </trkpt>
      <trkpt lat="43.21329" lon="5.49775">
        <ele>140</ele>
        <time>2019-02-06T09:15:56Z</time>
      </trkpt>
      <trkpt lat="43.21325" lon="5.4978">
        <ele>139</ele>
        <time>2019-02-06T09:16:02Z</time>
      </trkpt>
      <trkpt lat="43.21319" lon="5.49783">
        <ele>135</ele>
        <time>2019-02-06T09:16:08Z</time>
      </trkpt>
      <trkpt lat="43.21314" lon="5.49786">
        <ele>132</ele>
        <time>2019-02-06T09:16:12Z</time>
      </trkpt>
      <trkpt lat="43.21309" lon="5.49788">
        <ele>132</ele>
        <time>2019-02-06T09:16:16Z</time>
      </trkpt>
      <trkpt lat="43.21304" lon="5.4979">
        <ele>131</ele>
        <time>2019-02-06T09:16:20Z</time>
      </trkpt>
      <trkpt lat="43.213" lon="5.49793">
        <ele>131</ele>
        <time>2019-02-06T09:16:24Z</time>
      </trkpt>
      <trkpt lat="43.21295" lon="5.49796">
        <ele>131</ele>
        <time>2019-02-06T09:16:28Z</time>
      </trkpt>
      <trkpt lat="43.2129" lon="5.49798">
        <ele>130</ele>
        <time>2019-02-06T09:16:32Z</time>
      </trkpt>
      <trkpt lat="43.21284" lon="5.49799">
        <ele>131</ele>
        <time>2019-02-06T09:16:36Z</time>
      </trkpt>
      <trkpt lat="43.21278" lon="5.49802">
        <ele>130</ele>
        <time>2019-02-06T09:16:40Z</time>
      </trkpt>
      <trkpt lat="43.21272" lon="5.49803">
        <ele>129</ele>
        <time>2019-02-06T09:16:44Z</time>
      </trkpt>
      <trkpt lat="43.21265" lon="5.49806">
        <ele>128</ele>
        <time>2019-02-06T09:16:48Z</time>
      </trkpt>
      <trkpt lat="43.21261" lon="5.49807">
        <ele>125</ele>
        <time>2019-02-06T09:16:52Z</time>
      </trkpt>
      <trkpt lat="43.21255" lon="5.49802">
        <ele>124</ele>
        <time>2019-02-06T09:16:58Z</time>
      </trkpt>
      <trkpt lat="43.21252" lon="5.49797">
        <ele>123</ele>
        <time>2019-02-06T09:17:02Z</time>
      </trkpt>
      <trkpt lat="43.21237" lon="5.49764">
        <ele>116</ele>
        <time>2019-02-06T09:17:23Z</time>
      </trkpt>
      <trkpt lat="43.2123" lon="5.49764">
        <ele>124</ele>
        <time>2019-02-06T09:17:26Z</time>
      </trkpt>
      <trkpt lat="43.21223" lon="5.49763">
        <ele>121</ele>
        <time>2019-02-06T09:17:30Z</time>
      </trkpt>
      <trkpt lat="43.21219" lon="5.49761">
        <ele>119</ele>
        <time>2019-02-06T09:17:34Z</time>
      </trkpt>
      <trkpt lat="43.21214" lon="5.49756">
        <ele>122</ele>
        <time>2019-02-06T09:17:40Z</time>
      </trkpt>
      <trkpt lat="43.2121" lon="5.49751">
        <ele>123</ele>
        <time>2019-02-06T09:17:46Z</time>
      </trkpt>
      <trkpt lat="43.21208" lon="5.49743">
        <ele>126</ele>
        <time>2019-02-06T09:17:54Z</time>
      </trkpt>
      <trkpt lat="43.21209" lon="5.49737">
        <ele>128</ele>
        <time>2019-02-06T09:17:58Z</time>
      </trkpt>
      <trkpt lat="43.21212" lon="5.49729">
        <ele>130</ele>
        <time>2019-02-06T09:18:04Z</time>
      </trkpt>
      <trkpt lat="43.21215" lon="5.49723">
        <ele>130</ele>
        <time>2019-02-06T09:18:10Z</time>
      </trkpt>
      <trkpt lat="43.21218" lon="5.49719">
        <ele>132</ele>
        <time>2019-02-06T09:18:16Z</time>
      </trkpt>
      <trkpt lat="43.21222" lon="5.4971">
        <ele>126</ele>
        <time>2019-02-06T09:18:20Z</time>
      </trkpt>
      <trkpt lat="43.21224" lon="5.49701">
        <ele>123</ele>
        <time>2019-02-06T09:18:24Z</time>
      </trkpt>
      <trkpt lat="43.21224" lon="5.49695">
        <ele>123</ele>
        <time>2019-02-06T09:18:28Z</time>
      </trkpt>
      <trkpt lat="43.21222" lon="5.49686">
        <ele>128</ele>
        <time>2019-02-06T09:18:34Z</time>
      </trkpt>
      <trkpt lat="43.2122" lon="5.49678">
        <ele>131</ele>
        <time>2019-02-06T09:18:38Z</time>
      </trkpt>
      <trkpt lat="43.21217" lon="5.49672">
        <ele>129</ele>
        <time>2019-02-06T09:18:42Z</time>
      </trkpt>
      <trkpt lat="43.21213" lon="5.49666">
        <ele>132</ele>
        <time>2019-02-06T09:18:46Z</time>
      </trkpt>
      <trkpt lat="43.21209" lon="5.49661">
        <ele>134</ele>
        <time>2019-02-06T09:18:50Z</time>
      </trkpt>
      <trkpt lat="43.21204" lon="5.49657">
        <ele>132</ele>
        <time>2019-02-06T09:18:54Z</time>
      </trkpt>
      <trkpt lat="43.21198" lon="5.49654">
        <ele>131</ele>
        <time>2019-02-06T09:19:00Z</time>
      </trkpt>
      <trkpt lat="43.21193" lon="5.49654">
        <ele>129</ele>
        <time>2019-02-06T09:19:06Z</time>
      </trkpt>
      <trkpt lat="43.21187" lon="5.49655">
        <ele>128</ele>
        <time>2019-02-06T09:19:10Z</time>
      </trkpt>
      <trkpt lat="43.21182" lon="5.49657">
        <ele>131</ele>
        <time>2019-02-06T09:19:14Z</time>
      </trkpt>
      <trkpt lat="43.21177" lon="5.49661">
        <ele>129</ele>
        <time>2019-02-06T09:19:18Z</time>
      </trkpt>
      <trkpt lat="43.21172" lon="5.49664">
        <ele>129</ele>
        <time>2019-02-06T09:19:22Z</time>
      </trkpt>
      <trkpt lat="43.21169" lon="5.49668">
        <ele>127</ele>
        <time>2019-02-06T09:19:26Z</time>
      </trkpt>
      <trkpt lat="43.21164" lon="5.49669">
        <ele>131</ele>
        <time>2019-02-06T09:21:02Z</time>
      </trkpt>
      <trkpt lat="43.21158" lon="5.49666">
        <ele>129</ele>
        <time>2019-02-06T09:21:10Z</time>
      </trkpt>
      <trkpt lat="43.21153" lon="5.49662">
        <ele>124</ele>
        <time>2019-02-06T09:21:18Z</time>
      </trkpt>
      <trkpt lat="43.2115" lon="5.49658">
        <ele>123</ele>
        <time>2019-02-06T09:21:24Z</time>
      </trkpt>
      <trkpt lat="43.21147" lon="5.49653">
        <ele>122</ele>
        <time>2019-02-06T09:21:32Z</time>
      </trkpt>
      <trkpt lat="43.21144" lon="5.49647">
        <ele>120</ele>
        <time>2019-02-06T09:21:40Z</time>
      </trkpt>
      <trkpt lat="43.2114" lon="5.49642">
        <ele>122</ele>
        <time>2019-02-06T09:21:48Z</time>
      </trkpt>
      <trkpt lat="43.21138" lon="5.49636">
        <ele>124</ele>
        <time>2019-02-06T09:21:56Z</time>
      </trkpt>
      <trkpt lat="43.21136" lon="5.49629">
        <ele>126</ele>
        <time>2019-02-06T09:22:04Z</time>
      </trkpt>
      <trkpt lat="43.21134" lon="5.49623">
        <ele>127</ele>
        <time>2019-02-06T09:22:14Z</time>
      </trkpt>
      <trkpt lat="43.21134" lon="5.49616">
        <ele>132</ele>
        <time>2019-02-06T09:22:24Z</time>
      </trkpt>
      <trkpt lat="43.21134" lon="5.49609">
        <ele>130</ele>
        <time>2019-02-06T09:22:32Z</time>
      </trkpt>
      <trkpt lat="43.21135" lon="5.49601">
        <ele>135</ele>
        <time>2019-02-06T09:22:44Z</time>
      </trkpt>
      <trkpt lat="43.21136" lon="5.49593">
        <ele>132</ele>
        <time>2019-02-06T09:22:50Z</time>
      </trkpt>
      <trkpt lat="43.21137" lon="5.49588">
        <ele>132</ele>
        <time>2019-02-06T09:22:56Z</time>
      </trkpt>
      <trkpt lat="43.21139" lon="5.4958">
        <ele>135</ele>
        <time>2019-02-06T09:23:04Z</time>
      </trkpt>
      <trkpt lat="43.21138" lon="5.49574">
        <ele>135</ele>
        <time>2019-02-06T09:23:16Z</time>
      </trkpt>
      <trkpt lat="43.21134" lon="5.49566">
        <ele>139</ele>
        <time>2019-02-06T09:23:24Z</time>
      </trkpt>
      <trkpt lat="43.21132" lon="5.4956">
        <ele>141</ele>
        <time>2019-02-06T09:23:30Z</time>
      </trkpt>
      <trkpt lat="43.21128" lon="5.49556">
        <ele>144</ele>
        <time>2019-02-06T09:23:36Z</time>
      </trkpt>
      <trkpt lat="43.21123" lon="5.49552">
        <ele>145</ele>
        <time>2019-02-06T09:23:56Z</time>
      </trkpt>
      <trkpt lat="43.2112" lon="5.49547">
        <ele>147</ele>
        <time>2019-02-06T09:24:04Z</time>
      </trkpt>
      <trkpt lat="43.21117" lon="5.49542">
        <ele>144</ele>
        <time>2019-02-06T09:24:12Z</time>
      </trkpt>
      <trkpt lat="43.21116" lon="5.49535">
        <ele>145</ele>
        <time>2019-02-06T09:24:22Z</time>
      </trkpt>
      <trkpt lat="43.21115" lon="5.49529">
        <ele>146</ele>
        <time>2019-02-06T09:24:30Z</time>
      </trkpt>
      <trkpt lat="43.21114" lon="5.49522">
        <ele>144</ele>
        <time>2019-02-06T09:24:36Z</time>
      </trkpt>
      <trkpt lat="43.21117" lon="5.49516">
        <ele>143</ele>
        <time>2019-02-06T09:24:44Z</time>
      </trkpt>
      <trkpt lat="43.21119" lon="5.49507">
        <ele>146</ele>
        <time>2019-02-06T09:24:52Z</time>
      </trkpt>
      <trkpt lat="43.21119" lon="5.49499">
        <ele>154</ele>
        <time>2019-02-06T09:24:58Z</time>
      </trkpt>
      <trkpt lat="43.2112" lon="5.49492">
        <ele>158</ele>
        <time>2019-02-06T09:25:06Z</time>
      </trkpt>
      <trkpt lat="43.21121" lon="5.49485">
        <ele>156</ele>
        <time>2019-02-06T09:25:16Z</time>
      </trkpt>
      <trkpt lat="43.21122" lon="5.49479">
        <ele>151</ele>
        <time>2019-02-06T09:25:26Z</time>
      </trkpt>
      <trkpt lat="43.21122" lon="5.49473">
        <ele>153</ele>
        <time>2019-02-06T09:25:32Z</time>
      </trkpt>
      <trkpt lat="43.21121" lon="5.49465">
        <ele>151</ele>
        <time>2019-02-06T09:25:40Z</time>
      </trkpt>
      <trkpt lat="43.21122" lon="5.49458">
        <ele>152</ele>
        <time>2019-02-06T09:25:48Z</time>
      </trkpt>
      <trkpt lat="43.21122" lon="5.49451">
        <ele>153</ele>
        <time>2019-02-06T09:25:54Z</time>
      </trkpt>
      <trkpt lat="43.21122" lon="5.49444">
        <ele>157</ele>
        <time>2019-02-06T09:26:02Z</time>
      </trkpt>
      <trkpt lat="43.21121" lon="5.49437">
        <ele>159</ele>
        <time>2019-02-06T09:26:08Z</time>
      </trkpt>
      <trkpt lat="43.21119" lon="5.4943">
        <ele>158</ele>
        <time>2019-02-06T09:26:14Z</time>
      </trkpt>
      <trkpt lat="43.21118" lon="5.49422">
        <ele>161</ele>
        <time>2019-02-06T09:26:20Z</time>
      </trkpt>
      <trkpt lat="43.21116" lon="5.49416">
        <ele>163</ele>
        <time>2019-02-06T09:26:26Z</time>
      </trkpt>
      <trkpt lat="43.21113" lon="5.49409">
        <ele>165</ele>
        <time>2019-02-06T09:26:34Z</time>
      </trkpt>
      <trkpt lat="43.2111" lon="5.49404">
        <ele>168</ele>
        <time>2019-02-06T09:26:40Z</time>
      </trkpt>
      <trkpt lat="43.21107" lon="5.49397">
        <ele>169</ele>
        <time>2019-02-06T09:26:48Z</time>
      </trkpt>
      <trkpt lat="43.21105" lon="5.49391">
        <ele>170</ele>
        <time>2019-02-06T09:26:58Z</time>
      </trkpt>
      <trkpt lat="43.21103" lon="5.49384">
        <ele>170</ele>
        <time>2019-02-06T09:27:10Z</time>
      </trkpt>
      <trkpt lat="43.21101" lon="5.49378">
        <ele>172</ele>
        <time>2019-02-06T09:27:18Z</time>
      </trkpt>
      <trkpt lat="43.21099" lon="5.49372">
        <ele>171</ele>
        <time>2019-02-06T09:27:26Z</time>
      </trkpt>
      <trkpt lat="43.21096" lon="5.49365">
        <ele>173</ele>
        <time>2019-02-06T09:27:34Z</time>
      </trkpt>
      <trkpt lat="43.21095" lon="5.49359">
        <ele>172</ele>
        <time>2019-02-06T09:27:40Z</time>
      </trkpt>
      <trkpt lat="43.21093" lon="5.49351">
        <ele>171</ele>
        <time>2019-02-06T09:27:48Z</time>
      </trkpt>
      <trkpt lat="43.21091" lon="5.49346">
        <ele>171</ele>
        <time>2019-02-06T09:27:54Z</time>
      </trkpt>
      <trkpt lat="43.2109" lon="5.49338">
        <ele>173</ele>
        <time>2019-02-06T09:28:02Z</time>
      </trkpt>
      <trkpt lat="43.21087" lon="5.49331">
        <ele>174</ele>
        <time>2019-02-06T09:28:10Z</time>
      </trkpt>
      <trkpt lat="43.21087" lon="5.49324">
        <ele>176</ele>
        <time>2019-02-06T09:28:20Z</time>
      </trkpt>
      <trkpt lat="43.21087" lon="5.49317">
        <ele>176</ele>
        <time>2019-02-06T09:28:28Z</time>
      </trkpt>
      <trkpt lat="43.21085" lon="5.49309">
        <ele>174</ele>
        <time>2019-02-06T09:28:36Z</time>
      </trkpt>
      <trkpt lat="43.21083" lon="5.49302">
        <ele>178</ele>
        <time>2019-02-06T09:28:42Z</time>
      </trkpt>
      <trkpt lat="43.21082" lon="5.49295">
        <ele>176</ele>
        <time>2019-02-06T09:28:50Z</time>
      </trkpt>
      <trkpt lat="43.21081" lon="5.49289">
        <ele>175</ele>
        <time>2019-02-06T09:28:56Z</time>
      </trkpt>
      <trkpt lat="43.21079" lon="5.49283">
        <ele>174</ele>
        <time>2019-02-06T09:29:02Z</time>
      </trkpt>
      <trkpt lat="43.21078" lon="5.49277">
        <ele>175</ele>
        <time>2019-02-06T09:29:08Z</time>
      </trkpt>
      <trkpt lat="43.21075" lon="5.49269">
        <ele>176</ele>
        <time>2019-02-06T09:29:16Z</time>
      </trkpt>
      <trkpt lat="43.21073" lon="5.49263">
        <ele>177</ele>
        <time>2019-02-06T09:29:22Z</time>
      </trkpt>
      <trkpt lat="43.2107" lon="5.49258">
        <ele>177</ele>
        <time>2019-02-06T09:29:28Z</time>
      </trkpt>
      <trkpt lat="43.21068" lon="5.49251">
        <ele>175</ele>
        <time>2019-02-06T09:29:36Z</time>
      </trkpt>
      <trkpt lat="43.21067" lon="5.49243">
        <ele>176</ele>
        <time>2019-02-06T09:29:44Z</time>
      </trkpt>
      <trkpt lat="43.21065" lon="5.49236">
        <ele>175</ele>
        <time>2019-02-06T09:29:52Z</time>
      </trkpt>
      <trkpt lat="43.21065" lon="5.49229">
        <ele>176</ele>
        <time>2019-02-06T09:29:58Z</time>
      </trkpt>
      <trkpt lat="43.21065" lon="5.49221">
        <ele>179</ele>
        <time>2019-02-06T09:30:04Z</time>
      </trkpt>
      <trkpt lat="43.21066" lon="5.49214">
        <ele>182</ele>
        <time>2019-02-06T09:30:10Z</time>
      </trkpt>
      <trkpt lat="43.21069" lon="5.49208">
        <ele>181</ele>
        <time>2019-02-06T09:30:18Z</time>
      </trkpt>
      <trkpt lat="43.21072" lon="5.49203">
        <ele>186</ele>
        <time>2019-02-06T09:30:24Z</time>
      </trkpt>
      <trkpt lat="43.21075" lon="5.49197">
        <ele>187</ele>
        <time>2019-02-06T09:30:30Z</time>
      </trkpt>
      <trkpt lat="43.21078" lon="5.49193">
        <ele>188</ele>
        <time>2019-02-06T09:30:36Z</time>
      </trkpt>
      <trkpt lat="43.21081" lon="5.49188">
        <ele>190</ele>
        <time>2019-02-06T09:30:42Z</time>
      </trkpt>
      <trkpt lat="43.21084" lon="5.49183">
        <ele>190</ele>
        <time>2019-02-06T09:30:48Z</time>
      </trkpt>
      <trkpt lat="43.21088" lon="5.49178">
        <ele>190</ele>
        <time>2019-02-06T09:30:54Z</time>
      </trkpt>
      <trkpt lat="43.21093" lon="5.49174">
        <ele>188</ele>
        <time>2019-02-06T09:31:02Z</time>
      </trkpt>
      <trkpt lat="43.21097" lon="5.49169">
        <ele>186</ele>
        <time>2019-02-06T09:31:10Z</time>
      </trkpt>
      <trkpt lat="43.21101" lon="5.49164">
        <ele>189</ele>
        <time>2019-02-06T09:31:16Z</time>
      </trkpt>
      <trkpt lat="43.21105" lon="5.49159">
        <ele>191</ele>
        <time>2019-02-06T09:31:22Z</time>
      </trkpt>
      <trkpt lat="43.21109" lon="5.49155">
        <ele>196</ele>
        <time>2019-02-06T09:31:28Z</time>
      </trkpt>
      <trkpt lat="43.21113" lon="5.49149">
        <ele>197</ele>
        <time>2019-02-06T09:31:34Z</time>
      </trkpt>
      <trkpt lat="43.21117" lon="5.49144">
        <ele>196</ele>
        <time>2019-02-06T09:31:40Z</time>
      </trkpt>
      <trkpt lat="43.21121" lon="5.4914">
        <ele>196</ele>
        <time>2019-02-06T09:31:46Z</time>
      </trkpt>
      <trkpt lat="43.21124" lon="5.49134">
        <ele>196</ele>
        <time>2019-02-06T09:31:54Z</time>
      </trkpt>
      <trkpt lat="43.21127" lon="5.49127">
        <ele>197</ele>
        <time>2019-02-06T09:32:04Z</time>
      </trkpt>
      <trkpt lat="43.21131" lon="5.49123">
        <ele>199</ele>
        <time>2019-02-06T09:32:10Z</time>
      </trkpt>
      <trkpt lat="43.21134" lon="5.49117">
        <ele>199</ele>
        <time>2019-02-06T09:32:16Z</time>
      </trkpt>
      <trkpt lat="43.21137" lon="5.49111">
        <ele>199</ele>
        <time>2019-02-06T09:32:22Z</time>
      </trkpt>
      <trkpt lat="43.21136" lon="5.49104">
        <ele>202</ele>
        <time>2019-02-06T09:32:28Z</time>
      </trkpt>
      <trkpt lat="43.21131" lon="5.49102">
        <ele>204</ele>
        <time>2019-02-06T09:32:36Z</time>
      </trkpt>
      <trkpt lat="43.21125" lon="5.49103">
        <ele>204</ele>
        <time>2019-02-06T09:32:42Z</time>
      </trkpt>
      <trkpt lat="43.2112" lon="5.49104">
        <ele>206</ele>
        <time>2019-02-06T09:32:48Z</time>
      </trkpt>
      <trkpt lat="43.21115" lon="5.49105">
        <ele>208</ele>
        <time>2019-02-06T09:32:54Z</time>
      </trkpt>
      <trkpt lat="43.2111" lon="5.49106">
        <ele>210</ele>
        <time>2019-02-06T09:33:00Z</time>
      </trkpt>
      <trkpt lat="43.21103" lon="5.49107">
        <ele>213</ele>
        <time>2019-02-06T09:33:08Z</time>
      </trkpt>
      <trkpt lat="43.21098" lon="5.49108">
        <ele>215</ele>
        <time>2019-02-06T09:33:14Z</time>
      </trkpt>
      <trkpt lat="43.21093" lon="5.49108">
        <ele>216</ele>
        <time>2019-02-06T09:33:20Z</time>
      </trkpt>
      <trkpt lat="43.21088" lon="5.49109">
        <ele>216</ele>
        <time>2019-02-06T09:33:26Z</time>
      </trkpt>
      <trkpt lat="43.21082" lon="5.4911">
        <ele>218</ele>
        <time>2019-02-06T09:33:34Z</time>
      </trkpt>
      <trkpt lat="43.21077" lon="5.49111">
        <ele>218</ele>
        <time>2019-02-06T09:33:40Z</time>
      </trkpt>
      <trkpt lat="43.21072" lon="5.49113">
        <ele>220</ele>
        <time>2019-02-06T09:33:46Z</time>
      </trkpt>
      <trkpt lat="43.21067" lon="5.49114">
        <ele>220</ele>
        <time>2019-02-06T09:33:52Z</time>
      </trkpt>
      <trkpt lat="43.21062" lon="5.49113">
        <ele>220</ele>
        <time>2019-02-06T09:33:58Z</time>
      </trkpt>
      <trkpt lat="43.21057" lon="5.49112">
        <ele>220</ele>
        <time>2019-02-06T09:34:04Z</time>
      </trkpt>
      <trkpt lat="43.21051" lon="5.49111">
        <ele>221</ele>
        <time>2019-02-06T09:34:12Z</time>
      </trkpt>
      <trkpt lat="43.21046" lon="5.49114">
        <ele>220</ele>
        <time>2019-02-06T09:34:18Z</time>
      </trkpt>
      <trkpt lat="43.21041" lon="5.49116">
        <ele>222</ele>
        <time>2019-02-06T09:34:24Z</time>
      </trkpt>
      <trkpt lat="43.21035" lon="5.49118">
        <ele>222</ele>
        <time>2019-02-06T09:34:30Z</time>
      </trkpt>
      <trkpt lat="43.2103" lon="5.4912">
        <ele>223</ele>
        <time>2019-02-06T09:34:36Z</time>
      </trkpt>
      <trkpt lat="43.21025" lon="5.49121">
        <ele>222</ele>
        <time>2019-02-06T09:34:48Z</time>
      </trkpt>
      <trkpt lat="43.21022" lon="5.49127">
        <ele>219</ele>
        <time>2019-02-06T09:35:08Z</time>
      </trkpt>
      <trkpt lat="43.21018" lon="5.49125">
        <ele>219</ele>
        <time>2019-02-06T09:37:18Z</time>
      </trkpt>
      <trkpt lat="43.21023" lon="5.49126">
        <ele>214</ele>
        <time>2019-02-06T09:40:30Z</time>
      </trkpt>
      <trkpt lat="43.21018" lon="5.49127">
        <ele>213</ele>
        <time>2019-02-06T09:45:02Z</time>
      </trkpt>
      <trkpt lat="43.21012" lon="5.49128">
        <ele>215</ele>
        <time>2019-02-06T09:45:08Z</time>
      </trkpt>
      <trkpt lat="43.21007" lon="5.49126">
        <ele>214</ele>
        <time>2019-02-06T09:45:14Z</time>
      </trkpt>
      <trkpt lat="43.21006" lon="5.49119">
        <ele>210</ele>
        <time>2019-02-06T09:45:22Z</time>
      </trkpt>
      <trkpt lat="43.2101" lon="5.49113">
        <ele>209</ele>
        <time>2019-02-06T09:45:30Z</time>
      </trkpt>
      <trkpt lat="43.21013" lon="5.49108">
        <ele>208</ele>
        <time>2019-02-06T09:45:36Z</time>
      </trkpt>
      <trkpt lat="43.21016" lon="5.49102">
        <ele>207</ele>
        <time>2019-02-06T09:45:42Z</time>
      </trkpt>
      <trkpt lat="43.21017" lon="5.49096">
        <ele>205</ele>
        <time>2019-02-06T09:45:48Z</time>
      </trkpt>
      <trkpt lat="43.21018" lon="5.49087">
        <ele>204</ele>
        <time>2019-02-06T09:45:54Z</time>
      </trkpt>
      <trkpt lat="43.21019" lon="5.49079">
        <ele>204</ele>
        <time>2019-02-06T09:46:00Z</time>
      </trkpt>
      <trkpt lat="43.2102" lon="5.49071">
        <ele>201</ele>
        <time>2019-02-06T09:46:06Z</time>
      </trkpt>
      <trkpt lat="43.21022" lon="5.49063">
        <ele>200</ele>
        <time>2019-02-06T09:46:12Z</time>
      </trkpt>
      <trkpt lat="43.21024" lon="5.49055">
        <ele>196</ele>
        <time>2019-02-06T09:46:18Z</time>
      </trkpt>
      <trkpt lat="43.21025" lon="5.49048">
        <ele>196</ele>
        <time>2019-02-06T09:46:24Z</time>
      </trkpt>
      <trkpt lat="43.21027" lon="5.4904">
        <ele>193</ele>
        <time>2019-02-06T09:46:30Z</time>
      </trkpt>
      <trkpt lat="43.21032" lon="5.49034">
        <ele>195</ele>
        <time>2019-02-06T09:46:36Z</time>
      </trkpt>
      <trkpt lat="43.21037" lon="5.49029">
        <ele>197</ele>
        <time>2019-02-06T09:46:42Z</time>
      </trkpt>
      <trkpt lat="43.21042" lon="5.49025">
        <ele>193</ele>
        <time>2019-02-06T09:46:48Z</time>
      </trkpt>
      <trkpt lat="43.21047" lon="5.4902">
        <ele>195</ele>
        <time>2019-02-06T09:46:54Z</time>
      </trkpt>
      <trkpt lat="43.21049" lon="5.49015">
        <ele>194</ele>
        <time>2019-02-06T09:46:58Z</time>
      </trkpt>
      <trkpt lat="43.21053" lon="5.49007">
        <ele>192</ele>
        <time>2019-02-06T09:47:04Z</time>
      </trkpt>
      <trkpt lat="43.21057" lon="5.49002">
        <ele>190</ele>
        <time>2019-02-06T09:47:10Z</time>
      </trkpt>
      <trkpt lat="43.2106" lon="5.48995">
        <ele>190</ele>
        <time>2019-02-06T09:47:16Z</time>
      </trkpt>
      <trkpt lat="43.21062" lon="5.48988">
        <ele>189</ele>
        <time>2019-02-06T09:47:22Z</time>
      </trkpt>
      <trkpt lat="43.21065" lon="5.4898">
        <ele>188</ele>
        <time>2019-02-06T09:47:28Z</time>
      </trkpt>
      <trkpt lat="43.21068" lon="5.48973">
        <ele>186</ele>
        <time>2019-02-06T09:47:34Z</time>
      </trkpt>
      <trkpt lat="43.2107" lon="5.48966">
        <ele>187</ele>
        <time>2019-02-06T09:47:38Z</time>
      </trkpt>
      <trkpt lat="43.21072" lon="5.48958">
        <ele>187</ele>
        <time>2019-02-06T09:47:44Z</time>
      </trkpt>
      <trkpt lat="43.21073" lon="5.4895">
        <ele>187</ele>
        <time>2019-02-06T09:47:50Z</time>
      </trkpt>
      <trkpt lat="43.21074" lon="5.4894">
        <ele>186</ele>
        <time>2019-02-06T09:47:56Z</time>
      </trkpt>
      <trkpt lat="43.21074" lon="5.48933">
        <ele>186</ele>
        <time>2019-02-06T09:48:00Z</time>
      </trkpt>
      <trkpt lat="43.21075" lon="5.48924">
        <ele>186</ele>
        <time>2019-02-06T09:48:06Z</time>
      </trkpt>
      <trkpt lat="43.21075" lon="5.48917">
        <ele>186</ele>
        <time>2019-02-06T09:48:10Z</time>
      </trkpt>
      <trkpt lat="43.21073" lon="5.48911">
        <ele>186</ele>
        <time>2019-02-06T09:48:16Z</time>
      </trkpt>
      <trkpt lat="43.2107" lon="5.48904">
        <ele>184</ele>
        <time>2019-02-06T09:48:22Z</time>
      </trkpt>
      <trkpt lat="43.21068" lon="5.48899">
        <ele>184</ele>
        <time>2019-02-06T09:48:28Z</time>
      </trkpt>
      <trkpt lat="43.21063" lon="5.48893">
        <ele>184</ele>
        <time>2019-02-06T09:48:34Z</time>
      </trkpt>
      <trkpt lat="43.21059" lon="5.48888">
        <ele>183</ele>
        <time>2019-02-06T09:48:38Z</time>
      </trkpt>
      <trkpt lat="43.21053" lon="5.48884">
        <ele>182</ele>
        <time>2019-02-06T09:48:44Z</time>
      </trkpt>
      <trkpt lat="43.21049" lon="5.48878">
        <ele>182</ele>
        <time>2019-02-06T09:48:50Z</time>
      </trkpt>
      <trkpt lat="43.2105" lon="5.4887">
        <ele>182</ele>
        <time>2019-02-06T09:48:56Z</time>
      </trkpt>
      <trkpt lat="43.21054" lon="5.48865">
        <ele>182</ele>
        <time>2019-02-06T09:49:02Z</time>
      </trkpt>
      <trkpt lat="43.21059" lon="5.48859">
        <ele>186</ele>
        <time>2019-02-06T09:49:08Z</time>
      </trkpt>
      <trkpt lat="43.21064" lon="5.48854">
        <ele>188</ele>
        <time>2019-02-06T09:49:14Z</time>
      </trkpt>
      <trkpt lat="43.21068" lon="5.48852">
        <ele>187</ele>
        <time>2019-02-06T09:49:20Z</time>
      </trkpt>
      <trkpt lat="43.21075" lon="5.48848">
        <ele>189</ele>
        <time>2019-02-06T09:49:28Z</time>
      </trkpt>
      <trkpt lat="43.21079" lon="5.48845">
        <ele>190</ele>
        <time>2019-02-06T09:49:32Z</time>
      </trkpt>
      <trkpt lat="43.21084" lon="5.4884">
        <ele>190</ele>
        <time>2019-02-06T09:49:38Z</time>
      </trkpt>
      <trkpt lat="43.21089" lon="5.48836">
        <ele>190</ele>
        <time>2019-02-06T09:49:44Z</time>
      </trkpt>
      <trkpt lat="43.21093" lon="5.48832">
        <ele>192</ele>
        <time>2019-02-06T09:49:48Z</time>
      </trkpt>
      <trkpt lat="43.21096" lon="5.48828">
        <ele>192</ele>
        <time>2019-02-06T09:49:52Z</time>
      </trkpt>
      <trkpt lat="43.21101" lon="5.48824">
        <ele>192</ele>
        <time>2019-02-06T09:49:58Z</time>
      </trkpt>
      <trkpt lat="43.21105" lon="5.48818">
        <ele>194</ele>
        <time>2019-02-06T09:50:04Z</time>
      </trkpt>
      <trkpt lat="43.21108" lon="5.48813">
        <ele>195</ele>
        <time>2019-02-06T09:50:08Z</time>
      </trkpt>
      <trkpt lat="43.21109" lon="5.48805">
        <ele>192</ele>
        <time>2019-02-06T09:50:16Z</time>
      </trkpt>
      <trkpt lat="43.21107" lon="5.48797">
        <ele>181</ele>
        <time>2019-02-06T09:50:22Z</time>
      </trkpt>
      <trkpt lat="43.21103" lon="5.48794">
        <ele>181</ele>
        <time>2019-02-06T09:50:26Z</time>
      </trkpt>
      <trkpt lat="43.21099" lon="5.48791">
        <ele>179</ele>
        <time>2019-02-06T09:50:30Z</time>
      </trkpt>
      <trkpt lat="43.21092" lon="5.48792">
        <ele>180</ele>
        <time>2019-02-06T09:50:36Z</time>
      </trkpt>
      <trkpt lat="43.21086" lon="5.48793">
        <ele>181</ele>
        <time>2019-02-06T09:50:42Z</time>
      </trkpt>
      <trkpt lat="43.21082" lon="5.48791">
        <ele>184</ele>
        <time>2019-02-06T09:51:02Z</time>
      </trkpt>
      <trkpt lat="43.21078" lon="5.48785">
        <ele>180</ele>
        <time>2019-02-06T09:51:50Z</time>
      </trkpt>
      <trkpt lat="43.21073" lon="5.48781">
        <ele>180</ele>
        <time>2019-02-06T09:51:56Z</time>
      </trkpt>
      <trkpt lat="43.21068" lon="5.48779">
        <ele>180</ele>
        <time>2019-02-06T09:52:02Z</time>
      </trkpt>
      <trkpt lat="43.21062" lon="5.48776">
        <ele>182</ele>
        <time>2019-02-06T09:52:08Z</time>
      </trkpt>
      <trkpt lat="43.21057" lon="5.48775">
        <ele>182</ele>
        <time>2019-02-06T09:52:14Z</time>
      </trkpt>
      <trkpt lat="43.21051" lon="5.48773">
        <ele>184</ele>
        <time>2019-02-06T09:52:20Z</time>
      </trkpt>
      <trkpt lat="43.21046" lon="5.48771">
        <ele>186</ele>
        <time>2019-02-06T09:52:26Z</time>
      </trkpt>
      <trkpt lat="43.21041" lon="5.48769">
        <ele>188</ele>
        <time>2019-02-06T09:52:32Z</time>
      </trkpt>
      <trkpt lat="43.21035" lon="5.4877">
        <ele>190</ele>
        <time>2019-02-06T09:52:40Z</time>
      </trkpt>
      <trkpt lat="43.2103" lon="5.4877">
        <ele>192</ele>
        <time>2019-02-06T09:52:48Z</time>
      </trkpt>
      <trkpt lat="43.21025" lon="5.48773">
        <ele>193</ele>
        <time>2019-02-06T09:52:54Z</time>
      </trkpt>
      <trkpt lat="43.2102" lon="5.48776">
        <ele>194</ele>
        <time>2019-02-06T09:53:02Z</time>
      </trkpt>
      <trkpt lat="43.21016" lon="5.4878">
        <ele>194</ele>
        <time>2019-02-06T09:53:08Z</time>
      </trkpt>
      <trkpt lat="43.21012" lon="5.48784">
        <ele>196</ele>
        <time>2019-02-06T09:53:16Z</time>
      </trkpt>
      <trkpt lat="43.21008" lon="5.48788">
        <ele>197</ele>
        <time>2019-02-06T09:53:24Z</time>
      </trkpt>
      <trkpt lat="43.21004" lon="5.48794">
        <ele>199</ele>
        <time>2019-02-06T09:53:34Z</time>
      </trkpt>
      <trkpt lat="43.21001" lon="5.48801">
        <ele>199</ele>
        <time>2019-02-06T09:53:42Z</time>
      </trkpt>
      <trkpt lat="43.20998" lon="5.48806">
        <ele>199</ele>
        <time>2019-02-06T09:53:48Z</time>
      </trkpt>
      <trkpt lat="43.20994" lon="5.4881">
        <ele>199</ele>
        <time>2019-02-06T09:53:54Z</time>
      </trkpt>
      <trkpt lat="43.2099" lon="5.48813">
        <ele>201</ele>
        <time>2019-02-06T09:54:02Z</time>
      </trkpt>
      <trkpt lat="43.20988" lon="5.48818">
        <ele>202</ele>
        <time>2019-02-06T09:54:12Z</time>
      </trkpt>
      <trkpt lat="43.20984" lon="5.48823">
        <ele>205</ele>
        <time>2019-02-06T09:54:20Z</time>
      </trkpt>
      <trkpt lat="43.2098" lon="5.48827">
        <ele>207</ele>
        <time>2019-02-06T09:54:28Z</time>
      </trkpt>
      <trkpt lat="43.20976" lon="5.48832">
        <ele>207</ele>
        <time>2019-02-06T09:54:38Z</time>
      </trkpt>
      <trkpt lat="43.20971" lon="5.48834">
        <ele>207</ele>
        <time>2019-02-06T09:54:44Z</time>
      </trkpt>
      <trkpt lat="43.20966" lon="5.4884">
        <ele>209</ele>
        <time>2019-02-06T09:54:52Z</time>
      </trkpt>
      <trkpt lat="43.20962" lon="5.48844">
        <ele>211</ele>
        <time>2019-02-06T09:54:58Z</time>
      </trkpt>
      <trkpt lat="43.20957" lon="5.48846">
        <ele>212</ele>
        <time>2019-02-06T09:55:06Z</time>
      </trkpt>
      <trkpt lat="43.20952" lon="5.48851">
        <ele>214</ele>
        <time>2019-02-06T09:55:14Z</time>
      </trkpt>
      <trkpt lat="43.20949" lon="5.48856">
        <ele>215</ele>
        <time>2019-02-06T09:55:20Z</time>
      </trkpt>
      <trkpt lat="43.20945" lon="5.48858">
        <ele>216</ele>
        <time>2019-02-06T09:55:26Z</time>
      </trkpt>
      <trkpt lat="43.2094" lon="5.48858">
        <ele>217</ele>
        <time>2019-02-06T09:55:34Z</time>
      </trkpt>
      <trkpt lat="43.20941" lon="5.48852">
        <ele>218</ele>
        <time>2019-02-06T09:55:58Z</time>
      </trkpt>
      <trkpt lat="43.20944" lon="5.48848">
        <ele>219</ele>
        <time>2019-02-06T09:56:08Z</time>
      </trkpt>
      <trkpt lat="43.20947" lon="5.48841">
        <ele>217</ele>
        <time>2019-02-06T09:56:16Z</time>
      </trkpt>
      <trkpt lat="43.20948" lon="5.48834">
        <ele>216</ele>
        <time>2019-02-06T09:56:26Z</time>
      </trkpt>
      <trkpt lat="43.20949" lon="5.48828">
        <ele>218</ele>
        <time>2019-02-06T09:56:34Z</time>
      </trkpt>
      <trkpt lat="43.20951" lon="5.48822">
        <ele>218</ele>
        <time>2019-02-06T09:56:44Z</time>
      </trkpt>
      <trkpt lat="43.2095" lon="5.48814">
        <ele>219</ele>
        <time>2019-02-06T09:56:54Z</time>
      </trkpt>
      <trkpt lat="43.20949" lon="5.48808">
        <ele>217</ele>
        <time>2019-02-06T09:57:00Z</time>
      </trkpt>
      <trkpt lat="43.20948" lon="5.48801">
        <ele>220</ele>
        <time>2019-02-06T09:57:08Z</time>
      </trkpt>
      <trkpt lat="43.2095" lon="5.48794">
        <ele>221</ele>
        <time>2019-02-06T09:57:18Z</time>
      </trkpt>
      <trkpt lat="43.2095" lon="5.48787">
        <ele>221</ele>
        <time>2019-02-06T09:57:26Z</time>
      </trkpt>
      <trkpt lat="43.2095" lon="5.48779">
        <ele>223</ele>
        <time>2019-02-06T09:57:34Z</time>
      </trkpt>
      <trkpt lat="43.20951" lon="5.48771">
        <ele>222</ele>
        <time>2019-02-06T09:57:42Z</time>
      </trkpt>
      <trkpt lat="43.20953" lon="5.48765">
        <ele>225</ele>
        <time>2019-02-06T09:57:54Z</time>
      </trkpt>
      <trkpt lat="43.20954" lon="5.48759">
        <ele>231</ele>
        <time>2019-02-06T09:58:10Z</time>
      </trkpt>
      <trkpt lat="43.20954" lon="5.48752">
        <ele>235</ele>
        <time>2019-02-06T10:00:12Z</time>
      </trkpt>
      <trkpt lat="43.20955" lon="5.48744">
        <ele>238</ele>
        <time>2019-02-06T10:00:20Z</time>
      </trkpt>
      <trkpt lat="43.20954" lon="5.48738">
        <ele>240</ele>
        <time>2019-02-06T10:00:26Z</time>
      </trkpt>
      <trkpt lat="43.20953" lon="5.48731">
        <ele>242</ele>
        <time>2019-02-06T10:00:34Z</time>
      </trkpt>
      <trkpt lat="43.20953" lon="5.48723">
        <ele>243</ele>
        <time>2019-02-06T10:00:42Z</time>
      </trkpt>
      <trkpt lat="43.20955" lon="5.48716">
        <ele>244</ele>
        <time>2019-02-06T10:00:48Z</time>
      </trkpt>
      <trkpt lat="43.20955" lon="5.48709">
        <ele>243</ele>
        <time>2019-02-06T10:00:56Z</time>
      </trkpt>
      <trkpt lat="43.20954" lon="5.48702">
        <ele>245</ele>
        <time>2019-02-06T10:01:04Z</time>
      </trkpt>
      <trkpt lat="43.20952" lon="5.48696">
        <ele>243</ele>
        <time>2019-02-06T10:01:12Z</time>
      </trkpt>
      <trkpt lat="43.20954" lon="5.4869">
        <ele>246</ele>
        <time>2019-02-06T10:02:42Z</time>
      </trkpt>
      <trkpt lat="43.20957" lon="5.48683">
        <ele>249</ele>
        <time>2019-02-06T10:03:26Z</time>
      </trkpt>
      <trkpt lat="43.2096" lon="5.48677">
        <ele>247</ele>
        <time>2019-02-06T10:03:34Z</time>
      </trkpt>
      <trkpt lat="43.20961" lon="5.48671">
        <ele>248</ele>
        <time>2019-02-06T10:03:42Z</time>
      </trkpt>
      <trkpt lat="43.2096" lon="5.48665">
        <ele>248</ele>
        <time>2019-02-06T10:03:50Z</time>
      </trkpt>
      <trkpt lat="43.20963" lon="5.48657">
        <ele>251</ele>
        <time>2019-02-06T10:04:00Z</time>
      </trkpt>
      <trkpt lat="43.20966" lon="5.48651">
        <ele>252</ele>
        <time>2019-02-06T10:04:08Z</time>
      </trkpt>
      <trkpt lat="43.20967" lon="5.48644">
        <ele>252</ele>
        <time>2019-02-06T10:04:18Z</time>
      </trkpt>
      <trkpt lat="43.20969" lon="5.48638">
        <ele>253</ele>
        <time>2019-02-06T10:04:26Z</time>
      </trkpt>
      <trkpt lat="43.2097" lon="5.48632">
        <ele>253</ele>
        <time>2019-02-06T10:04:36Z</time>
      </trkpt>
      <trkpt lat="43.20972" lon="5.48625">
        <ele>254</ele>
        <time>2019-02-06T10:04:48Z</time>
      </trkpt>
      <trkpt lat="43.20972" lon="5.48618">
        <ele>254</ele>
        <time>2019-02-06T10:04:56Z</time>
      </trkpt>
      <trkpt lat="43.20975" lon="5.48612">
        <ele>255</ele>
        <time>2019-02-06T10:05:06Z</time>
      </trkpt>
      <trkpt lat="43.20977" lon="5.48605">
        <ele>254</ele>
        <time>2019-02-06T10:05:16Z</time>
      </trkpt>
      <trkpt lat="43.20979" lon="5.48599">
        <ele>254</ele>
        <time>2019-02-06T10:05:24Z</time>
      </trkpt>
      <trkpt lat="43.20981" lon="5.48593">
        <ele>256</ele>
        <time>2019-02-06T10:05:30Z</time>
      </trkpt>
      <trkpt lat="43.20984" lon="5.48586">
        <ele>257</ele>
        <time>2019-02-06T10:05:38Z</time>
      </trkpt>
      <trkpt lat="43.20987" lon="5.48582">
        <ele>258</ele>
        <time>2019-02-06T10:05:48Z</time>
      </trkpt>
      <trkpt lat="43.20991" lon="5.48578">
        <ele>257</ele>
        <time>2019-02-06T10:05:56Z</time>
      </trkpt>
      <trkpt lat="43.20995" lon="5.48574">
        <ele>259</ele>
        <time>2019-02-06T10:06:02Z</time>
      </trkpt>
      <trkpt lat="43.20997" lon="5.48569">
        <ele>261</ele>
        <time>2019-02-06T10:06:08Z</time>
      </trkpt>
      <trkpt lat="43.20999" lon="5.48561">
        <ele>263</ele>
        <time>2019-02-06T10:06:16Z</time>
      </trkpt>
      <trkpt lat="43.21002" lon="5.48556">
        <ele>263</ele>
        <time>2019-02-06T10:06:22Z</time>
      </trkpt>
      <trkpt lat="43.21006" lon="5.4855">
        <ele>264</ele>
        <time>2019-02-06T10:06:30Z</time>
      </trkpt>
      <trkpt lat="43.21011" lon="5.48546">
        <ele>267</ele>
        <time>2019-02-06T10:06:38Z</time>
      </trkpt>
      <trkpt lat="43.21015" lon="5.48542">
        <ele>268</ele>
        <time>2019-02-06T10:06:46Z</time>
      </trkpt>
      <trkpt lat="43.21019" lon="5.4854">
        <ele>269</ele>
        <time>2019-02-06T10:06:52Z</time>
      </trkpt>
      <trkpt lat="43.21023" lon="5.48535">
        <ele>268</ele>
        <time>2019-02-06T10:06:58Z</time>
      </trkpt>
      <trkpt lat="43.21025" lon="5.48529">
        <ele>269</ele>
        <time>2019-02-06T10:07:04Z</time>
      </trkpt>
      <trkpt lat="43.21028" lon="5.48523">
        <ele>267</ele>
        <time>2019-02-06T10:07:12Z</time>
      </trkpt>
      <trkpt lat="43.21031" lon="5.48516">
        <ele>267</ele>
        <time>2019-02-06T10:07:20Z</time>
      </trkpt>
      <trkpt lat="43.21032" lon="5.4851">
        <ele>268</ele>
        <time>2019-02-06T10:07:26Z</time>
      </trkpt>
      <trkpt lat="43.21035" lon="5.48503">
        <ele>267</ele>
        <time>2019-02-06T10:07:34Z</time>
      </trkpt>
      <trkpt lat="43.21037" lon="5.48496">
        <ele>271</ele>
        <time>2019-02-06T10:07:42Z</time>
      </trkpt>
      <trkpt lat="43.2104" lon="5.48489">
        <ele>273</ele>
        <time>2019-02-06T10:07:48Z</time>
      </trkpt>
      <trkpt lat="43.2104" lon="5.48481">
        <ele>272</ele>
        <time>2019-02-06T10:07:56Z</time>
      </trkpt>
      <trkpt lat="43.21041" lon="5.48473">
        <ele>272</ele>
        <time>2019-02-06T10:08:04Z</time>
      </trkpt>
      <trkpt lat="43.21041" lon="5.48466">
        <ele>272</ele>
        <time>2019-02-06T10:08:10Z</time>
      </trkpt>
      <trkpt lat="43.21041" lon="5.48458">
        <ele>272</ele>
        <time>2019-02-06T10:08:18Z</time>
      </trkpt>
      <trkpt lat="43.21042" lon="5.48452">
        <ele>271</ele>
        <time>2019-02-06T10:08:24Z</time>
      </trkpt>
      <trkpt lat="43.21042" lon="5.48444">
        <ele>271</ele>
        <time>2019-02-06T10:08:32Z</time>
      </trkpt>
      <trkpt lat="43.2104" lon="5.48437">
        <ele>271</ele>
        <time>2019-02-06T10:08:38Z</time>
      </trkpt>
      <trkpt lat="43.21037" lon="5.48432">
        <ele>271</ele>
        <time>2019-02-06T10:08:44Z</time>
      </trkpt>
      <trkpt lat="43.21035" lon="5.48427">
        <ele>272</ele>
        <time>2019-02-06T10:08:48Z</time>
      </trkpt>
      <trkpt lat="43.21032" lon="5.4842">
        <ele>270</ele>
        <time>2019-02-06T10:08:54Z</time>
      </trkpt>
      <trkpt lat="43.21031" lon="5.48413">
        <ele>271</ele>
        <time>2019-02-06T10:09:02Z</time>
      </trkpt>
      <trkpt lat="43.21029" lon="5.48407">
        <ele>271</ele>
        <time>2019-02-06T10:09:16Z</time>
      </trkpt>
      <trkpt lat="43.21024" lon="5.48405">
        <ele>273</ele>
        <time>2019-02-06T10:11:40Z</time>
      </trkpt>
      <trkpt lat="43.21018" lon="5.48407">
        <ele>274</ele>
        <time>2019-02-06T10:11:46Z</time>
      </trkpt>
      <trkpt lat="43.21023" lon="5.48405">
        <ele>276</ele>
        <time>2019-02-06T10:12:06Z</time>
      </trkpt>
      <trkpt lat="43.21027" lon="5.48404">
        <ele>275</ele>
        <time>2019-02-06T10:12:18Z</time>
      </trkpt>
      <trkpt lat="43.21025" lon="5.48398">
        <ele>281</ele>
        <time>2019-02-06T10:21:04Z</time>
      </trkpt>
      <trkpt lat="43.21023" lon="5.48391">
        <ele>281</ele>
        <time>2019-02-06T10:26:18Z</time>
      </trkpt>
      <trkpt lat="43.21021" lon="5.48384">
        <ele>282</ele>
        <time>2019-02-06T10:26:26Z</time>
      </trkpt>
      <trkpt lat="43.21019" lon="5.48378">
        <ele>281</ele>
        <time>2019-02-06T10:26:34Z</time>
      </trkpt>
      <trkpt lat="43.21019" lon="5.48371">
        <ele>280</ele>
        <time>2019-02-06T10:26:42Z</time>
      </trkpt>
      <trkpt lat="43.21018" lon="5.48364">
        <ele>279</ele>
        <time>2019-02-06T10:26:48Z</time>
      </trkpt>
      <trkpt lat="43.21017" lon="5.48357">
        <ele>278</ele>
        <time>2019-02-06T10:26:54Z</time>
      </trkpt>
      <trkpt lat="43.21016" lon="5.48349">
        <ele>279</ele>
        <time>2019-02-06T10:27:00Z</time>
      </trkpt>
      <trkpt lat="43.21018" lon="5.48342">
        <ele>278</ele>
        <time>2019-02-06T10:27:06Z</time>
      </trkpt>
      <trkpt lat="43.21019" lon="5.48334">
        <ele>276</ele>
        <time>2019-02-06T10:27:12Z</time>
      </trkpt>
      <trkpt lat="43.2102" lon="5.48326">
        <ele>275</ele>
        <time>2019-02-06T10:27:18Z</time>
      </trkpt>
      <trkpt lat="43.21021" lon="5.48318">
        <ele>274</ele>
        <time>2019-02-06T10:27:24Z</time>
      </trkpt>
      <trkpt lat="43.2102" lon="5.48311">
        <ele>273</ele>
        <time>2019-02-06T10:27:30Z</time>
      </trkpt>
      <trkpt lat="43.21019" lon="5.48302">
        <ele>272</ele>
        <time>2019-02-06T10:27:36Z</time>
      </trkpt>
      <trkpt lat="43.21019" lon="5.48294">
        <ele>271</ele>
        <time>2019-02-06T10:27:42Z</time>
      </trkpt>
      <trkpt lat="43.21019" lon="5.48286">
        <ele>270</ele>
        <time>2019-02-06T10:27:48Z</time>
      </trkpt>
      <trkpt lat="43.21019" lon="5.48279">
        <ele>270</ele>
        <time>2019-02-06T10:27:54Z</time>
      </trkpt>
      <trkpt lat="43.21019" lon="5.48271">
        <ele>270</ele>
        <time>2019-02-06T10:28:00Z</time>
      </trkpt>
      <trkpt lat="43.21018" lon="5.48265">
        <ele>271</ele>
        <time>2019-02-06T10:28:04Z</time>
      </trkpt>
      <trkpt lat="43.21016" lon="5.48257">
        <ele>271</ele>
        <time>2019-02-06T10:28:10Z</time>
      </trkpt>
      <trkpt lat="43.21016" lon="5.48249">
        <ele>270</ele>
        <time>2019-02-06T10:28:16Z</time>
      </trkpt>
      <trkpt lat="43.21015" lon="5.48241">
        <ele>269</ele>
        <time>2019-02-06T10:28:22Z</time>
      </trkpt>
      <trkpt lat="43.21014" lon="5.48234">
        <ele>268</ele>
        <time>2019-02-06T10:28:28Z</time>
      </trkpt>
      <trkpt lat="43.21013" lon="5.48226">
        <ele>267</ele>
        <time>2019-02-06T10:28:34Z</time>
      </trkpt>
      <trkpt lat="43.21012" lon="5.48218">
        <ele>266</ele>
        <time>2019-02-06T10:28:40Z</time>
      </trkpt>
      <trkpt lat="43.21011" lon="5.48209">
        <ele>266</ele>
        <time>2019-02-06T10:28:46Z</time>
      </trkpt>
      <trkpt lat="43.21011" lon="5.48203">
        <ele>266</ele>
        <time>2019-02-06T10:28:50Z</time>
      </trkpt>
      <trkpt lat="43.21011" lon="5.48194">
        <ele>266</ele>
        <time>2019-02-06T10:28:56Z</time>
      </trkpt>
      <trkpt lat="43.21012" lon="5.48186">
        <ele>265</ele>
        <time>2019-02-06T10:29:02Z</time>
      </trkpt>
      <trkpt lat="43.21011" lon="5.4818">
        <ele>263</ele>
        <time>2019-02-06T10:29:08Z</time>
      </trkpt>
      <trkpt lat="43.21009" lon="5.48174">
        <ele>261</ele>
        <time>2019-02-06T10:29:14Z</time>
      </trkpt>
      <trkpt lat="43.21006" lon="5.48168">
        <ele>261</ele>
        <time>2019-02-06T10:29:20Z</time>
      </trkpt>
      <trkpt lat="43.21003" lon="5.48163">
        <ele>259</ele>
        <time>2019-02-06T10:29:26Z</time>
      </trkpt>
      <trkpt lat="43.20999" lon="5.48156">
        <ele>258</ele>
        <time>2019-02-06T10:29:32Z</time>
      </trkpt>
      <trkpt lat="43.20997" lon="5.4815">
        <ele>257</ele>
        <time>2019-02-06T10:29:38Z</time>
      </trkpt>
      <trkpt lat="43.20995" lon="5.48142">
        <ele>257</ele>
        <time>2019-02-06T10:29:44Z</time>
      </trkpt>
      <trkpt lat="43.20993" lon="5.48134">
        <ele>257</ele>
        <time>2019-02-06T10:29:50Z</time>
      </trkpt>
      <trkpt lat="43.2099" lon="5.48127">
        <ele>258</ele>
        <time>2019-02-06T10:29:56Z</time>
      </trkpt>
      <trkpt lat="43.20987" lon="5.4812">
        <ele>257</ele>
        <time>2019-02-06T10:30:02Z</time>
      </trkpt>
      <trkpt lat="43.20984" lon="5.48114">
        <ele>256</ele>
        <time>2019-02-06T10:30:08Z</time>
      </trkpt>
      <trkpt lat="43.20981" lon="5.48109">
        <ele>255</ele>
        <time>2019-02-06T10:30:14Z</time>
      </trkpt>
      <trkpt lat="43.20978" lon="5.48104">
        <ele>253</ele>
        <time>2019-02-06T10:30:20Z</time>
      </trkpt>
      <trkpt lat="43.20976" lon="5.48096">
        <ele>251</ele>
        <time>2019-02-06T10:30:26Z</time>
      </trkpt>
      <trkpt lat="43.20974" lon="5.4809">
        <ele>250</ele>
        <time>2019-02-06T10:30:32Z</time>
      </trkpt>
      <trkpt lat="43.20971" lon="5.48095">
        <ele>250</ele>
        <time>2019-02-06T10:30:44Z</time>
      </trkpt>
      <trkpt lat="43.20973" lon="5.48102">
        <ele>251</ele>
        <time>2019-02-06T10:30:50Z</time>
      </trkpt>
      <trkpt lat="43.20973" lon="5.4811">
        <ele>251</ele>
        <time>2019-02-06T10:30:56Z</time>
      </trkpt>
      <trkpt lat="43.20973" lon="5.48118">
        <ele>252</ele>
        <time>2019-02-06T10:31:02Z</time>
      </trkpt>
      <trkpt lat="43.20973" lon="5.48126">
        <ele>251</ele>
        <time>2019-02-06T10:31:08Z</time>
      </trkpt>
      <trkpt lat="43.20973" lon="5.48134">
        <ele>254</ele>
        <time>2019-02-06T10:31:14Z</time>
      </trkpt>
      <trkpt lat="43.20971" lon="5.48141">
        <ele>255</ele>
        <time>2019-02-06T10:31:20Z</time>
      </trkpt>
      <trkpt lat="43.20972" lon="5.48149">
        <ele>257</ele>
        <time>2019-02-06T10:31:28Z</time>
      </trkpt>
      <trkpt lat="43.20971" lon="5.48156">
        <ele>255</ele>
        <time>2019-02-06T10:31:34Z</time>
      </trkpt>
      <trkpt lat="43.20968" lon="5.48164">
        <ele>254</ele>
        <time>2019-02-06T10:31:40Z</time>
      </trkpt>
      <trkpt lat="43.20966" lon="5.48171">
        <ele>252</ele>
        <time>2019-02-06T10:31:46Z</time>
      </trkpt>
      <trkpt lat="43.20963" lon="5.48179">
        <ele>251</ele>
        <time>2019-02-06T10:31:52Z</time>
      </trkpt>
      <trkpt lat="43.2096" lon="5.48186">
        <ele>252</ele>
        <time>2019-02-06T10:31:58Z</time>
      </trkpt>
      <trkpt lat="43.20956" lon="5.48192">
        <ele>251</ele>
        <time>2019-02-06T10:32:04Z</time>
      </trkpt>
      <trkpt lat="43.20952" lon="5.48196">
        <ele>251</ele>
        <time>2019-02-06T10:32:08Z</time>
      </trkpt>
      <trkpt lat="43.20949" lon="5.48203">
        <ele>252</ele>
        <time>2019-02-06T10:32:14Z</time>
      </trkpt>
      <trkpt lat="43.20946" lon="5.48209">
        <ele>252</ele>
        <time>2019-02-06T10:32:18Z</time>
      </trkpt>
      <trkpt lat="43.20943" lon="5.48216">
        <ele>252</ele>
        <time>2019-02-06T10:32:24Z</time>
      </trkpt>
      <trkpt lat="43.2094" lon="5.48221">
        <ele>252</ele>
        <time>2019-02-06T10:32:28Z</time>
      </trkpt>
      <trkpt lat="43.20937" lon="5.48226">
        <ele>252</ele>
        <time>2019-02-06T10:32:32Z</time>
      </trkpt>
      <trkpt lat="43.20935" lon="5.48233">
        <ele>250</ele>
        <time>2019-02-06T10:32:38Z</time>
      </trkpt>
      <trkpt lat="43.2093" lon="5.48238">
        <ele>249</ele>
        <time>2019-02-06T10:32:44Z</time>
      </trkpt>
      <trkpt lat="43.20924" lon="5.48239">
        <ele>248</ele>
        <time>2019-02-06T10:32:50Z</time>
      </trkpt>
      <trkpt lat="43.20917" lon="5.48239">
        <ele>249</ele>
        <time>2019-02-06T10:32:56Z</time>
      </trkpt>
      <trkpt lat="43.20912" lon="5.48239">
        <ele>250</ele>
        <time>2019-02-06T10:33:00Z</time>
      </trkpt>
      <trkpt lat="43.20906" lon="5.48236">
        <ele>251</ele>
        <time>2019-02-06T10:33:06Z</time>
      </trkpt>
      <trkpt lat="43.20901" lon="5.48233">
        <ele>251</ele>
        <time>2019-02-06T10:33:12Z</time>
      </trkpt>
      <trkpt lat="43.20898" lon="5.48227">
        <ele>250</ele>
        <time>2019-02-06T10:33:18Z</time>
      </trkpt>
      <trkpt lat="43.20895" lon="5.48221">
        <ele>250</ele>
        <time>2019-02-06T10:33:24Z</time>
      </trkpt>
      <trkpt lat="43.20892" lon="5.48214">
        <ele>250</ele>
        <time>2019-02-06T10:33:30Z</time>
      </trkpt>
      <trkpt lat="43.2089" lon="5.48209">
        <ele>249</ele>
        <time>2019-02-06T10:33:34Z</time>
      </trkpt>
      <trkpt lat="43.20886" lon="5.48202">
        <ele>247</ele>
        <time>2019-02-06T10:33:40Z</time>
      </trkpt>
      <trkpt lat="43.20883" lon="5.48196">
        <ele>246</ele>
        <time>2019-02-06T10:33:46Z</time>
      </trkpt>
      <trkpt lat="43.2088" lon="5.48189">
        <ele>246</ele>
        <time>2019-02-06T10:33:52Z</time>
      </trkpt>
      <trkpt lat="43.20876" lon="5.48183">
        <ele>246</ele>
        <time>2019-02-06T10:33:58Z</time>
      </trkpt>
      <trkpt lat="43.20871" lon="5.48178">
        <ele>246</ele>
        <time>2019-02-06T10:34:04Z</time>
      </trkpt>
      <trkpt lat="43.20868" lon="5.48171">
        <ele>245</ele>
        <time>2019-02-06T10:34:10Z</time>
      </trkpt>
      <trkpt lat="43.20865" lon="5.48164">
        <ele>245</ele>
        <time>2019-02-06T10:34:16Z</time>
      </trkpt>
      <trkpt lat="43.20862" lon="5.48159">
        <ele>245</ele>
        <time>2019-02-06T10:34:22Z</time>
      </trkpt>
      <trkpt lat="43.20857" lon="5.48152">
        <ele>247</ele>
        <time>2019-02-06T10:34:28Z</time>
      </trkpt>
      <trkpt lat="43.20853" lon="5.48147">
        <ele>246</ele>
        <time>2019-02-06T10:34:34Z</time>
      </trkpt>
      <trkpt lat="43.20847" lon="5.48144">
        <ele>246</ele>
        <time>2019-02-06T10:34:40Z</time>
      </trkpt>
      <trkpt lat="43.20842" lon="5.48141">
        <ele>245</ele>
        <time>2019-02-06T10:34:46Z</time>
      </trkpt>
      <trkpt lat="43.20835" lon="5.48138">
        <ele>245</ele>
        <time>2019-02-06T10:34:52Z</time>
      </trkpt>
      <trkpt lat="43.2083" lon="5.48134">
        <ele>244</ele>
        <time>2019-02-06T10:34:58Z</time>
      </trkpt>
      <trkpt lat="43.20826" lon="5.48128">
        <ele>243</ele>
        <time>2019-02-06T10:35:04Z</time>
      </trkpt>
      <trkpt lat="43.20821" lon="5.48122">
        <ele>243</ele>
        <time>2019-02-06T10:35:10Z</time>
      </trkpt>
      <trkpt lat="43.20817" lon="5.48117">
        <ele>242</ele>
        <time>2019-02-06T10:35:16Z</time>
      </trkpt>
      <trkpt lat="43.20813" lon="5.4811">
        <ele>242</ele>
        <time>2019-02-06T10:35:22Z</time>
      </trkpt>
      <trkpt lat="43.20811" lon="5.48104">
        <ele>240</ele>
        <time>2019-02-06T10:35:26Z</time>
      </trkpt>
      <trkpt lat="43.2081" lon="5.48098">
        <ele>239</ele>
        <time>2019-02-06T10:35:32Z</time>
      </trkpt>
      <trkpt lat="43.2081" lon="5.4809">
        <ele>240</ele>
        <time>2019-02-06T10:35:38Z</time>
      </trkpt>
      <trkpt lat="43.20812" lon="5.48084">
        <ele>240</ele>
        <time>2019-02-06T10:35:44Z</time>
      </trkpt>
      <trkpt lat="43.20815" lon="5.48078">
        <ele>238</ele>
        <time>2019-02-06T10:35:50Z</time>
      </trkpt>
      <trkpt lat="43.20817" lon="5.48071">
        <ele>238</ele>
        <time>2019-02-06T10:35:56Z</time>
      </trkpt>
      <trkpt lat="43.20815" lon="5.48065">
        <ele>237</ele>
        <time>2019-02-06T10:36:02Z</time>
      </trkpt>
      <trkpt lat="43.20812" lon="5.48058">
        <ele>235</ele>
        <time>2019-02-06T10:36:08Z</time>
      </trkpt>
      <trkpt lat="43.2081" lon="5.48053">
        <ele>233</ele>
        <time>2019-02-06T10:36:14Z</time>
      </trkpt>
      <trkpt lat="43.20806" lon="5.48048">
        <ele>233</ele>
        <time>2019-02-06T10:36:20Z</time>
      </trkpt>
      <trkpt lat="43.20803" lon="5.48043">
        <ele>234</ele>
        <time>2019-02-06T10:36:26Z</time>
      </trkpt>
      <trkpt lat="43.20798" lon="5.48039">
        <ele>233</ele>
        <time>2019-02-06T10:36:32Z</time>
      </trkpt>
      <trkpt lat="43.20793" lon="5.48036">
        <ele>233</ele>
        <time>2019-02-06T10:36:38Z</time>
      </trkpt>
      <trkpt lat="43.20788" lon="5.48032">
        <ele>233</ele>
        <time>2019-02-06T10:36:44Z</time>
      </trkpt>
      <trkpt lat="43.20783" lon="5.48034">
        <ele>230</ele>
        <time>2019-02-06T10:36:56Z</time>
      </trkpt>
      <trkpt lat="43.20783" lon="5.48041">
        <ele>232</ele>
        <time>2019-02-06T10:37:06Z</time>
      </trkpt>
      <trkpt lat="43.20783" lon="5.48048">
        <ele>231</ele>
        <time>2019-02-06T10:37:16Z</time>
      </trkpt>
      <trkpt lat="43.20778" lon="5.48047">
        <ele>236</ele>
        <time>2019-02-06T10:37:28Z</time>
      </trkpt>
      <trkpt lat="43.20773" lon="5.48047">
        <ele>236</ele>
        <time>2019-02-06T10:37:38Z</time>
      </trkpt>
      <trkpt lat="43.20773" lon="5.48053">
        <ele>239</ele>
        <time>2019-02-06T10:38:02Z</time>
      </trkpt>
      <trkpt lat="43.20773" lon="5.48059">
        <ele>239</ele>
        <time>2019-02-06T10:38:10Z</time>
      </trkpt>
      <trkpt lat="43.20768" lon="5.48057">
        <ele>240</ele>
        <time>2019-02-06T10:38:24Z</time>
      </trkpt>
      <trkpt lat="43.20767" lon="5.4805">
        <ele>240</ele>
        <time>2019-02-06T10:38:30Z</time>
      </trkpt>
      <trkpt lat="43.20765" lon="5.48045">
        <ele>241</ele>
        <time>2019-02-06T10:38:36Z</time>
      </trkpt>
      <trkpt lat="43.20763" lon="5.48038">
        <ele>241</ele>
        <time>2019-02-06T10:38:44Z</time>
      </trkpt>
      <trkpt lat="43.20762" lon="5.48031">
        <ele>244</ele>
        <time>2019-02-06T10:38:52Z</time>
      </trkpt>
      <trkpt lat="43.20759" lon="5.48025">
        <ele>246</ele>
        <time>2019-02-06T10:39:00Z</time>
      </trkpt>
      <trkpt lat="43.20759" lon="5.48017">
        <ele>246</ele>
        <time>2019-02-06T10:39:06Z</time>
      </trkpt>
      <trkpt lat="43.20756" lon="5.48011">
        <ele>245</ele>
        <time>2019-02-06T10:39:14Z</time>
      </trkpt>
      <trkpt lat="43.20755" lon="5.48004">
        <ele>247</ele>
        <time>2019-02-06T10:39:22Z</time>
      </trkpt>
      <trkpt lat="43.20754" lon="5.47998">
        <ele>246</ele>
        <time>2019-02-06T10:39:30Z</time>
      </trkpt>
      <trkpt lat="43.20753" lon="5.47992">
        <ele>246</ele>
        <time>2019-02-06T10:39:38Z</time>
      </trkpt>
      <trkpt lat="43.20753" lon="5.47985">
        <ele>250</ele>
        <time>2019-02-06T10:39:48Z</time>
      </trkpt>
      <trkpt lat="43.20752" lon="5.47978">
        <ele>251</ele>
        <time>2019-02-06T10:39:56Z</time>
      </trkpt>
      <trkpt lat="43.20751" lon="5.47971">
        <ele>252</ele>
        <time>2019-02-06T10:40:04Z</time>
      </trkpt>
      <trkpt lat="43.20752" lon="5.47964">
        <ele>252</ele>
        <time>2019-02-06T10:40:10Z</time>
      </trkpt>
      <trkpt lat="43.20753" lon="5.47957">
        <ele>253</ele>
        <time>2019-02-06T10:40:16Z</time>
      </trkpt>
      <trkpt lat="43.20752" lon="5.4795">
        <ele>254</ele>
        <time>2019-02-06T10:40:22Z</time>
      </trkpt>
      <trkpt lat="43.20751" lon="5.47943">
        <ele>254</ele>
        <time>2019-02-06T10:40:30Z</time>
      </trkpt>
      <trkpt lat="43.20749" lon="5.47937">
        <ele>257</ele>
        <time>2019-02-06T10:40:36Z</time>
      </trkpt>
      <trkpt lat="43.20748" lon="5.4793">
        <ele>257</ele>
        <time>2019-02-06T10:40:44Z</time>
      </trkpt>
      <trkpt lat="43.20747" lon="5.47923">
        <ele>256</ele>
        <time>2019-02-06T10:40:56Z</time>
      </trkpt>
      <trkpt lat="43.20743" lon="5.47928">
        <ele>261</ele>
        <time>2019-02-06T10:41:22Z</time>
      </trkpt>
      <trkpt lat="43.20741" lon="5.47922">
        <ele>265</ele>
        <time>2019-02-06T10:41:34Z</time>
      </trkpt>
      <trkpt lat="43.20737" lon="5.47916">
        <ele>266</ele>
        <time>2019-02-06T10:41:50Z</time>
      </trkpt>
      <trkpt lat="43.20735" lon="5.47909">
        <ele>268</ele>
        <time>2019-02-06T10:42:00Z</time>
      </trkpt>
      <trkpt lat="43.20731" lon="5.47905">
        <ele>269</ele>
        <time>2019-02-06T10:42:16Z</time>
      </trkpt>
      <trkpt lat="43.20729" lon="5.47899">
        <ele>272</ele>
        <time>2019-02-06T10:42:26Z</time>
      </trkpt>
      <trkpt lat="43.20727" lon="5.47894">
        <ele>275</ele>
        <time>2019-02-06T10:42:40Z</time>
      </trkpt>
      <trkpt lat="43.20723" lon="5.4789">
        <ele>279</ele>
        <time>2019-02-06T10:42:54Z</time>
      </trkpt>
      <trkpt lat="43.20722" lon="5.47882">
        <ele>282</ele>
        <time>2019-02-06T10:43:04Z</time>
      </trkpt>
      <trkpt lat="43.20721" lon="5.47876">
        <ele>284</ele>
        <time>2019-02-06T10:43:12Z</time>
      </trkpt>
      <trkpt lat="43.20721" lon="5.47869">
        <ele>283</ele>
        <time>2019-02-06T10:43:20Z</time>
      </trkpt>
      <trkpt lat="43.20722" lon="5.47863">
        <ele>282</ele>
        <time>2019-02-06T10:43:28Z</time>
      </trkpt>
      <trkpt lat="43.20724" lon="5.47856">
        <ele>282</ele>
        <time>2019-02-06T10:43:34Z</time>
      </trkpt>
      <trkpt lat="43.20724" lon="5.4785">
        <ele>284</ele>
        <time>2019-02-06T10:43:42Z</time>
      </trkpt>
      <trkpt lat="43.2072" lon="5.47849">
        <ele>286</ele>
        <time>2019-02-06T10:44:10Z</time>
      </trkpt>
      <trkpt lat="43.20719" lon="5.47855">
        <ele>290</ele>
        <time>2019-02-06T10:44:44Z</time>
      </trkpt>
      <trkpt lat="43.20714" lon="5.47857">
        <ele>288</ele>
        <time>2019-02-06T10:45:10Z</time>
      </trkpt>
      <trkpt lat="43.20713" lon="5.47864">
        <ele>289</ele>
        <time>2019-02-06T10:47:46Z</time>
      </trkpt>
      <trkpt lat="43.20709" lon="5.47868">
        <ele>290</ele>
        <time>2019-02-06T10:47:58Z</time>
      </trkpt>
      <trkpt lat="43.20704" lon="5.4787">
        <ele>290</ele>
        <time>2019-02-06T10:48:06Z</time>
      </trkpt>
      <trkpt lat="43.207" lon="5.47873">
        <ele>291</ele>
        <time>2019-02-06T10:48:14Z</time>
      </trkpt>
      <trkpt lat="43.20697" lon="5.4788">
        <ele>288</ele>
        <time>2019-02-06T10:48:38Z</time>
      </trkpt>
      <trkpt lat="43.20698" lon="5.47887">
        <ele>288</ele>
        <time>2019-02-06T10:49:06Z</time>
      </trkpt>
      <trkpt lat="43.20694" lon="5.47891">
        <ele>288</ele>
        <time>2019-02-06T10:49:18Z</time>
      </trkpt>
      <trkpt lat="43.2069" lon="5.47895">
        <ele>292</ele>
        <time>2019-02-06T10:49:34Z</time>
      </trkpt>
      <trkpt lat="43.20688" lon="5.47902">
        <ele>293</ele>
        <time>2019-02-06T10:51:26Z</time>
      </trkpt>
      <trkpt lat="43.20685" lon="5.47909">
        <ele>292</ele>
        <time>2019-02-06T10:51:32Z</time>
      </trkpt>
      <trkpt lat="43.20683" lon="5.47916">
        <ele>291</ele>
        <time>2019-02-06T10:51:38Z</time>
      </trkpt>
      <trkpt lat="43.20683" lon="5.47922">
        <ele>290</ele>
        <time>2019-02-06T10:51:44Z</time>
      </trkpt>
      <trkpt lat="43.20684" lon="5.47928">
        <ele>289</ele>
        <time>2019-02-06T10:51:50Z</time>
      </trkpt>
      <trkpt lat="43.20684" lon="5.47935">
        <ele>287</ele>
        <time>2019-02-06T10:51:56Z</time>
      </trkpt>
      <trkpt lat="43.20683" lon="5.47943">
        <ele>287</ele>
        <time>2019-02-06T10:52:02Z</time>
      </trkpt>
      <trkpt lat="43.20684" lon="5.4795">
        <ele>288</ele>
        <time>2019-02-06T10:52:08Z</time>
      </trkpt>
      <trkpt lat="43.20685" lon="5.47959">
        <ele>285</ele>
        <time>2019-02-06T10:52:16Z</time>
      </trkpt>
      <trkpt lat="43.20684" lon="5.47965">
        <ele>286</ele>
        <time>2019-02-06T10:52:22Z</time>
      </trkpt>
      <trkpt lat="43.20684" lon="5.47972">
        <ele>284</ele>
        <time>2019-02-06T10:52:30Z</time>
      </trkpt>
      <trkpt lat="43.20684" lon="5.4798">
        <ele>284</ele>
        <time>2019-02-06T10:52:38Z</time>
      </trkpt>
      <trkpt lat="43.20686" lon="5.47988">
        <ele>283</ele>
        <time>2019-02-06T10:52:46Z</time>
      </trkpt>
      <trkpt lat="43.20687" lon="5.47996">
        <ele>281</ele>
        <time>2019-02-06T10:52:52Z</time>
      </trkpt>
      <trkpt lat="43.20688" lon="5.48003">
        <ele>279</ele>
        <time>2019-02-06T10:53:00Z</time>
      </trkpt>
      <trkpt lat="43.20686" lon="5.4801">
        <ele>282</ele>
        <time>2019-02-06T10:53:06Z</time>
      </trkpt>
      <trkpt lat="43.20685" lon="5.48016">
        <ele>283</ele>
        <time>2019-02-06T10:53:10Z</time>
      </trkpt>
      <trkpt lat="43.20686" lon="5.48023">
        <ele>283</ele>
        <time>2019-02-06T10:53:14Z</time>
      </trkpt>
      <trkpt lat="43.20687" lon="5.4803">
        <ele>283</ele>
        <time>2019-02-06T10:53:20Z</time>
      </trkpt>
      <trkpt lat="43.20688" lon="5.48036">
        <ele>285</ele>
        <time>2019-02-06T10:53:26Z</time>
      </trkpt>
      <trkpt lat="43.20692" lon="5.48038">
        <ele>284</ele>
        <time>2019-02-06T10:53:32Z</time>
      </trkpt>
      <trkpt lat="43.20695" lon="5.48042">
        <ele>284</ele>
        <time>2019-02-06T10:53:40Z</time>
      </trkpt>
      <trkpt lat="43.20696" lon="5.4805">
        <ele>283</ele>
        <time>2019-02-06T10:53:48Z</time>
      </trkpt>
      <trkpt lat="43.20694" lon="5.48055">
        <ele>281</ele>
        <time>2019-02-06T10:53:54Z</time>
      </trkpt>
      <trkpt lat="43.20693" lon="5.48062">
        <ele>282</ele>
        <time>2019-02-06T10:54:02Z</time>
      </trkpt>
      <trkpt lat="43.20693" lon="5.4807">
        <ele>283</ele>
        <time>2019-02-06T10:54:10Z</time>
      </trkpt>
      <trkpt lat="43.20694" lon="5.48076">
        <ele>283</ele>
        <time>2019-02-06T10:54:16Z</time>
      </trkpt>
      <trkpt lat="43.20692" lon="5.48081">
        <ele>283</ele>
        <time>2019-02-06T10:54:40Z</time>
      </trkpt>
      <trkpt lat="43.20688" lon="5.48084">
        <ele>281</ele>
        <time>2019-02-06T10:54:58Z</time>
      </trkpt>
      <trkpt lat="43.20692" lon="5.48087">
        <ele>280</ele>
        <time>2019-02-06T10:56:02Z</time>
      </trkpt>
      <trkpt lat="43.20697" lon="5.48091">
        <ele>280</ele>
        <time>2019-02-06T10:56:14Z</time>
      </trkpt>
      <trkpt lat="43.20699" lon="5.48097">
        <ele>279</ele>
        <time>2019-02-06T10:56:22Z</time>
      </trkpt>
      <trkpt lat="43.20702" lon="5.48103">
        <ele>279</ele>
        <time>2019-02-06T10:56:30Z</time>
      </trkpt>
      <trkpt lat="43.20703" lon="5.4811">
        <ele>279</ele>
        <time>2019-02-06T10:56:36Z</time>
      </trkpt>
      <trkpt lat="43.20704" lon="5.48117">
        <ele>278</ele>
        <time>2019-02-06T10:56:42Z</time>
      </trkpt>
      <trkpt lat="43.20708" lon="5.48123">
        <ele>275</ele>
        <time>2019-02-06T10:56:50Z</time>
      </trkpt>
      <trkpt lat="43.2071" lon="5.48131">
        <ele>273</ele>
        <time>2019-02-06T10:56:58Z</time>
      </trkpt>
      <trkpt lat="43.20712" lon="5.48137">
        <ele>270</ele>
        <time>2019-02-06T10:57:04Z</time>
      </trkpt>
      <trkpt lat="43.20714" lon="5.48145">
        <ele>271</ele>
        <time>2019-02-06T10:57:10Z</time>
      </trkpt>
      <trkpt lat="43.20717" lon="5.4815">
        <ele>272</ele>
        <time>2019-02-06T10:57:14Z</time>
      </trkpt>
      <trkpt lat="43.20721" lon="5.48155">
        <ele>268</ele>
        <time>2019-02-06T10:57:20Z</time>
      </trkpt>
      <trkpt lat="43.2072" lon="5.48162">
        <ele>271</ele>
        <time>2019-02-06T10:57:30Z</time>
      </trkpt>
      <trkpt lat="43.20719" lon="5.48169">
        <ele>276</ele>
        <time>2019-02-06T10:58:50Z</time>
      </trkpt>
      <trkpt lat="43.20721" lon="5.48177">
        <ele>269</ele>
        <time>2019-02-06T10:59:06Z</time>
      </trkpt>
      <trkpt lat="43.20723" lon="5.48184">
        <ele>270</ele>
        <time>2019-02-06T10:59:16Z</time>
      </trkpt>
      <trkpt lat="43.20723" lon="5.48191">
        <ele>271</ele>
        <time>2019-02-06T10:59:22Z</time>
      </trkpt>
      <trkpt lat="43.2072" lon="5.48196">
        <ele>272</ele>
        <time>2019-02-06T10:59:32Z</time>
      </trkpt>
      <trkpt lat="43.20719" lon="5.48204">
        <ele>271</ele>
        <time>2019-02-06T10:59:40Z</time>
      </trkpt>
      <trkpt lat="43.20719" lon="5.4821">
        <ele>274</ele>
        <time>2019-02-06T10:59:54Z</time>
      </trkpt>
      <trkpt lat="43.20724" lon="5.48215">
        <ele>274</ele>
        <time>2019-02-06T11:00:04Z</time>
      </trkpt>
      <trkpt lat="43.20724" lon="5.48222">
        <ele>274</ele>
        <time>2019-02-06T11:00:10Z</time>
      </trkpt>
      <trkpt lat="43.20725" lon="5.48228">
        <ele>270</ele>
        <time>2019-02-06T11:00:16Z</time>
      </trkpt>
      <trkpt lat="43.20728" lon="5.48234">
        <ele>270</ele>
        <time>2019-02-06T11:00:36Z</time>
      </trkpt>
      <trkpt lat="43.2073" lon="5.4824">
        <ele>268</ele>
        <time>2019-02-06T11:00:46Z</time>
      </trkpt>
      <trkpt lat="43.20732" lon="5.48246">
        <ele>267</ele>
        <time>2019-02-06T11:00:54Z</time>
      </trkpt>
      <trkpt lat="43.20733" lon="5.48252">
        <ele>267</ele>
        <time>2019-02-06T11:01:02Z</time>
      </trkpt>
      <trkpt lat="43.20734" lon="5.48259">
        <ele>266</ele>
        <time>2019-02-06T11:01:12Z</time>
      </trkpt>
      <trkpt lat="43.20734" lon="5.48267">
        <ele>264</ele>
        <time>2019-02-06T11:01:20Z</time>
      </trkpt>
      <trkpt lat="43.20732" lon="5.48273">
        <ele>265</ele>
        <time>2019-02-06T11:01:28Z</time>
      </trkpt>
      <trkpt lat="43.2073" lon="5.48279">
        <ele>262</ele>
        <time>2019-02-06T11:01:38Z</time>
      </trkpt>
      <trkpt lat="43.20728" lon="5.48288">
        <ele>264</ele>
        <time>2019-02-06T11:01:44Z</time>
      </trkpt>
      <trkpt lat="43.20726" lon="5.48295">
        <ele>263</ele>
        <time>2019-02-06T11:01:50Z</time>
      </trkpt>
      <trkpt lat="43.20725" lon="5.48303">
        <ele>264</ele>
        <time>2019-02-06T11:01:56Z</time>
      </trkpt>
      <trkpt lat="43.20723" lon="5.48309">
        <ele>264</ele>
        <time>2019-02-06T11:02:00Z</time>
      </trkpt>
      <trkpt lat="43.20721" lon="5.48316">
        <ele>263</ele>
        <time>2019-02-06T11:02:06Z</time>
      </trkpt>
      <trkpt lat="43.2072" lon="5.48323">
        <ele>262</ele>
        <time>2019-02-06T11:02:12Z</time>
      </trkpt>
      <trkpt lat="43.20717" lon="5.48331">
        <ele>267</ele>
        <time>2019-02-06T11:02:18Z</time>
      </trkpt>
      <trkpt lat="43.20714" lon="5.48336">
        <ele>269</ele>
        <time>2019-02-06T11:02:22Z</time>
      </trkpt>
      <trkpt lat="43.2071" lon="5.4834">
        <ele>271</ele>
        <time>2019-02-06T11:02:26Z</time>
      </trkpt>
      <trkpt lat="43.20707" lon="5.48346">
        <ele>272</ele>
        <time>2019-02-06T11:02:32Z</time>
      </trkpt>
      <trkpt lat="43.20704" lon="5.4835">
        <ele>272</ele>
        <time>2019-02-06T11:02:36Z</time>
      </trkpt>
      <trkpt lat="43.207" lon="5.48355">
        <ele>273</ele>
        <time>2019-02-06T11:02:40Z</time>
      </trkpt>
      <trkpt lat="43.20696" lon="5.4836">
        <ele>271</ele>
        <time>2019-02-06T11:02:48Z</time>
      </trkpt>
      <trkpt lat="43.20691" lon="5.48366">
        <ele>273</ele>
        <time>2019-02-06T11:02:54Z</time>
      </trkpt>
      <trkpt lat="43.20688" lon="5.48371">
        <ele>271</ele>
        <time>2019-02-06T11:03:00Z</time>
      </trkpt>
      <trkpt lat="43.20683" lon="5.48377">
        <ele>271</ele>
        <time>2019-02-06T11:03:06Z</time>
      </trkpt>
      <trkpt lat="43.20678" lon="5.4838">
        <ele>273</ele>
        <time>2019-02-06T11:03:12Z</time>
      </trkpt>
      <trkpt lat="43.20673" lon="5.4838">
        <ele>274</ele>
        <time>2019-02-06T11:03:18Z</time>
      </trkpt>
      <trkpt lat="43.20668" lon="5.48382">
        <ele>275</ele>
        <time>2019-02-06T11:03:24Z</time>
      </trkpt>
      <trkpt lat="43.20663" lon="5.48378">
        <ele>271</ele>
        <time>2019-02-06T11:05:00Z</time>
      </trkpt>
      <trkpt lat="43.20658" lon="5.48379">
        <ele>272</ele>
        <time>2019-02-06T11:06:18Z</time>
      </trkpt>
      <trkpt lat="43.20653" lon="5.48379">
        <ele>274</ele>
        <time>2019-02-06T11:06:32Z</time>
      </trkpt>
      <trkpt lat="43.20658" lon="5.4838">
        <ele>271</ele>
        <time>2019-02-06T11:06:52Z</time>
      </trkpt>
      <trkpt lat="43.20662" lon="5.48382">
        <ele>267</ele>
        <time>2019-02-06T11:07:02Z</time>
      </trkpt>
      <trkpt lat="43.20659" lon="5.4839">
        <ele>268</ele>
        <time>2019-02-06T11:07:20Z</time>
      </trkpt>
      <trkpt lat="43.20655" lon="5.48394">
        <ele>270</ele>
        <time>2019-02-06T11:07:24Z</time>
      </trkpt>
      <trkpt lat="43.20649" lon="5.48397">
        <ele>274</ele>
        <time>2019-02-06T11:07:30Z</time>
      </trkpt>
      <trkpt lat="43.20645" lon="5.48401">
        <ele>274</ele>
        <time>2019-02-06T11:07:34Z</time>
      </trkpt>
      <trkpt lat="43.20641" lon="5.48407">
        <ele>275</ele>
        <time>2019-02-06T11:07:40Z</time>
      </trkpt>
      <trkpt lat="43.20637" lon="5.48412">
        <ele>277</ele>
        <time>2019-02-06T11:07:44Z</time>
      </trkpt>
      <trkpt lat="43.20633" lon="5.48418">
        <ele>280</ele>
        <time>2019-02-06T11:07:50Z</time>
      </trkpt>
      <trkpt lat="43.20627" lon="5.48421">
        <ele>281</ele>
        <time>2019-02-06T11:07:56Z</time>
      </trkpt>
      <trkpt lat="43.20623" lon="5.48426">
        <ele>280</ele>
        <time>2019-02-06T11:08:00Z</time>
      </trkpt>
      <trkpt lat="43.2062" lon="5.48431">
        <ele>281</ele>
        <time>2019-02-06T11:08:04Z</time>
      </trkpt>
      <trkpt lat="43.20615" lon="5.48433">
        <ele>276</ele>
        <time>2019-02-06T11:08:12Z</time>
      </trkpt>
      <trkpt lat="43.2061" lon="5.48439">
        <ele>276</ele>
        <time>2019-02-06T11:08:20Z</time>
      </trkpt>
      <trkpt lat="43.20608" lon="5.48444">
        <ele>278</ele>
        <time>2019-02-06T11:08:24Z</time>
      </trkpt>
      <trkpt lat="43.20604" lon="5.48448">
        <ele>278</ele>
        <time>2019-02-06T11:08:28Z</time>
      </trkpt>
      <trkpt lat="43.20601" lon="5.48452">
        <ele>277</ele>
        <time>2019-02-06T11:08:34Z</time>
      </trkpt>
      <trkpt lat="43.20595" lon="5.48457">
        <ele>279</ele>
        <time>2019-02-06T11:08:40Z</time>
      </trkpt>
      <trkpt lat="43.20591" lon="5.4846">
        <ele>278</ele>
        <time>2019-02-06T11:08:46Z</time>
      </trkpt>
      <trkpt lat="43.20588" lon="5.48464">
        <ele>279</ele>
        <time>2019-02-06T11:08:50Z</time>
      </trkpt>
      <trkpt lat="43.20582" lon="5.48469">
        <ele>282</ele>
        <time>2019-02-06T11:08:56Z</time>
      </trkpt>
      <trkpt lat="43.20578" lon="5.48472">
        <ele>282</ele>
        <time>2019-02-06T11:09:02Z</time>
      </trkpt>
      <trkpt lat="43.20574" lon="5.48478">
        <ele>282</ele>
        <time>2019-02-06T11:09:08Z</time>
      </trkpt>
      <trkpt lat="43.2057" lon="5.48483">
        <ele>281</ele>
        <time>2019-02-06T11:09:14Z</time>
      </trkpt>
      <trkpt lat="43.20567" lon="5.48489">
        <ele>280</ele>
        <time>2019-02-06T11:09:20Z</time>
      </trkpt>
      <trkpt lat="43.20564" lon="5.48495">
        <ele>282</ele>
        <time>2019-02-06T11:09:26Z</time>
      </trkpt>
      <trkpt lat="43.20561" lon="5.485">
        <ele>283</ele>
        <time>2019-02-06T11:09:34Z</time>
      </trkpt>
      <trkpt lat="43.20561" lon="5.48508">
        <ele>275</ele>
        <time>2019-02-06T11:10:48Z</time>
      </trkpt>
      <trkpt lat="43.20559" lon="5.48513">
        <ele>278</ele>
        <time>2019-02-06T11:11:08Z</time>
      </trkpt>
      <trkpt lat="43.20579" lon="5.48508">
        <ele>274</ele>
        <time>2019-02-06T11:11:34Z</time>
      </trkpt>
      <trkpt lat="43.20573" lon="5.48511">
        <ele>274</ele>
        <time>2019-02-06T11:11:38Z</time>
      </trkpt>
      <trkpt lat="43.20569" lon="5.48515">
        <ele>270</ele>
        <time>2019-02-06T11:11:50Z</time>
      </trkpt>
      <trkpt lat="43.20568" lon="5.48508">
        <ele>275</ele>
        <time>2019-02-06T11:13:12Z</time>
      </trkpt>
      <trkpt lat="43.2057" lon="5.48502">
        <ele>273</ele>
        <time>2019-02-06T11:13:20Z</time>
      </trkpt>
      <trkpt lat="43.20571" lon="5.48496">
        <ele>272</ele>
        <time>2019-02-06T11:13:30Z</time>
      </trkpt>
      <trkpt lat="43.20568" lon="5.4849">
        <ele>276</ele>
        <time>2019-02-06T11:13:52Z</time>
      </trkpt>
      <trkpt lat="43.20571" lon="5.48486">
        <ele>276</ele>
        <time>2019-02-06T11:20:40Z</time>
      </trkpt>
      <trkpt lat="43.20576" lon="5.48481">
        <ele>276</ele>
        <time>2019-02-06T11:20:50Z</time>
      </trkpt>
      <trkpt lat="43.20581" lon="5.48477">
        <ele>274</ele>
        <time>2019-02-06T11:20:56Z</time>
      </trkpt>
      <trkpt lat="43.20586" lon="5.48473">
        <ele>275</ele>
        <time>2019-02-06T11:21:02Z</time>
      </trkpt>
      <trkpt lat="43.20592" lon="5.48467">
        <ele>275</ele>
        <time>2019-02-06T11:21:08Z</time>
      </trkpt>
      <trkpt lat="43.20597" lon="5.48461">
        <ele>277</ele>
        <time>2019-02-06T11:21:14Z</time>
      </trkpt>
      <trkpt lat="43.20601" lon="5.48457">
        <ele>278</ele>
        <time>2019-02-06T11:21:18Z</time>
      </trkpt>
      <trkpt lat="43.20605" lon="5.48452">
        <ele>277</ele>
        <time>2019-02-06T11:21:22Z</time>
      </trkpt>
      <trkpt lat="43.20609" lon="5.48448">
        <ele>277</ele>
        <time>2019-02-06T11:21:28Z</time>
      </trkpt>
      <trkpt lat="43.20613" lon="5.48443">
        <ele>275</ele>
        <time>2019-02-06T11:21:34Z</time>
      </trkpt>
      <trkpt lat="43.20617" lon="5.48438">
        <ele>274</ele>
        <time>2019-02-06T11:21:40Z</time>
      </trkpt>
      <trkpt lat="43.2062" lon="5.48433">
        <ele>273</ele>
        <time>2019-02-06T11:21:46Z</time>
      </trkpt>
      <trkpt lat="43.20624" lon="5.48429">
        <ele>272</ele>
        <time>2019-02-06T11:21:52Z</time>
      </trkpt>
      <trkpt lat="43.20628" lon="5.48425">
        <ele>272</ele>
        <time>2019-02-06T11:21:56Z</time>
      </trkpt>
      <trkpt lat="43.20632" lon="5.48421">
        <ele>272</ele>
        <time>2019-02-06T11:22:00Z</time>
      </trkpt>
      <trkpt lat="43.20637" lon="5.48415">
        <ele>272</ele>
        <time>2019-02-06T11:22:06Z</time>
      </trkpt>
      <trkpt lat="43.20641" lon="5.4841">
        <ele>272</ele>
        <time>2019-02-06T11:22:10Z</time>
      </trkpt>
      <trkpt lat="43.20644" lon="5.48406">
        <ele>273</ele>
        <time>2019-02-06T11:22:14Z</time>
      </trkpt>
      <trkpt lat="43.20649" lon="5.48401">
        <ele>273</ele>
        <time>2019-02-06T11:22:20Z</time>
      </trkpt>
      <trkpt lat="43.20653" lon="5.48397">
        <ele>273</ele>
        <time>2019-02-06T11:22:24Z</time>
      </trkpt>
      <trkpt lat="43.20656" lon="5.48393">
        <ele>273</ele>
        <time>2019-02-06T11:22:28Z</time>
      </trkpt>
      <trkpt lat="43.20662" lon="5.4839">
        <ele>273</ele>
        <time>2019-02-06T11:22:34Z</time>
      </trkpt>
      <trkpt lat="43.20664" lon="5.48384">
        <ele>268</ele>
        <time>2019-02-06T11:22:42Z</time>
      </trkpt>
      <trkpt lat="43.20669" lon="5.4838">
        <ele>267</ele>
        <time>2019-02-06T11:22:50Z</time>
      </trkpt>
      <trkpt lat="43.20674" lon="5.48377">
        <ele>267</ele>
        <time>2019-02-06T11:22:58Z</time>
      </trkpt>
      <trkpt lat="43.2068" lon="5.48376">
        <ele>267</ele>
        <time>2019-02-06T11:23:06Z</time>
      </trkpt>
      <trkpt lat="43.20687" lon="5.48374">
        <ele>268</ele>
        <time>2019-02-06T11:23:12Z</time>
      </trkpt>
      <trkpt lat="43.2069" lon="5.48371">
        <ele>268</ele>
        <time>2019-02-06T11:23:16Z</time>
      </trkpt>
      <trkpt lat="43.20694" lon="5.48365">
        <ele>269</ele>
        <time>2019-02-06T11:23:22Z</time>
      </trkpt>
      <trkpt lat="43.20698" lon="5.4836">
        <ele>268</ele>
        <time>2019-02-06T11:23:28Z</time>
      </trkpt>
      <trkpt lat="43.20702" lon="5.48355">
        <ele>267</ele>
        <time>2019-02-06T11:23:36Z</time>
      </trkpt>
      <trkpt lat="43.20706" lon="5.4835">
        <ele>265</ele>
        <time>2019-02-06T11:23:42Z</time>
      </trkpt>
      <trkpt lat="43.20709" lon="5.48345">
        <ele>265</ele>
        <time>2019-02-06T11:23:50Z</time>
      </trkpt>
      <trkpt lat="43.20712" lon="5.48339">
        <ele>265</ele>
        <time>2019-02-06T11:23:56Z</time>
      </trkpt>
      <trkpt lat="43.20717" lon="5.48335">
        <ele>266</ele>
        <time>2019-02-06T11:24:02Z</time>
      </trkpt>
      <trkpt lat="43.20722" lon="5.4833">
        <ele>269</ele>
        <time>2019-02-06T11:24:08Z</time>
      </trkpt>
      <trkpt lat="43.20723" lon="5.48323">
        <ele>267</ele>
        <time>2019-02-06T11:24:18Z</time>
      </trkpt>
      <trkpt lat="43.20726" lon="5.48317">
        <ele>267</ele>
        <time>2019-02-06T11:24:24Z</time>
      </trkpt>
      <trkpt lat="43.20729" lon="5.48312">
        <ele>266</ele>
        <time>2019-02-06T11:24:30Z</time>
      </trkpt>
      <trkpt lat="43.20731" lon="5.48304">
        <ele>267</ele>
        <time>2019-02-06T11:24:36Z</time>
      </trkpt>
      <trkpt lat="43.20733" lon="5.48295">
        <ele>267</ele>
        <time>2019-02-06T11:24:42Z</time>
      </trkpt>
      <trkpt lat="43.20735" lon="5.48289">
        <ele>266</ele>
        <time>2019-02-06T11:24:50Z</time>
      </trkpt>
      <trkpt lat="43.20737" lon="5.4828">
        <ele>268</ele>
        <time>2019-02-06T11:24:56Z</time>
      </trkpt>
      <trkpt lat="43.20738" lon="5.48272">
        <ele>268</ele>
        <time>2019-02-06T11:25:00Z</time>
      </trkpt>
      <trkpt lat="43.20739" lon="5.48265">
        <ele>269</ele>
        <time>2019-02-06T11:25:08Z</time>
      </trkpt>
      <trkpt lat="43.20739" lon="5.48258">
        <ele>268</ele>
        <time>2019-02-06T11:25:14Z</time>
      </trkpt>
      <trkpt lat="43.20736" lon="5.4825">
        <ele>268</ele>
        <time>2019-02-06T11:25:20Z</time>
      </trkpt>
      <trkpt lat="43.20734" lon="5.48244">
        <ele>269</ele>
        <time>2019-02-06T11:25:26Z</time>
      </trkpt>
      <trkpt lat="43.20732" lon="5.48237">
        <ele>269</ele>
        <time>2019-02-06T11:25:32Z</time>
      </trkpt>
      <trkpt lat="43.20731" lon="5.4823">
        <ele>268</ele>
        <time>2019-02-06T11:25:40Z</time>
      </trkpt>
      <trkpt lat="43.2073" lon="5.48223">
        <ele>268</ele>
        <time>2019-02-06T11:25:48Z</time>
      </trkpt>
      <trkpt lat="43.20727" lon="5.48217">
        <ele>268</ele>
        <time>2019-02-06T11:25:54Z</time>
      </trkpt>
      <trkpt lat="43.20725" lon="5.4821">
        <ele>271</ele>
        <time>2019-02-06T11:26:00Z</time>
      </trkpt>
      <trkpt lat="43.20726" lon="5.48202">
        <ele>270</ele>
        <time>2019-02-06T11:26:06Z</time>
      </trkpt>
      <trkpt lat="43.20727" lon="5.48196">
        <ele>270</ele>
        <time>2019-02-06T11:26:10Z</time>
      </trkpt>
      <trkpt lat="43.20727" lon="5.48188">
        <ele>271</ele>
        <time>2019-02-06T11:26:14Z</time>
      </trkpt>
      <trkpt lat="43.20726" lon="5.48181">
        <ele>271</ele>
        <time>2019-02-06T11:26:20Z</time>
      </trkpt>
      <trkpt lat="43.20727" lon="5.48174">
        <ele>268</ele>
        <time>2019-02-06T11:26:28Z</time>
      </trkpt>
      <trkpt lat="43.20727" lon="5.48168">
        <ele>270</ele>
        <time>2019-02-06T11:26:32Z</time>
      </trkpt>
      <trkpt lat="43.20722" lon="5.48163">
        <ele>273</ele>
        <time>2019-02-06T11:26:38Z</time>
      </trkpt>
      <trkpt lat="43.20721" lon="5.48157">
        <ele>274</ele>
        <time>2019-02-06T11:26:42Z</time>
      </trkpt>
      <trkpt lat="43.20718" lon="5.4815">
        <ele>277</ele>
        <time>2019-02-06T11:26:46Z</time>
      </trkpt>
      <trkpt lat="43.20714" lon="5.48143">
        <ele>280</ele>
        <time>2019-02-06T11:26:52Z</time>
      </trkpt>
      <trkpt lat="43.20711" lon="5.48136">
        <ele>281</ele>
        <time>2019-02-06T11:26:58Z</time>
      </trkpt>
      <trkpt lat="43.20709" lon="5.48129">
        <ele>282</ele>
        <time>2019-02-06T11:27:04Z</time>
      </trkpt>
      <trkpt lat="43.20709" lon="5.48122">
        <ele>282</ele>
        <time>2019-02-06T11:27:12Z</time>
      </trkpt>
      <trkpt lat="43.20708" lon="5.48115">
        <ele>282</ele>
        <time>2019-02-06T11:27:22Z</time>
      </trkpt>
      <trkpt lat="43.20705" lon="5.48109">
        <ele>282</ele>
        <time>2019-02-06T11:27:28Z</time>
      </trkpt>
      <trkpt lat="43.20703" lon="5.48102">
        <ele>282</ele>
        <time>2019-02-06T11:27:36Z</time>
      </trkpt>
      <trkpt lat="43.20698" lon="5.48096">
        <ele>285</ele>
        <time>2019-02-06T11:27:42Z</time>
      </trkpt>
      <trkpt lat="43.20695" lon="5.48089">
        <ele>285</ele>
        <time>2019-02-06T11:27:50Z</time>
      </trkpt>
      <trkpt lat="43.20698" lon="5.48083">
        <ele>281</ele>
        <time>2019-02-06T11:27:58Z</time>
      </trkpt>
      <trkpt lat="43.20699" lon="5.48076">
        <ele>282</ele>
        <time>2019-02-06T11:28:08Z</time>
      </trkpt>
      <trkpt lat="43.20698" lon="5.4807">
        <ele>282</ele>
        <time>2019-02-06T11:28:14Z</time>
      </trkpt>
      <trkpt lat="43.20699" lon="5.48063">
        <ele>281</ele>
        <time>2019-02-06T11:28:22Z</time>
      </trkpt>
      <trkpt lat="43.20699" lon="5.48057">
        <ele>282</ele>
        <time>2019-02-06T11:28:28Z</time>
      </trkpt>
      <trkpt lat="43.20696" lon="5.48051">
        <ele>283</ele>
        <time>2019-02-06T11:28:38Z</time>
      </trkpt>
      <trkpt lat="43.20694" lon="5.48045">
        <ele>285</ele>
        <time>2019-02-06T11:28:44Z</time>
      </trkpt>
      <trkpt lat="43.20692" lon="5.48037">
        <ele>287</ele>
        <time>2019-02-06T11:28:52Z</time>
      </trkpt>
      <trkpt lat="43.20691" lon="5.4803">
        <ele>286</ele>
        <time>2019-02-06T11:29:02Z</time>
      </trkpt>
      <trkpt lat="43.2069" lon="5.48022">
        <ele>287</ele>
        <time>2019-02-06T11:29:08Z</time>
      </trkpt>
      <trkpt lat="43.20689" lon="5.48015">
        <ele>289</ele>
        <time>2019-02-06T11:29:14Z</time>
      </trkpt>
      <trkpt lat="43.2069" lon="5.48005">
        <ele>286</ele>
        <time>2019-02-06T11:29:20Z</time>
      </trkpt>
      <trkpt lat="43.20692" lon="5.47998">
        <ele>284</ele>
        <time>2019-02-06T11:29:26Z</time>
      </trkpt>
      <trkpt lat="43.20692" lon="5.47992">
        <ele>285</ele>
        <time>2019-02-06T11:29:30Z</time>
      </trkpt>
      <trkpt lat="43.20691" lon="5.47985">
        <ele>283</ele>
        <time>2019-02-06T11:29:36Z</time>
      </trkpt>
      <trkpt lat="43.20692" lon="5.47977">
        <ele>282</ele>
        <time>2019-02-06T11:29:42Z</time>
      </trkpt>
      <trkpt lat="43.20692" lon="5.47969">
        <ele>282</ele>
        <time>2019-02-06T11:29:46Z</time>
      </trkpt>
      <trkpt lat="43.20692" lon="5.47962">
        <ele>283</ele>
        <time>2019-02-06T11:29:54Z</time>
      </trkpt>
      <trkpt lat="43.20693" lon="5.47956">
        <ele>282</ele>
        <time>2019-02-06T11:30:04Z</time>
      </trkpt>
      <trkpt lat="43.20693" lon="5.47949">
        <ele>281</ele>
        <time>2019-02-06T11:30:10Z</time>
      </trkpt>
      <trkpt lat="43.20693" lon="5.47942">
        <ele>281</ele>
        <time>2019-02-06T11:30:18Z</time>
      </trkpt>
      <trkpt lat="43.20692" lon="5.47935">
        <ele>279</ele>
        <time>2019-02-06T11:30:24Z</time>
      </trkpt>
      <trkpt lat="43.20692" lon="5.47928">
        <ele>280</ele>
        <time>2019-02-06T11:30:32Z</time>
      </trkpt>
      <trkpt lat="43.20694" lon="5.47922">
        <ele>280</ele>
        <time>2019-02-06T11:30:38Z</time>
      </trkpt>
      <trkpt lat="43.20694" lon="5.47915">
        <ele>277</ele>
        <time>2019-02-06T11:30:46Z</time>
      </trkpt>
      <trkpt lat="43.20697" lon="5.47908">
        <ele>279</ele>
        <time>2019-02-06T11:30:52Z</time>
      </trkpt>
      <trkpt lat="43.207" lon="5.47901">
        <ele>282</ele>
        <time>2019-02-06T11:30:56Z</time>
      </trkpt>
      <trkpt lat="43.20703" lon="5.47894">
        <ele>283</ele>
        <time>2019-02-06T11:31:02Z</time>
      </trkpt>
      <trkpt lat="43.20704" lon="5.47888">
        <ele>284</ele>
        <time>2019-02-06T11:31:08Z</time>
      </trkpt>
      <trkpt lat="43.20707" lon="5.4788">
        <ele>286</ele>
        <time>2019-02-06T11:31:16Z</time>
      </trkpt>
      <trkpt lat="43.2071" lon="5.47875">
        <ele>287</ele>
        <time>2019-02-06T11:31:20Z</time>
      </trkpt>
      <trkpt lat="43.20715" lon="5.4787">
        <ele>288</ele>
        <time>2019-02-06T11:31:26Z</time>
      </trkpt>
      <trkpt lat="43.20719" lon="5.47864">
        <ele>289</ele>
        <time>2019-02-06T11:31:32Z</time>
      </trkpt>
      <trkpt lat="43.20722" lon="5.47858">
        <ele>291</ele>
        <time>2019-02-06T11:32:44Z</time>
      </trkpt>
      <trkpt lat="43.20724" lon="5.47852">
        <ele>289</ele>
        <time>2019-02-06T11:32:50Z</time>
      </trkpt>
      <trkpt lat="43.20728" lon="5.47846">
        <ele>292</ele>
        <time>2019-02-06T11:33:00Z</time>
      </trkpt>
      <trkpt lat="43.2073" lon="5.4784">
        <ele>293</ele>
        <time>2019-02-06T11:33:12Z</time>
      </trkpt>
      <trkpt lat="43.20732" lon="5.47833">
        <ele>287</ele>
        <time>2019-02-06T11:33:22Z</time>
      </trkpt>
      <trkpt lat="43.20736" lon="5.47829">
        <ele>288</ele>
        <time>2019-02-06T11:33:28Z</time>
      </trkpt>
      <trkpt lat="43.20738" lon="5.47823">
        <ele>291</ele>
        <time>2019-02-06T11:33:38Z</time>
      </trkpt>
      <trkpt lat="43.2074" lon="5.47818">
        <ele>292</ele>
        <time>2019-02-06T11:33:48Z</time>
      </trkpt>
      <trkpt lat="43.20744" lon="5.47813">
        <ele>293</ele>
        <time>2019-02-06T11:34:08Z</time>
      </trkpt>
      <trkpt lat="43.20746" lon="5.47806">
        <ele>293</ele>
        <time>2019-02-06T11:34:22Z</time>
      </trkpt>
      <trkpt lat="43.20749" lon="5.478">
        <ele>293</ele>
        <time>2019-02-06T11:34:32Z</time>
      </trkpt>
      <trkpt lat="43.20751" lon="5.47795">
        <ele>296</ele>
        <time>2019-02-06T11:34:38Z</time>
      </trkpt>
      <trkpt lat="43.20755" lon="5.4779">
        <ele>298</ele>
        <time>2019-02-06T11:34:48Z</time>
      </trkpt>
      <trkpt lat="43.20756" lon="5.47783">
        <ele>298</ele>
        <time>2019-02-06T11:34:56Z</time>
      </trkpt>
      <trkpt lat="43.20759" lon="5.47777">
        <ele>298</ele>
        <time>2019-02-06T11:35:04Z</time>
      </trkpt>
      <trkpt lat="43.20761" lon="5.4777">
        <ele>301</ele>
        <time>2019-02-06T11:35:12Z</time>
      </trkpt>
      <trkpt lat="43.20762" lon="5.47763">
        <ele>302</ele>
        <time>2019-02-06T11:35:22Z</time>
      </trkpt>
      <trkpt lat="43.20761" lon="5.47757">
        <ele>309</ele>
        <time>2019-02-06T11:35:52Z</time>
      </trkpt>
      <trkpt lat="43.2076" lon="5.47751">
        <ele>307</ele>
        <time>2019-02-06T11:36:16Z</time>
      </trkpt>
      <trkpt lat="43.20757" lon="5.47746">
        <ele>308</ele>
        <time>2019-02-06T11:36:34Z</time>
      </trkpt>
      <trkpt lat="43.20752" lon="5.47746">
        <ele>313</ele>
        <time>2019-02-06T11:36:46Z</time>
      </trkpt>
      <trkpt lat="43.20754" lon="5.4774">
        <ele>308</ele>
        <time>2019-02-06T11:37:02Z</time>
      </trkpt>
      <trkpt lat="43.20758" lon="5.47739">
        <ele>315</ele>
        <time>2019-02-06T11:37:10Z</time>
      </trkpt>
      <trkpt lat="43.20763" lon="5.47736">
        <ele>320</ele>
        <time>2019-02-06T11:37:54Z</time>
      </trkpt>
      <trkpt lat="43.20767" lon="5.47732">
        <ele>322</ele>
        <time>2019-02-06T11:38:14Z</time>
      </trkpt>
      <trkpt lat="43.20769" lon="5.47726">
        <ele>323</ele>
        <time>2019-02-06T11:38:36Z</time>
      </trkpt>
      <trkpt lat="43.20765" lon="5.47721">
        <ele>327</ele>
        <time>2019-02-06T11:39:02Z</time>
      </trkpt>
      <trkpt lat="43.20761" lon="5.47719">
        <ele>331</ele>
        <time>2019-02-06T11:39:18Z</time>
      </trkpt>
      <trkpt lat="43.20757" lon="5.47714">
        <ele>334</ele>
        <time>2019-02-06T11:39:32Z</time>
      </trkpt>
      <trkpt lat="43.20753" lon="5.47709">
        <ele>336</ele>
        <time>2019-02-06T11:39:46Z</time>
      </trkpt>
      <trkpt lat="43.20751" lon="5.47703">
        <ele>335</ele>
        <time>2019-02-06T11:40:20Z</time>
      </trkpt>
      <trkpt lat="43.20749" lon="5.47696">
        <ele>337</ele>
        <time>2019-02-06T11:40:40Z</time>
      </trkpt>
      <trkpt lat="43.20745" lon="5.47692">
        <ele>337</ele>
        <time>2019-02-06T11:40:46Z</time>
      </trkpt>
      <trkpt lat="43.20746" lon="5.47686">
        <ele>337</ele>
        <time>2019-02-06T11:41:04Z</time>
      </trkpt>
      <trkpt lat="43.20747" lon="5.4768">
        <ele>338</ele>
        <time>2019-02-06T11:41:14Z</time>
      </trkpt>
      <trkpt lat="43.20747" lon="5.47673">
        <ele>340</ele>
        <time>2019-02-06T11:41:30Z</time>
      </trkpt>
      <trkpt lat="43.2075" lon="5.47666">
        <ele>341</ele>
        <time>2019-02-06T11:41:42Z</time>
      </trkpt>
      <trkpt lat="43.20754" lon="5.47661">
        <ele>343</ele>
        <time>2019-02-06T11:41:48Z</time>
      </trkpt>
      <trkpt lat="43.20757" lon="5.47655">
        <ele>344</ele>
        <time>2019-02-06T11:41:56Z</time>
      </trkpt>
      <trkpt lat="43.20759" lon="5.47649">
        <ele>346</ele>
        <time>2019-02-06T11:42:12Z</time>
      </trkpt>
      <trkpt lat="43.20764" lon="5.47647">
        <ele>349</ele>
        <time>2019-02-06T11:42:18Z</time>
      </trkpt>
      <trkpt lat="43.20768" lon="5.47643">
        <ele>349</ele>
        <time>2019-02-06T11:42:30Z</time>
      </trkpt>
      <trkpt lat="43.20771" lon="5.47638">
        <ele>346</ele>
        <time>2019-02-06T11:42:40Z</time>
      </trkpt>
      <trkpt lat="43.20774" lon="5.47634">
        <ele>348</ele>
        <time>2019-02-06T11:42:48Z</time>
      </trkpt>
      <trkpt lat="43.20775" lon="5.47628">
        <ele>351</ele>
        <time>2019-02-06T11:43:48Z</time>
      </trkpt>
      <trkpt lat="43.20777" lon="5.47622">
        <ele>356</ele>
        <time>2019-02-06T11:44:08Z</time>
      </trkpt>
      <trkpt lat="43.20777" lon="5.47614">
        <ele>352</ele>
        <time>2019-02-06T11:45:18Z</time>
      </trkpt>
      <trkpt lat="43.20779" lon="5.47607">
        <ele>352</ele>
        <time>2019-02-06T11:45:26Z</time>
      </trkpt>
      <trkpt lat="43.20779" lon="5.47601">
        <ele>355</ele>
        <time>2019-02-06T11:45:34Z</time>
      </trkpt>
      <trkpt lat="43.2078" lon="5.47594">
        <ele>355</ele>
        <time>2019-02-06T11:45:48Z</time>
      </trkpt>
      <trkpt lat="43.20784" lon="5.47588">
        <ele>358</ele>
        <time>2019-02-06T11:45:56Z</time>
      </trkpt>
      <trkpt lat="43.20788" lon="5.47584">
        <ele>358</ele>
        <time>2019-02-06T11:46:04Z</time>
      </trkpt>
      <trkpt lat="43.20791" lon="5.47579">
        <ele>359</ele>
        <time>2019-02-06T11:46:14Z</time>
      </trkpt>
      <trkpt lat="43.20791" lon="5.47572">
        <ele>358</ele>
        <time>2019-02-06T11:47:04Z</time>
      </trkpt>
      <trkpt lat="43.20795" lon="5.47568">
        <ele>360</ele>
        <time>2019-02-06T11:47:12Z</time>
      </trkpt>
      <trkpt lat="43.208" lon="5.47564">
        <ele>363</ele>
        <time>2019-02-06T11:47:22Z</time>
      </trkpt>
      <trkpt lat="43.20802" lon="5.47557">
        <ele>362</ele>
        <time>2019-02-06T11:47:32Z</time>
      </trkpt>
      <trkpt lat="43.20804" lon="5.47551">
        <ele>364</ele>
        <time>2019-02-06T11:47:48Z</time>
      </trkpt>
      <trkpt lat="43.20806" lon="5.47546">
        <ele>362</ele>
        <time>2019-02-06T11:49:42Z</time>
      </trkpt>
      <trkpt lat="43.2081" lon="5.4754">
        <ele>363</ele>
        <time>2019-02-06T11:49:50Z</time>
      </trkpt>
      <trkpt lat="43.20814" lon="5.47535">
        <ele>363</ele>
        <time>2019-02-06T11:49:56Z</time>
      </trkpt>
      <trkpt lat="43.20818" lon="5.47532">
        <ele>364</ele>
        <time>2019-02-06T11:50:02Z</time>
      </trkpt>
      <trkpt lat="43.20822" lon="5.47528">
        <ele>362</ele>
        <time>2019-02-06T11:50:10Z</time>
      </trkpt>
      <trkpt lat="43.20824" lon="5.47522">
        <ele>361</ele>
        <time>2019-02-06T11:50:18Z</time>
      </trkpt>
      <trkpt lat="43.20826" lon="5.47516">
        <ele>361</ele>
        <time>2019-02-06T11:50:26Z</time>
      </trkpt>
      <trkpt lat="43.20828" lon="5.47509">
        <ele>365</ele>
        <time>2019-02-06T11:50:42Z</time>
      </trkpt>
      <trkpt lat="43.20832" lon="5.47503">
        <ele>366</ele>
        <time>2019-02-06T11:50:48Z</time>
      </trkpt>
      <trkpt lat="43.20834" lon="5.47497">
        <ele>369</ele>
        <time>2019-02-06T11:50:56Z</time>
      </trkpt>
      <trkpt lat="43.20837" lon="5.47492">
        <ele>370</ele>
        <time>2019-02-06T11:51:02Z</time>
      </trkpt>
      <trkpt lat="43.20837" lon="5.47486">
        <ele>368</ele>
        <time>2019-02-06T11:51:10Z</time>
      </trkpt>
      <trkpt lat="43.20838" lon="5.47479">
        <ele>370</ele>
        <time>2019-02-06T11:51:32Z</time>
      </trkpt>
      <trkpt lat="43.20839" lon="5.47473">
        <ele>373</ele>
        <time>2019-02-06T11:51:44Z</time>
      </trkpt>
      <trkpt lat="43.20843" lon="5.47469">
        <ele>372</ele>
        <time>2019-02-06T11:52:00Z</time>
      </trkpt>
      <trkpt lat="43.20847" lon="5.47461">
        <ele>374</ele>
        <time>2019-02-06T11:52:10Z</time>
      </trkpt>
      <trkpt lat="43.2085" lon="5.47456">
        <ele>375</ele>
        <time>2019-02-06T11:52:16Z</time>
      </trkpt>
      <trkpt lat="43.20854" lon="5.4745">
        <ele>375</ele>
        <time>2019-02-06T11:52:22Z</time>
      </trkpt>
      <trkpt lat="43.20853" lon="5.47444">
        <ele>371</ele>
        <time>2019-02-06T11:52:32Z</time>
      </trkpt>
      <trkpt lat="43.2085" lon="5.47437">
        <ele>371</ele>
        <time>2019-02-06T11:52:38Z</time>
      </trkpt>
      <trkpt lat="43.20849" lon="5.4743">
        <ele>371</ele>
        <time>2019-02-06T11:52:44Z</time>
      </trkpt>
      <trkpt lat="43.20845" lon="5.47426">
        <ele>371</ele>
        <time>2019-02-06T11:52:52Z</time>
      </trkpt>
      <trkpt lat="43.20841" lon="5.47422">
        <ele>370</ele>
        <time>2019-02-06T11:53:00Z</time>
      </trkpt>
      <trkpt lat="43.20836" lon="5.47419">
        <ele>371</ele>
        <time>2019-02-06T11:53:16Z</time>
      </trkpt>
      <trkpt lat="43.20835" lon="5.47413">
        <ele>368</ele>
        <time>2019-02-06T13:00:10Z</time>
      </trkpt>
      <trkpt lat="43.2084" lon="5.47413">
        <ele>366</ele>
        <time>2019-02-06T13:04:28Z</time>
      </trkpt>
      <trkpt lat="43.20841" lon="5.47407">
        <ele>361</ele>
        <time>2019-02-06T13:04:56Z</time>
      </trkpt>
      <trkpt lat="43.20839" lon="5.47401">
        <ele>362</ele>
        <time>2019-02-06T13:05:54Z</time>
      </trkpt>
      <trkpt lat="43.20844" lon="5.474">
        <ele>362</ele>
        <time>2019-02-06T13:06:32Z</time>
      </trkpt>
      <trkpt lat="43.20847" lon="5.47393">
        <ele>361</ele>
        <time>2019-02-06T13:06:40Z</time>
      </trkpt>
      <trkpt lat="43.20851" lon="5.47387">
        <ele>358</ele>
        <time>2019-02-06T13:06:46Z</time>
      </trkpt>
      <trkpt lat="43.20854" lon="5.47382">
        <ele>356</ele>
        <time>2019-02-06T13:06:52Z</time>
      </trkpt>
      <trkpt lat="43.2086" lon="5.47379">
        <ele>355</ele>
        <time>2019-02-06T13:06:58Z</time>
      </trkpt>
      <trkpt lat="43.20865" lon="5.47376">
        <ele>351</ele>
        <time>2019-02-06T13:07:04Z</time>
      </trkpt>
      <trkpt lat="43.2087" lon="5.47372">
        <ele>350</ele>
        <time>2019-02-06T13:07:10Z</time>
      </trkpt>
      <trkpt lat="43.20874" lon="5.47368">
        <ele>353</ele>
        <time>2019-02-06T13:07:18Z</time>
      </trkpt>
      <trkpt lat="43.20877" lon="5.47363">
        <ele>356</ele>
        <time>2019-02-06T13:07:28Z</time>
      </trkpt>
      <trkpt lat="43.20881" lon="5.47358">
        <ele>356</ele>
        <time>2019-02-06T13:07:38Z</time>
      </trkpt>
      <trkpt lat="43.20883" lon="5.47353">
        <ele>358</ele>
        <time>2019-02-06T13:08:10Z</time>
      </trkpt>
      <trkpt lat="43.20887" lon="5.47349">
        <ele>359</ele>
        <time>2019-02-06T13:08:20Z</time>
      </trkpt>
      <trkpt lat="43.2089" lon="5.47344">
        <ele>360</ele>
        <time>2019-02-06T13:08:26Z</time>
      </trkpt>
      <trkpt lat="43.20894" lon="5.47337">
        <ele>358</ele>
        <time>2019-02-06T13:08:34Z</time>
      </trkpt>
      <trkpt lat="43.20897" lon="5.47332">
        <ele>362</ele>
        <time>2019-02-06T13:08:52Z</time>
      </trkpt>
      <trkpt lat="43.20901" lon="5.47328">
        <ele>360</ele>
        <time>2019-02-06T13:09:00Z</time>
      </trkpt>
      <trkpt lat="43.20904" lon="5.47321">
        <ele>360</ele>
        <time>2019-02-06T13:09:10Z</time>
      </trkpt>
      <trkpt lat="43.20908" lon="5.47315">
        <ele>359</ele>
        <time>2019-02-06T13:09:18Z</time>
      </trkpt>
      <trkpt lat="43.20913" lon="5.47311">
        <ele>357</ele>
        <time>2019-02-06T13:09:26Z</time>
      </trkpt>
      <trkpt lat="43.20917" lon="5.47307">
        <ele>359</ele>
        <time>2019-02-06T13:09:34Z</time>
      </trkpt>
      <trkpt lat="43.2092" lon="5.47303">
        <ele>356</ele>
        <time>2019-02-06T13:09:42Z</time>
      </trkpt>
      <trkpt lat="43.20924" lon="5.47298">
        <ele>358</ele>
        <time>2019-02-06T13:09:50Z</time>
      </trkpt>
      <trkpt lat="43.20928" lon="5.47294">
        <ele>361</ele>
        <time>2019-02-06T13:10:06Z</time>
      </trkpt>
      <trkpt lat="43.20931" lon="5.47288">
        <ele>360</ele>
        <time>2019-02-06T13:10:34Z</time>
      </trkpt>
      <trkpt lat="43.20935" lon="5.47288">
        <ele>358</ele>
        <time>2019-02-06T13:10:44Z</time>
      </trkpt>
      <trkpt lat="43.20941" lon="5.47287">
        <ele>354</ele>
        <time>2019-02-06T13:10:54Z</time>
      </trkpt>
      <trkpt lat="43.20947" lon="5.47288">
        <ele>355</ele>
        <time>2019-02-06T13:11:08Z</time>
      </trkpt>
      <trkpt lat="43.20951" lon="5.47287">
        <ele>354</ele>
        <time>2019-02-06T13:11:20Z</time>
      </trkpt>
      <trkpt lat="43.20956" lon="5.47284">
        <ele>353</ele>
        <time>2019-02-06T13:11:32Z</time>
      </trkpt>
      <trkpt lat="43.20961" lon="5.47284">
        <ele>349</ele>
        <time>2019-02-06T13:11:46Z</time>
      </trkpt>
      <trkpt lat="43.20962" lon="5.47278">
        <ele>349</ele>
        <time>2019-02-06T13:11:54Z</time>
      </trkpt>
      <trkpt lat="43.20964" lon="5.47272">
        <ele>350</ele>
        <time>2019-02-06T13:12:06Z</time>
      </trkpt>
      <trkpt lat="43.20968" lon="5.4727">
        <ele>348</ele>
        <time>2019-02-06T13:12:38Z</time>
      </trkpt>
      <trkpt lat="43.20973" lon="5.47267">
        <ele>344</ele>
        <time>2019-02-06T13:13:02Z</time>
      </trkpt>
      <trkpt lat="43.20977" lon="5.47265">
        <ele>342</ele>
        <time>2019-02-06T13:13:32Z</time>
      </trkpt>
      <trkpt lat="43.20981" lon="5.47263">
        <ele>345</ele>
        <time>2019-02-06T13:14:16Z</time>
      </trkpt>
      <trkpt lat="43.20986" lon="5.47261">
        <ele>342</ele>
        <time>2019-02-06T13:14:32Z</time>
      </trkpt>
      <trkpt lat="43.20987" lon="5.47255">
        <ele>341</ele>
        <time>2019-02-06T13:14:40Z</time>
      </trkpt>
      <trkpt lat="43.20991" lon="5.47251">
        <ele>339</ele>
        <time>2019-02-06T13:14:46Z</time>
      </trkpt>
      <trkpt lat="43.20994" lon="5.47246">
        <ele>337</ele>
        <time>2019-02-06T13:14:54Z</time>
      </trkpt>
      <trkpt lat="43.20998" lon="5.47241">
        <ele>334</ele>
        <time>2019-02-06T13:15:06Z</time>
      </trkpt>
      <trkpt lat="43.21001" lon="5.47236">
        <ele>333</ele>
        <time>2019-02-06T13:15:12Z</time>
      </trkpt>
      <trkpt lat="43.21004" lon="5.4723">
        <ele>335</ele>
        <time>2019-02-06T13:15:18Z</time>
      </trkpt>
      <trkpt lat="43.21008" lon="5.47223">
        <ele>333</ele>
        <time>2019-02-06T13:15:24Z</time>
      </trkpt>
      <trkpt lat="43.21012" lon="5.47219">
        <ele>333</ele>
        <time>2019-02-06T13:15:30Z</time>
      </trkpt>
      <trkpt lat="43.21014" lon="5.47213">
        <ele>333</ele>
        <time>2019-02-06T13:15:36Z</time>
      </trkpt>
      <trkpt lat="43.21017" lon="5.47208">
        <ele>333</ele>
        <time>2019-02-06T13:15:40Z</time>
      </trkpt>
      <trkpt lat="43.2102" lon="5.47202">
        <ele>338</ele>
        <time>2019-02-06T13:15:46Z</time>
      </trkpt>
      <trkpt lat="43.21024" lon="5.47196">
        <ele>340</ele>
        <time>2019-02-06T13:15:52Z</time>
      </trkpt>
      <trkpt lat="43.21028" lon="5.4719">
        <ele>341</ele>
        <time>2019-02-06T13:15:58Z</time>
      </trkpt>
      <trkpt lat="43.21032" lon="5.47186">
        <ele>342</ele>
        <time>2019-02-06T13:16:14Z</time>
      </trkpt>
      <trkpt lat="43.21035" lon="5.47182">
        <ele>338</ele>
        <time>2019-02-06T13:16:30Z</time>
      </trkpt>
      <trkpt lat="43.21041" lon="5.47181">
        <ele>332</ele>
        <time>2019-02-06T13:16:40Z</time>
      </trkpt>
      <trkpt lat="43.21046" lon="5.47182">
        <ele>331</ele>
        <time>2019-02-06T13:16:50Z</time>
      </trkpt>
      <trkpt lat="43.2105" lon="5.47179">
        <ele>330</ele>
        <time>2019-02-06T13:17:00Z</time>
      </trkpt>
      <trkpt lat="43.21056" lon="5.47181">
        <ele>325</ele>
        <time>2019-02-06T13:17:28Z</time>
      </trkpt>
      <trkpt lat="43.2106" lon="5.47184">
        <ele>325</ele>
        <time>2019-02-06T13:17:40Z</time>
      </trkpt>
      <trkpt lat="43.21061" lon="5.4719">
        <ele>321</ele>
        <time>2019-02-06T13:17:54Z</time>
      </trkpt>
      <trkpt lat="43.21066" lon="5.47187">
        <ele>317</ele>
        <time>2019-02-06T13:18:06Z</time>
      </trkpt>
      <trkpt lat="43.21069" lon="5.47181">
        <ele>316</ele>
        <time>2019-02-06T13:18:18Z</time>
      </trkpt>
      <trkpt lat="43.21072" lon="5.47175">
        <ele>319</ele>
        <time>2019-02-06T13:18:34Z</time>
      </trkpt>
      <trkpt lat="43.21075" lon="5.47171">
        <ele>320</ele>
        <time>2019-02-06T13:18:44Z</time>
      </trkpt>
      <trkpt lat="43.21079" lon="5.47166">
        <ele>317</ele>
        <time>2019-02-06T13:18:58Z</time>
      </trkpt>
      <trkpt lat="43.21083" lon="5.47159">
        <ele>316</ele>
        <time>2019-02-06T13:19:04Z</time>
      </trkpt>
      <trkpt lat="43.21086" lon="5.47153">
        <ele>318</ele>
        <time>2019-02-06T13:19:20Z</time>
      </trkpt>
      <trkpt lat="43.2109" lon="5.47149">
        <ele>320</ele>
        <time>2019-02-06T13:19:26Z</time>
      </trkpt>
      <trkpt lat="43.21094" lon="5.47146">
        <ele>288</ele>
        <time>2019-02-06T13:19:32Z</time>
      </trkpt>
      <trkpt lat="43.21098" lon="5.47146">
        <ele>311</ele>
        <time>2019-02-06T13:19:42Z</time>
      </trkpt>
      <trkpt lat="43.21104" lon="5.47148">
        <ele>312</ele>
        <time>2019-02-06T13:19:48Z</time>
      </trkpt>
      <trkpt lat="43.21108" lon="5.47151">
        <ele>315</ele>
        <time>2019-02-06T13:19:56Z</time>
      </trkpt>
      <trkpt lat="43.21112" lon="5.47156">
        <ele>317</ele>
        <time>2019-02-06T13:20:02Z</time>
      </trkpt>
      <trkpt lat="43.21115" lon="5.47161">
        <ele>319</ele>
        <time>2019-02-06T13:20:08Z</time>
      </trkpt>
      <trkpt lat="43.21121" lon="5.47164">
        <ele>320</ele>
        <time>2019-02-06T13:20:16Z</time>
      </trkpt>
      <trkpt lat="43.21124" lon="5.4717">
        <ele>323</ele>
        <time>2019-02-06T13:20:22Z</time>
      </trkpt>
      <trkpt lat="43.21127" lon="5.47176">
        <ele>322</ele>
        <time>2019-02-06T13:20:28Z</time>
      </trkpt>
      <trkpt lat="43.21131" lon="5.47182">
        <ele>324</ele>
        <time>2019-02-06T13:20:34Z</time>
      </trkpt>
      <trkpt lat="43.21134" lon="5.47187">
        <ele>323</ele>
        <time>2019-02-06T13:20:40Z</time>
      </trkpt>
      <trkpt lat="43.21139" lon="5.47188">
        <ele>326</ele>
        <time>2019-02-06T13:20:52Z</time>
      </trkpt>
      <trkpt lat="43.21144" lon="5.47191">
        <ele>326</ele>
        <time>2019-02-06T13:21:00Z</time>
      </trkpt>
      <trkpt lat="43.21148" lon="5.47193">
        <ele>331</ele>
        <time>2019-02-06T13:21:12Z</time>
      </trkpt>
      <trkpt lat="43.2115" lon="5.47199">
        <ele>330</ele>
        <time>2019-02-06T13:21:20Z</time>
      </trkpt>
      <trkpt lat="43.21149" lon="5.47205">
        <ele>331</ele>
        <time>2019-02-06T13:21:26Z</time>
      </trkpt>
      <trkpt lat="43.21147" lon="5.47211">
        <ele>331</ele>
        <time>2019-02-06T13:21:34Z</time>
      </trkpt>
      <trkpt lat="43.21149" lon="5.47217">
        <ele>334</ele>
        <time>2019-02-06T13:21:56Z</time>
      </trkpt>
      <trkpt lat="43.21154" lon="5.4722">
        <ele>331</ele>
        <time>2019-02-06T13:22:16Z</time>
      </trkpt>
      <trkpt lat="43.21157" lon="5.47215">
        <ele>331</ele>
        <time>2019-02-06T13:22:24Z</time>
      </trkpt>
      <trkpt lat="43.21162" lon="5.47214">
        <ele>329</ele>
        <time>2019-02-06T13:22:32Z</time>
      </trkpt>
      <trkpt lat="43.21167" lon="5.47212">
        <ele>331</ele>
        <time>2019-02-06T13:22:40Z</time>
      </trkpt>
      <trkpt lat="43.21166" lon="5.47205">
        <ele>336</ele>
        <time>2019-02-06T13:22:48Z</time>
      </trkpt>
      <trkpt lat="43.21165" lon="5.47199">
        <ele>338</ele>
        <time>2019-02-06T13:22:54Z</time>
      </trkpt>
      <trkpt lat="43.21162" lon="5.47192">
        <ele>337</ele>
        <time>2019-02-06T13:23:02Z</time>
      </trkpt>
      <trkpt lat="43.21162" lon="5.47185">
        <ele>340</ele>
        <time>2019-02-06T13:23:12Z</time>
      </trkpt>
      <trkpt lat="43.21162" lon="5.47179">
        <ele>342</ele>
        <time>2019-02-06T13:23:22Z</time>
      </trkpt>
      <trkpt lat="43.21163" lon="5.47173">
        <ele>342</ele>
        <time>2019-02-06T13:23:34Z</time>
      </trkpt>
      <trkpt lat="43.21165" lon="5.47167">
        <ele>346</ele>
        <time>2019-02-06T13:23:48Z</time>
      </trkpt>
      <trkpt lat="43.21166" lon="5.47159">
        <ele>350</ele>
        <time>2019-02-06T13:24:06Z</time>
      </trkpt>
      <trkpt lat="43.2117" lon="5.47156">
        <ele>353</ele>
        <time>2019-02-06T13:24:16Z</time>
      </trkpt>
      <trkpt lat="43.21174" lon="5.47155">
        <ele>357</ele>
        <time>2019-02-06T13:24:30Z</time>
      </trkpt>
      <trkpt lat="43.21179" lon="5.47152">
        <ele>360</ele>
        <time>2019-02-06T13:24:48Z</time>
      </trkpt>
      <trkpt lat="43.21183" lon="5.47155">
        <ele>362</ele>
        <time>2019-02-06T13:25:08Z</time>
      </trkpt>
      <trkpt lat="43.21187" lon="5.47149">
        <ele>362</ele>
        <time>2019-02-06T13:25:24Z</time>
      </trkpt>
      <trkpt lat="43.21191" lon="5.47143">
        <ele>362</ele>
        <time>2019-02-06T13:25:34Z</time>
      </trkpt>
      <trkpt lat="43.21194" lon="5.47137">
        <ele>361</ele>
        <time>2019-02-06T13:25:42Z</time>
      </trkpt>
      <trkpt lat="43.21198" lon="5.47132">
        <ele>363</ele>
        <time>2019-02-06T13:25:50Z</time>
      </trkpt>
      <trkpt lat="43.21203" lon="5.47132">
        <ele>365</ele>
        <time>2019-02-06T13:26:00Z</time>
      </trkpt>
      <trkpt lat="43.21207" lon="5.47134">
        <ele>367</ele>
        <time>2019-02-06T13:26:20Z</time>
      </trkpt>
      <trkpt lat="43.21209" lon="5.4714">
        <ele>370</ele>
        <time>2019-02-06T13:26:30Z</time>
      </trkpt>
      <trkpt lat="43.21211" lon="5.47146">
        <ele>367</ele>
        <time>2019-02-06T13:26:40Z</time>
      </trkpt>
      <trkpt lat="43.21216" lon="5.4715">
        <ele>367</ele>
        <time>2019-02-06T13:26:50Z</time>
      </trkpt>
      <trkpt lat="43.21221" lon="5.47148">
        <ele>366</ele>
        <time>2019-02-06T13:27:08Z</time>
      </trkpt>
      <trkpt lat="43.21226" lon="5.47147">
        <ele>374</ele>
        <time>2019-02-06T13:27:34Z</time>
      </trkpt>
      <trkpt lat="43.2123" lon="5.47151">
        <ele>374</ele>
        <time>2019-02-06T13:27:44Z</time>
      </trkpt>
      <trkpt lat="43.21234" lon="5.4715">
        <ele>374</ele>
        <time>2019-02-06T13:27:54Z</time>
      </trkpt>
      <trkpt lat="43.21239" lon="5.47151">
        <ele>376</ele>
        <time>2019-02-06T13:28:08Z</time>
      </trkpt>
      <trkpt lat="43.21244" lon="5.47149">
        <ele>381</ele>
        <time>2019-02-06T13:28:26Z</time>
      </trkpt>
      <trkpt lat="43.21246" lon="5.47143">
        <ele>385</ele>
        <time>2019-02-06T13:28:40Z</time>
      </trkpt>
      <trkpt lat="43.21251" lon="5.47143">
        <ele>386</ele>
        <time>2019-02-06T13:28:56Z</time>
      </trkpt>
      <trkpt lat="43.21255" lon="5.4714">
        <ele>387</ele>
        <time>2019-02-06T13:29:22Z</time>
      </trkpt>
      <trkpt lat="43.2126" lon="5.4714">
        <ele>387</ele>
        <time>2019-02-06T13:29:30Z</time>
      </trkpt>
      <trkpt lat="43.21265" lon="5.47137">
        <ele>389</ele>
        <time>2019-02-06T13:29:38Z</time>
      </trkpt>
      <trkpt lat="43.2127" lon="5.47137">
        <ele>388</ele>
        <time>2019-02-06T13:29:46Z</time>
      </trkpt>
      <trkpt lat="43.21274" lon="5.47138">
        <ele>392</ele>
        <time>2019-02-06T13:30:10Z</time>
      </trkpt>
      <trkpt lat="43.21279" lon="5.47137">
        <ele>392</ele>
        <time>2019-02-06T13:30:20Z</time>
      </trkpt>
      <trkpt lat="43.21285" lon="5.47137">
        <ele>393</ele>
        <time>2019-02-06T13:30:30Z</time>
      </trkpt>
      <trkpt lat="43.2129" lon="5.47139">
        <ele>394</ele>
        <time>2019-02-06T13:30:48Z</time>
      </trkpt>
      <trkpt lat="43.21294" lon="5.47134">
        <ele>402</ele>
        <time>2019-02-06T13:31:06Z</time>
      </trkpt>
      <trkpt lat="43.21298" lon="5.47135">
        <ele>404</ele>
        <time>2019-02-06T13:31:46Z</time>
      </trkpt>
      <trkpt lat="43.21303" lon="5.47136">
        <ele>405</ele>
        <time>2019-02-06T13:32:04Z</time>
      </trkpt>
      <trkpt lat="43.21308" lon="5.47137">
        <ele>406</ele>
        <time>2019-02-06T13:32:14Z</time>
      </trkpt>
      <trkpt lat="43.21311" lon="5.47133">
        <ele>404</ele>
        <time>2019-02-06T13:32:54Z</time>
      </trkpt>
      <trkpt lat="43.21316" lon="5.47133">
        <ele>407</ele>
        <time>2019-02-06T13:33:06Z</time>
      </trkpt>
      <trkpt lat="43.21321" lon="5.47134">
        <ele>413</ele>
        <time>2019-02-06T13:33:20Z</time>
      </trkpt>
      <trkpt lat="43.21325" lon="5.47136">
        <ele>415</ele>
        <time>2019-02-06T13:33:28Z</time>
      </trkpt>
      <trkpt lat="43.21331" lon="5.47136">
        <ele>415</ele>
        <time>2019-02-06T13:33:36Z</time>
      </trkpt>
      <trkpt lat="43.21336" lon="5.47137">
        <ele>416</ele>
        <time>2019-02-06T13:35:42Z</time>
      </trkpt>
      <trkpt lat="43.21339" lon="5.47132">
        <ele>416</ele>
        <time>2019-02-06T13:38:28Z</time>
      </trkpt>
      <trkpt lat="43.21342" lon="5.47127">
        <ele>414</ele>
        <time>2019-02-06T13:38:36Z</time>
      </trkpt>
      <trkpt lat="43.21343" lon="5.47121">
        <ele>417</ele>
        <time>2019-02-06T13:38:40Z</time>
      </trkpt>
      <trkpt lat="43.21344" lon="5.47114">
        <ele>413</ele>
        <time>2019-02-06T13:38:50Z</time>
      </trkpt>
      <trkpt lat="43.21343" lon="5.47107">
        <ele>411</ele>
        <time>2019-02-06T13:38:58Z</time>
      </trkpt>
      <trkpt lat="43.21341" lon="5.47101">
        <ele>410</ele>
        <time>2019-02-06T13:39:04Z</time>
      </trkpt>
      <trkpt lat="43.21339" lon="5.47095">
        <ele>412</ele>
        <time>2019-02-06T13:39:10Z</time>
      </trkpt>
      <trkpt lat="43.21337" lon="5.47088">
        <ele>414</ele>
        <time>2019-02-06T13:39:18Z</time>
      </trkpt>
      <trkpt lat="43.21337" lon="5.47081">
        <ele>412</ele>
        <time>2019-02-06T13:39:26Z</time>
      </trkpt>
      <trkpt lat="43.21337" lon="5.47074">
        <ele>411</ele>
        <time>2019-02-06T13:39:32Z</time>
      </trkpt>
      <trkpt lat="43.21337" lon="5.47067">
        <ele>411</ele>
        <time>2019-02-06T13:39:38Z</time>
      </trkpt>
      <trkpt lat="43.21336" lon="5.47059">
        <ele>411</ele>
        <time>2019-02-06T13:39:44Z</time>
      </trkpt>
      <trkpt lat="43.21339" lon="5.47053">
        <ele>412</ele>
        <time>2019-02-06T13:39:50Z</time>
      </trkpt>
      <trkpt lat="43.21338" lon="5.47045">
        <ele>414</ele>
        <time>2019-02-06T13:39:58Z</time>
      </trkpt>
      <trkpt lat="43.21336" lon="5.47038">
        <ele>414</ele>
        <time>2019-02-06T13:40:04Z</time>
      </trkpt>
      <trkpt lat="43.21336" lon="5.47031">
        <ele>416</ele>
        <time>2019-02-06T13:40:12Z</time>
      </trkpt>
      <trkpt lat="43.21336" lon="5.47024">
        <ele>419</ele>
        <time>2019-02-06T13:40:24Z</time>
      </trkpt>
      <trkpt lat="43.21335" lon="5.47017">
        <ele>418</ele>
        <time>2019-02-06T13:40:32Z</time>
      </trkpt>
      <trkpt lat="43.21339" lon="5.4701">
        <ele>416</ele>
        <time>2019-02-06T13:40:40Z</time>
      </trkpt>
      <trkpt lat="43.21343" lon="5.47006">
        <ele>413</ele>
        <time>2019-02-06T13:40:46Z</time>
      </trkpt>
      <trkpt lat="43.21347" lon="5.47">
        <ele>416</ele>
        <time>2019-02-06T13:40:54Z</time>
      </trkpt>
      <trkpt lat="43.21349" lon="5.46994">
        <ele>415</ele>
        <time>2019-02-06T13:41:00Z</time>
      </trkpt>
      <trkpt lat="43.21351" lon="5.46987">
        <ele>414</ele>
        <time>2019-02-06T13:41:12Z</time>
      </trkpt>
      <trkpt lat="43.21352" lon="5.4698">
        <ele>417</ele>
        <time>2019-02-06T13:41:20Z</time>
      </trkpt>
      <trkpt lat="43.21354" lon="5.46972">
        <ele>419</ele>
        <time>2019-02-06T13:41:28Z</time>
      </trkpt>
      <trkpt lat="43.21355" lon="5.46965">
        <ele>422</ele>
        <time>2019-02-06T13:41:36Z</time>
      </trkpt>
      <trkpt lat="43.21356" lon="5.46959">
        <ele>422</ele>
        <time>2019-02-06T13:41:44Z</time>
      </trkpt>
      <trkpt lat="43.21361" lon="5.46953">
        <ele>422</ele>
        <time>2019-02-06T13:41:54Z</time>
      </trkpt>
      <trkpt lat="43.21364" lon="5.46949">
        <ele>423</ele>
        <time>2019-02-06T13:42:02Z</time>
      </trkpt>
      <trkpt lat="43.21369" lon="5.46945">
        <ele>423</ele>
        <time>2019-02-06T13:42:16Z</time>
      </trkpt>
      <trkpt lat="43.21373" lon="5.46941">
        <ele>423</ele>
        <time>2019-02-06T13:42:26Z</time>
      </trkpt>
      <trkpt lat="43.21376" lon="5.46935">
        <ele>423</ele>
        <time>2019-02-06T13:42:36Z</time>
      </trkpt>
      <trkpt lat="43.2138" lon="5.46933">
        <ele>430</ele>
        <time>2019-02-06T13:42:56Z</time>
      </trkpt>
      <trkpt lat="43.21381" lon="5.46926">
        <ele>432</ele>
        <time>2019-02-06T13:43:04Z</time>
      </trkpt>
      <trkpt lat="43.21382" lon="5.46919">
        <ele>432</ele>
        <time>2019-02-06T13:43:12Z</time>
      </trkpt>
      <trkpt lat="43.21384" lon="5.46913">
        <ele>435</ele>
        <time>2019-02-06T13:43:28Z</time>
      </trkpt>
      <trkpt lat="43.21387" lon="5.46908">
        <ele>439</ele>
        <time>2019-02-06T13:43:42Z</time>
      </trkpt>
      <trkpt lat="43.21391" lon="5.46903">
        <ele>442</ele>
        <time>2019-02-06T13:43:52Z</time>
      </trkpt>
      <trkpt lat="43.21392" lon="5.46896">
        <ele>442</ele>
        <time>2019-02-06T13:43:58Z</time>
      </trkpt>
      <trkpt lat="43.21393" lon="5.4689">
        <ele>444</ele>
        <time>2019-02-06T13:44:04Z</time>
      </trkpt>
      <trkpt lat="43.21394" lon="5.46883">
        <ele>444</ele>
        <time>2019-02-06T13:44:10Z</time>
      </trkpt>
      <trkpt lat="43.21396" lon="5.46877">
        <ele>444</ele>
        <time>2019-02-06T13:44:16Z</time>
      </trkpt>
      <trkpt lat="43.21399" lon="5.46872">
        <ele>444</ele>
        <time>2019-02-06T13:44:22Z</time>
      </trkpt>
      <trkpt lat="43.21403" lon="5.46867">
        <ele>443</ele>
        <time>2019-02-06T13:44:32Z</time>
      </trkpt>
      <trkpt lat="43.21408" lon="5.46863">
        <ele>445</ele>
        <time>2019-02-06T13:44:40Z</time>
      </trkpt>
      <trkpt lat="43.21411" lon="5.46858">
        <ele>445</ele>
        <time>2019-02-06T13:44:48Z</time>
      </trkpt>
      <trkpt lat="43.21415" lon="5.46853">
        <ele>445</ele>
        <time>2019-02-06T13:44:56Z</time>
      </trkpt>
      <trkpt lat="43.21418" lon="5.46847">
        <ele>445</ele>
        <time>2019-02-06T13:45:04Z</time>
      </trkpt>
      <trkpt lat="43.21423" lon="5.46843">
        <ele>444</ele>
        <time>2019-02-06T13:45:10Z</time>
      </trkpt>
      <trkpt lat="43.21428" lon="5.4684">
        <ele>446</ele>
        <time>2019-02-06T13:45:16Z</time>
      </trkpt>
      <trkpt lat="43.21432" lon="5.46838">
        <ele>446</ele>
        <time>2019-02-06T13:45:20Z</time>
      </trkpt>
      <trkpt lat="43.21437" lon="5.46834">
        <ele>448</ele>
        <time>2019-02-06T13:45:26Z</time>
      </trkpt>
      <trkpt lat="43.21442" lon="5.4683">
        <ele>446</ele>
        <time>2019-02-06T13:45:32Z</time>
      </trkpt>
      <trkpt lat="43.21445" lon="5.46824">
        <ele>445</ele>
        <time>2019-02-06T13:45:40Z</time>
      </trkpt>
      <trkpt lat="43.21449" lon="5.46819">
        <ele>445</ele>
        <time>2019-02-06T13:45:50Z</time>
      </trkpt>
      <trkpt lat="43.21452" lon="5.46814">
        <ele>445</ele>
        <time>2019-02-06T13:46:06Z</time>
      </trkpt>
      <trkpt lat="43.21455" lon="5.46807">
        <ele>446</ele>
        <time>2019-02-06T13:46:38Z</time>
      </trkpt>
      <trkpt lat="43.21457" lon="5.46801">
        <ele>448</ele>
        <time>2019-02-06T13:46:44Z</time>
      </trkpt>
      <trkpt lat="43.21461" lon="5.46796">
        <ele>446</ele>
        <time>2019-02-06T13:46:52Z</time>
      </trkpt>
      <trkpt lat="43.21465" lon="5.46791">
        <ele>451</ele>
        <time>2019-02-06T13:47:00Z</time>
      </trkpt>
      <trkpt lat="43.2147" lon="5.46787">
        <ele>452</ele>
        <time>2019-02-06T13:47:06Z</time>
      </trkpt>
      <trkpt lat="43.21474" lon="5.46786">
        <ele>452</ele>
        <time>2019-02-06T13:47:14Z</time>
      </trkpt>
      <trkpt lat="43.21479" lon="5.46785">
        <ele>448</ele>
        <time>2019-02-06T13:47:22Z</time>
      </trkpt>
      <trkpt lat="43.21484" lon="5.46783">
        <ele>450</ele>
        <time>2019-02-06T13:47:30Z</time>
      </trkpt>
      <trkpt lat="43.2149" lon="5.4678">
        <ele>447</ele>
        <time>2019-02-06T13:47:38Z</time>
      </trkpt>
      <trkpt lat="43.21496" lon="5.46778">
        <ele>443</ele>
        <time>2019-02-06T13:47:44Z</time>
      </trkpt>
      <trkpt lat="43.21502" lon="5.46776">
        <ele>441</ele>
        <time>2019-02-06T13:47:50Z</time>
      </trkpt>
      <trkpt lat="43.21506" lon="5.46772">
        <ele>440</ele>
        <time>2019-02-06T13:47:56Z</time>
      </trkpt>
      <trkpt lat="43.21509" lon="5.46766">
        <ele>443</ele>
        <time>2019-02-06T13:48:06Z</time>
      </trkpt>
      <trkpt lat="43.21512" lon="5.46761">
        <ele>445</ele>
        <time>2019-02-06T13:48:14Z</time>
      </trkpt>
      <trkpt lat="43.21517" lon="5.46757">
        <ele>449</ele>
        <time>2019-02-06T13:48:22Z</time>
      </trkpt>
      <trkpt lat="43.21521" lon="5.46753">
        <ele>447</ele>
        <time>2019-02-06T13:48:30Z</time>
      </trkpt>
      <trkpt lat="43.21526" lon="5.46752">
        <ele>445</ele>
        <time>2019-02-06T13:48:36Z</time>
      </trkpt>
      <trkpt lat="43.21531" lon="5.4675">
        <ele>444</ele>
        <time>2019-02-06T13:48:42Z</time>
      </trkpt>
      <trkpt lat="43.21535" lon="5.46746">
        <ele>444</ele>
        <time>2019-02-06T13:48:48Z</time>
      </trkpt>
      <trkpt lat="43.21536" lon="5.4674">
        <ele>447</ele>
        <time>2019-02-06T13:48:58Z</time>
      </trkpt>
      <trkpt lat="43.2154" lon="5.46737">
        <ele>449</ele>
        <time>2019-02-06T13:49:06Z</time>
      </trkpt>
      <trkpt lat="43.21544" lon="5.46733">
        <ele>447</ele>
        <time>2019-02-06T13:49:10Z</time>
      </trkpt>
      <trkpt lat="43.21548" lon="5.46729">
        <ele>443</ele>
        <time>2019-02-06T13:49:14Z</time>
      </trkpt>
      <trkpt lat="43.21552" lon="5.46725">
        <ele>443</ele>
        <time>2019-02-06T13:49:22Z</time>
      </trkpt>
      <trkpt lat="43.21557" lon="5.4672">
        <ele>440</ele>
        <time>2019-02-06T13:49:30Z</time>
      </trkpt>
      <trkpt lat="43.21562" lon="5.46718">
        <ele>442</ele>
        <time>2019-02-06T13:49:36Z</time>
      </trkpt>
      <trkpt lat="43.21566" lon="5.46715">
        <ele>442</ele>
        <time>2019-02-06T13:49:44Z</time>
      </trkpt>
      <trkpt lat="43.21569" lon="5.46707">
        <ele>445</ele>
        <time>2019-02-06T13:49:52Z</time>
      </trkpt>
      <trkpt lat="43.2157" lon="5.467">
        <ele>445</ele>
        <time>2019-02-06T13:50:00Z</time>
      </trkpt>
      <trkpt lat="43.21572" lon="5.46695">
        <ele>446</ele>
        <time>2019-02-06T13:50:06Z</time>
      </trkpt>
      <trkpt lat="43.21575" lon="5.46688">
        <ele>444</ele>
        <time>2019-02-06T13:50:12Z</time>
      </trkpt>
      <trkpt lat="43.21578" lon="5.46684">
        <ele>443</ele>
        <time>2019-02-06T13:50:18Z</time>
      </trkpt>
      <trkpt lat="43.21583" lon="5.46681">
        <ele>441</ele>
        <time>2019-02-06T13:50:24Z</time>
      </trkpt>
      <trkpt lat="43.21588" lon="5.46679">
        <ele>441</ele>
        <time>2019-02-06T13:50:34Z</time>
      </trkpt>
      <trkpt lat="43.21584" lon="5.46674">
        <ele>443</ele>
        <time>2019-02-06T13:50:48Z</time>
      </trkpt>
      <trkpt lat="43.21579" lon="5.46671">
        <ele>444</ele>
        <time>2019-02-06T13:50:54Z</time>
      </trkpt>
      <trkpt lat="43.21574" lon="5.46671">
        <ele>446</ele>
        <time>2019-02-06T13:51:00Z</time>
      </trkpt>
      <trkpt lat="43.21569" lon="5.46671">
        <ele>447</ele>
        <time>2019-02-06T13:51:06Z</time>
      </trkpt>
      <trkpt lat="43.21564" lon="5.4667">
        <ele>449</ele>
        <time>2019-02-06T13:51:16Z</time>
      </trkpt>
      <trkpt lat="43.21559" lon="5.46668">
        <ele>451</ele>
        <time>2019-02-06T13:51:26Z</time>
      </trkpt>
      <trkpt lat="43.21554" lon="5.46666">
        <ele>452</ele>
        <time>2019-02-06T13:51:36Z</time>
      </trkpt>
      <trkpt lat="43.2155" lon="5.46664">
        <ele>451</ele>
        <time>2019-02-06T13:51:44Z</time>
      </trkpt>
      <trkpt lat="43.21544" lon="5.46661">
        <ele>453</ele>
        <time>2019-02-06T13:51:52Z</time>
      </trkpt>
      <trkpt lat="43.21539" lon="5.46658">
        <ele>454</ele>
        <time>2019-02-06T13:52:00Z</time>
      </trkpt>
      <trkpt lat="43.21534" lon="5.46655">
        <ele>449</ele>
        <time>2019-02-06T13:52:10Z</time>
      </trkpt>
      <trkpt lat="43.21529" lon="5.46653">
        <ele>453</ele>
        <time>2019-02-06T13:52:18Z</time>
      </trkpt>
      <trkpt lat="43.21525" lon="5.4665">
        <ele>455</ele>
        <time>2019-02-06T13:52:26Z</time>
      </trkpt>
      <trkpt lat="43.2152" lon="5.46651">
        <ele>453</ele>
        <time>2019-02-06T13:52:34Z</time>
      </trkpt>
      <trkpt lat="43.21515" lon="5.46651">
        <ele>453</ele>
        <time>2019-02-06T13:52:40Z</time>
      </trkpt>
      <trkpt lat="43.2151" lon="5.46652">
        <ele>453</ele>
        <time>2019-02-06T13:52:46Z</time>
      </trkpt>
      <trkpt lat="43.21504" lon="5.46653">
        <ele>453</ele>
        <time>2019-02-06T13:52:54Z</time>
      </trkpt>
      <trkpt lat="43.21498" lon="5.46654">
        <ele>452</ele>
        <time>2019-02-06T13:53:02Z</time>
      </trkpt>
      <trkpt lat="43.21493" lon="5.46655">
        <ele>452</ele>
        <time>2019-02-06T13:53:08Z</time>
      </trkpt>
      <trkpt lat="43.21488" lon="5.46658">
        <ele>453</ele>
        <time>2019-02-06T13:53:14Z</time>
      </trkpt>
      <trkpt lat="43.21483" lon="5.46657">
        <ele>452</ele>
        <time>2019-02-06T13:53:22Z</time>
      </trkpt>
      <trkpt lat="43.21477" lon="5.46656">
        <ele>452</ele>
        <time>2019-02-06T13:53:28Z</time>
      </trkpt>
      <trkpt lat="43.21471" lon="5.46656">
        <ele>455</ele>
        <time>2019-02-06T13:53:34Z</time>
      </trkpt>
      <trkpt lat="43.21466" lon="5.46655">
        <ele>457</ele>
        <time>2019-02-06T13:53:40Z</time>
      </trkpt>
      <trkpt lat="43.21461" lon="5.46652">
        <ele>458</ele>
        <time>2019-02-06T13:53:46Z</time>
      </trkpt>
      <trkpt lat="43.21458" lon="5.46648">
        <ele>459</ele>
        <time>2019-02-06T13:53:52Z</time>
      </trkpt>
      <trkpt lat="43.21454" lon="5.46644">
        <ele>460</ele>
        <time>2019-02-06T13:53:58Z</time>
      </trkpt>
      <trkpt lat="43.2145" lon="5.4664">
        <ele>461</ele>
        <time>2019-02-06T13:54:06Z</time>
      </trkpt>
      <trkpt lat="43.21446" lon="5.46637">
        <ele>463</ele>
        <time>2019-02-06T13:54:14Z</time>
      </trkpt>
      <trkpt lat="43.21442" lon="5.46632">
        <ele>466</ele>
        <time>2019-02-06T13:54:22Z</time>
      </trkpt>
      <trkpt lat="43.21438" lon="5.46629">
        <ele>469</ele>
        <time>2019-02-06T13:54:30Z</time>
      </trkpt>
      <trkpt lat="43.21433" lon="5.46627">
        <ele>470</ele>
        <time>2019-02-06T13:54:38Z</time>
      </trkpt>
      <trkpt lat="43.21427" lon="5.46625">
        <ele>470</ele>
        <time>2019-02-06T13:54:46Z</time>
      </trkpt>
      <trkpt lat="43.21423" lon="5.4662">
        <ele>471</ele>
        <time>2019-02-06T13:54:54Z</time>
      </trkpt>
      <trkpt lat="43.21419" lon="5.46617">
        <ele>472</ele>
        <time>2019-02-06T13:55:02Z</time>
      </trkpt>
      <trkpt lat="43.21415" lon="5.46612">
        <ele>471</ele>
        <time>2019-02-06T13:55:12Z</time>
      </trkpt>
      <trkpt lat="43.21415" lon="5.46606">
        <ele>474</ele>
        <time>2019-02-06T13:55:22Z</time>
      </trkpt>
      <trkpt lat="43.2142" lon="5.46606">
        <ele>476</ele>
        <time>2019-02-06T13:55:46Z</time>
      </trkpt>
      <trkpt lat="43.21425" lon="5.46603">
        <ele>474</ele>
        <time>2019-02-06T14:01:52Z</time>
      </trkpt>
      <trkpt lat="43.2143" lon="5.46605">
        <ele>477</ele>
        <time>2019-02-06T14:02:10Z</time>
      </trkpt>
      <trkpt lat="43.21435" lon="5.46605">
        <ele>480</ele>
        <time>2019-02-06T14:02:16Z</time>
      </trkpt>
      <trkpt lat="43.2144" lon="5.46603">
        <ele>481</ele>
        <time>2019-02-06T14:02:24Z</time>
      </trkpt>
      <trkpt lat="43.21445" lon="5.466">
        <ele>484</ele>
        <time>2019-02-06T14:02:36Z</time>
      </trkpt>
      <trkpt lat="43.2145" lon="5.46599">
        <ele>484</ele>
        <time>2019-02-06T14:02:44Z</time>
      </trkpt>
      <trkpt lat="43.21456" lon="5.46598">
        <ele>484</ele>
        <time>2019-02-06T14:02:52Z</time>
      </trkpt>
      <trkpt lat="43.21459" lon="5.46595">
        <ele>487</ele>
        <time>2019-02-06T14:03:02Z</time>
      </trkpt>
      <trkpt lat="43.21463" lon="5.46591">
        <ele>490</ele>
        <time>2019-02-06T14:03:14Z</time>
      </trkpt>
      <trkpt lat="43.21468" lon="5.46593">
        <ele>489</ele>
        <time>2019-02-06T14:03:22Z</time>
      </trkpt>
      <trkpt lat="43.21472" lon="5.46588">
        <ele>495</ele>
        <time>2019-02-06T14:03:34Z</time>
      </trkpt>
      <trkpt lat="43.21476" lon="5.46594">
        <ele>485</ele>
        <time>2019-02-06T14:03:54Z</time>
      </trkpt>
      <trkpt lat="43.2148" lon="5.46597">
        <ele>477</ele>
        <time>2019-02-06T14:04:02Z</time>
      </trkpt>
      <trkpt lat="43.21484" lon="5.46596">
        <ele>469</ele>
        <time>2019-02-06T14:04:22Z</time>
      </trkpt>
      <trkpt lat="43.21488" lon="5.46593">
        <ele>475</ele>
        <time>2019-02-06T14:04:30Z</time>
      </trkpt>
      <trkpt lat="43.21491" lon="5.46587">
        <ele>481</ele>
        <time>2019-02-06T14:04:46Z</time>
      </trkpt>
      <trkpt lat="43.21496" lon="5.46586">
        <ele>484</ele>
        <time>2019-02-06T14:04:52Z</time>
      </trkpt>
      <trkpt lat="43.21502" lon="5.46585">
        <ele>488</ele>
        <time>2019-02-06T14:04:56Z</time>
      </trkpt>
      <trkpt lat="43.21506" lon="5.46581">
        <ele>493</ele>
        <time>2019-02-06T14:05:02Z</time>
      </trkpt>
      <trkpt lat="43.21511" lon="5.46581">
        <ele>493</ele>
        <time>2019-02-06T14:05:10Z</time>
      </trkpt>
      <trkpt lat="43.21515" lon="5.46584">
        <ele>472</ele>
        <time>2019-02-06T14:05:16Z</time>
      </trkpt>
      <trkpt lat="43.21519" lon="5.46582">
        <ele>486</ele>
        <time>2019-02-06T14:05:24Z</time>
      </trkpt>
      <trkpt lat="43.21525" lon="5.46583">
        <ele>491</ele>
        <time>2019-02-06T14:05:30Z</time>
      </trkpt>
      <trkpt lat="43.21529" lon="5.4658">
        <ele>496</ele>
        <time>2019-02-06T14:05:38Z</time>
      </trkpt>
      <trkpt lat="43.21534" lon="5.46577">
        <ele>498</ele>
        <time>2019-02-06T14:05:50Z</time>
      </trkpt>
      <trkpt lat="43.21537" lon="5.46571">
        <ele>499</ele>
        <time>2019-02-06T14:06:00Z</time>
      </trkpt>
      <trkpt lat="43.21542" lon="5.46568">
        <ele>501</ele>
        <time>2019-02-06T14:06:10Z</time>
      </trkpt>
      <trkpt lat="43.21546" lon="5.46571">
        <ele>503</ele>
        <time>2019-02-06T14:06:20Z</time>
      </trkpt>
      <trkpt lat="43.21551" lon="5.46573">
        <ele>500</ele>
        <time>2019-02-06T14:06:34Z</time>
      </trkpt>
      <trkpt lat="43.21557" lon="5.46574">
        <ele>501</ele>
        <time>2019-02-06T14:06:48Z</time>
      </trkpt>
      <trkpt lat="43.21562" lon="5.46574">
        <ele>505</ele>
        <time>2019-02-06T14:06:56Z</time>
      </trkpt>
      <trkpt lat="43.21567" lon="5.46574">
        <ele>507</ele>
        <time>2019-02-06T14:07:02Z</time>
      </trkpt>
      <trkpt lat="43.2157" lon="5.4658">
        <ele>506</ele>
        <time>2019-02-06T14:07:12Z</time>
      </trkpt>
      <trkpt lat="43.21575" lon="5.46584">
        <ele>510</ele>
        <time>2019-02-06T14:07:30Z</time>
      </trkpt>
      <trkpt lat="43.21579" lon="5.46586">
        <ele>509</ele>
        <time>2019-02-06T14:07:42Z</time>
      </trkpt>
      <trkpt lat="43.21584" lon="5.46585">
        <ele>514</ele>
        <time>2019-02-06T14:07:56Z</time>
      </trkpt>
      <trkpt lat="43.21589" lon="5.46587">
        <ele>515</ele>
        <time>2019-02-06T14:08:10Z</time>
      </trkpt>
      <trkpt lat="43.21594" lon="5.4659">
        <ele>518</ele>
        <time>2019-02-06T14:08:20Z</time>
      </trkpt>
      <trkpt lat="43.21599" lon="5.46589">
        <ele>520</ele>
        <time>2019-02-06T14:08:30Z</time>
      </trkpt>
      <trkpt lat="43.21603" lon="5.46585">
        <ele>521</ele>
        <time>2019-02-06T14:08:38Z</time>
      </trkpt>
      <trkpt lat="43.21607" lon="5.46581">
        <ele>522</ele>
        <time>2019-02-06T14:08:48Z</time>
      </trkpt>
      <trkpt lat="43.21612" lon="5.4658">
        <ele>412</ele>
        <time>2019-02-06T14:08:58Z</time>
      </trkpt>
      <trkpt lat="43.21617" lon="5.46575">
        <ele>501</ele>
        <time>2019-02-06T14:09:04Z</time>
      </trkpt>
      <trkpt lat="43.21621" lon="5.46573">
        <ele>513</ele>
        <time>2019-02-06T14:09:10Z</time>
      </trkpt>
      <trkpt lat="43.21626" lon="5.46572">
        <ele>520</ele>
        <time>2019-02-06T14:09:18Z</time>
      </trkpt>
      <trkpt lat="43.21631" lon="5.46574">
        <ele>525</ele>
        <time>2019-02-06T14:09:28Z</time>
      </trkpt>
      <trkpt lat="43.21636" lon="5.46571">
        <ele>528</ele>
        <time>2019-02-06T14:09:34Z</time>
      </trkpt>
      <trkpt lat="43.21641" lon="5.46565">
        <ele>530</ele>
        <time>2019-02-06T14:09:42Z</time>
      </trkpt>
      <trkpt lat="43.21644" lon="5.46561">
        <ele>529</ele>
        <time>2019-02-06T14:09:52Z</time>
      </trkpt>
      <trkpt lat="43.21649" lon="5.46563">
        <ele>526</ele>
        <time>2019-02-06T14:10:00Z</time>
      </trkpt>
      <trkpt lat="43.21653" lon="5.4656">
        <ele>526</ele>
        <time>2019-02-06T14:10:12Z</time>
      </trkpt>
      <trkpt lat="43.21656" lon="5.46554">
        <ele>528</ele>
        <time>2019-02-06T14:10:20Z</time>
      </trkpt>
      <trkpt lat="43.2166" lon="5.46551">
        <ele>526</ele>
        <time>2019-02-06T14:10:30Z</time>
      </trkpt>
      <trkpt lat="43.21665" lon="5.4655">
        <ele>527</ele>
        <time>2019-02-06T14:10:38Z</time>
      </trkpt>
      <trkpt lat="43.21669" lon="5.46549">
        <ele>529</ele>
        <time>2019-02-06T14:10:44Z</time>
      </trkpt>
      <trkpt lat="43.21674" lon="5.46546">
        <ele>530</ele>
        <time>2019-02-06T14:10:52Z</time>
      </trkpt>
      <trkpt lat="43.21677" lon="5.46541">
        <ele>532</ele>
        <time>2019-02-06T14:11:00Z</time>
      </trkpt>
      <trkpt lat="43.2168" lon="5.46535">
        <ele>534</ele>
        <time>2019-02-06T14:11:06Z</time>
      </trkpt>
      <trkpt lat="43.21684" lon="5.46532">
        <ele>533</ele>
        <time>2019-02-06T14:11:18Z</time>
      </trkpt>
      <trkpt lat="43.21688" lon="5.46532">
        <ele>536</ele>
        <time>2019-02-06T14:11:28Z</time>
      </trkpt>
      <trkpt lat="43.2169" lon="5.46526">
        <ele>540</ele>
        <time>2019-02-06T14:11:58Z</time>
      </trkpt>
      <trkpt lat="43.21694" lon="5.46521">
        <ele>543</ele>
        <time>2019-02-06T14:12:28Z</time>
      </trkpt>
      <trkpt lat="43.21697" lon="5.46525">
        <ele>541</ele>
        <time>2019-02-06T14:12:38Z</time>
      </trkpt>
      <trkpt lat="43.21703" lon="5.46525">
        <ele>541</ele>
        <time>2019-02-06T14:12:46Z</time>
      </trkpt>
      <trkpt lat="43.21707" lon="5.46525">
        <ele>542</ele>
        <time>2019-02-06T14:12:54Z</time>
      </trkpt>
      <trkpt lat="43.21712" lon="5.46523">
        <ele>542</ele>
        <time>2019-02-06T14:13:04Z</time>
      </trkpt>
      <trkpt lat="43.21716" lon="5.4652">
        <ele>545</ele>
        <time>2019-02-06T14:13:10Z</time>
      </trkpt>
      <trkpt lat="43.21721" lon="5.4652">
        <ele>544</ele>
        <time>2019-02-06T14:13:20Z</time>
      </trkpt>
      <trkpt lat="43.21723" lon="5.46514">
        <ele>543</ele>
        <time>2019-02-06T14:14:38Z</time>
      </trkpt>
      <trkpt lat="43.21727" lon="5.46511">
        <ele>542</ele>
        <time>2019-02-06T14:19:46Z</time>
      </trkpt>
      <trkpt lat="43.21733" lon="5.46509">
        <ele>544</ele>
        <time>2019-02-06T14:19:54Z</time>
      </trkpt>
      <trkpt lat="43.21737" lon="5.46508">
        <ele>544</ele>
        <time>2019-02-06T14:20:00Z</time>
      </trkpt>
      <trkpt lat="43.21742" lon="5.46509">
        <ele>536</ele>
        <time>2019-02-06T14:20:24Z</time>
      </trkpt>
      <trkpt lat="43.21747" lon="5.46507">
        <ele>543</ele>
        <time>2019-02-06T14:20:26Z</time>
      </trkpt>
      <trkpt lat="43.21752" lon="5.46504">
        <ele>544</ele>
        <time>2019-02-06T14:20:30Z</time>
      </trkpt>
      <trkpt lat="43.21758" lon="5.46501">
        <ele>545</ele>
        <time>2019-02-06T14:20:38Z</time>
      </trkpt>
      <trkpt lat="43.21765" lon="5.46497">
        <ele>551</ele>
        <time>2019-02-06T14:20:42Z</time>
      </trkpt>
      <trkpt lat="43.2177" lon="5.46493">
        <ele>552</ele>
        <time>2019-02-06T14:20:46Z</time>
      </trkpt>
      <trkpt lat="43.21775" lon="5.4649">
        <ele>553</ele>
        <time>2019-02-06T14:20:52Z</time>
      </trkpt>
      <trkpt lat="43.21779" lon="5.46492">
        <ele>549</ele>
        <time>2019-02-06T14:21:00Z</time>
      </trkpt>
      <trkpt lat="43.21784" lon="5.46489">
        <ele>543</ele>
        <time>2019-02-06T14:21:12Z</time>
      </trkpt>
      <trkpt lat="43.21787" lon="5.46483">
        <ele>540</ele>
        <time>2019-02-06T14:21:24Z</time>
      </trkpt>
      <trkpt lat="43.21792" lon="5.46478">
        <ele>542</ele>
        <time>2019-02-06T14:21:30Z</time>
      </trkpt>
      <trkpt lat="43.21795" lon="5.46473">
        <ele>541</ele>
        <time>2019-02-06T14:21:40Z</time>
      </trkpt>
      <trkpt lat="43.21799" lon="5.46468">
        <ele>544</ele>
        <time>2019-02-06T14:21:52Z</time>
      </trkpt>
      <trkpt lat="43.21803" lon="5.46467">
        <ele>542</ele>
        <time>2019-02-06T14:22:00Z</time>
      </trkpt>
      <trkpt lat="43.21809" lon="5.46467">
        <ele>542</ele>
        <time>2019-02-06T14:22:08Z</time>
      </trkpt>
      <trkpt lat="43.21815" lon="5.46467">
        <ele>546</ele>
        <time>2019-02-06T14:22:12Z</time>
      </trkpt>
      <trkpt lat="43.21822" lon="5.46467">
        <ele>546</ele>
        <time>2019-02-06T14:22:18Z</time>
      </trkpt>
      <trkpt lat="43.21828" lon="5.46467">
        <ele>547</ele>
        <time>2019-02-06T14:22:24Z</time>
      </trkpt>
      <trkpt lat="43.21833" lon="5.46466">
        <ele>547</ele>
        <time>2019-02-06T14:22:28Z</time>
      </trkpt>
      <trkpt lat="43.21839" lon="5.46465">
        <ele>550</ele>
        <time>2019-02-06T14:22:32Z</time>
      </trkpt>
      <trkpt lat="43.21845" lon="5.46465">
        <ele>549</ele>
        <time>2019-02-06T14:22:36Z</time>
      </trkpt>
      <trkpt lat="43.2185" lon="5.46466">
        <ele>552</ele>
        <time>2019-02-06T14:22:40Z</time>
      </trkpt>
      <trkpt lat="43.21855" lon="5.46466">
        <ele>555</ele>
        <time>2019-02-06T14:22:44Z</time>
      </trkpt>
      <trkpt lat="43.2186" lon="5.46466">
        <ele>555</ele>
        <time>2019-02-06T14:22:50Z</time>
      </trkpt>
      <trkpt lat="43.21865" lon="5.46467">
        <ele>556</ele>
        <time>2019-02-06T14:22:56Z</time>
      </trkpt>
      <trkpt lat="43.21869" lon="5.46466">
        <ele>554</ele>
        <time>2019-02-06T14:23:02Z</time>
      </trkpt>
      <trkpt lat="43.21875" lon="5.46467">
        <ele>555</ele>
        <time>2019-02-06T14:23:10Z</time>
      </trkpt>
      <trkpt lat="43.2188" lon="5.4647">
        <ele>553</ele>
        <time>2019-02-06T14:23:16Z</time>
      </trkpt>
      <trkpt lat="43.21886" lon="5.46472">
        <ele>554</ele>
        <time>2019-02-06T14:23:22Z</time>
      </trkpt>
      <trkpt lat="43.21891" lon="5.46474">
        <ele>555</ele>
        <time>2019-02-06T14:23:30Z</time>
      </trkpt>
      <trkpt lat="43.21896" lon="5.46475">
        <ele>554</ele>
        <time>2019-02-06T14:23:36Z</time>
      </trkpt>
      <trkpt lat="43.219" lon="5.46477">
        <ele>554</ele>
        <time>2019-02-06T14:23:42Z</time>
      </trkpt>
      <trkpt lat="43.21905" lon="5.46479">
        <ele>554</ele>
        <time>2019-02-06T14:23:48Z</time>
      </trkpt>
      <trkpt lat="43.21911" lon="5.4648">
        <ele>553</ele>
        <time>2019-02-06T14:23:58Z</time>
      </trkpt>
      <trkpt lat="43.21916" lon="5.46481">
        <ele>553</ele>
        <time>2019-02-06T14:24:04Z</time>
      </trkpt>
      <trkpt lat="43.21921" lon="5.46481">
        <ele>555</ele>
        <time>2019-02-06T14:24:08Z</time>
      </trkpt>
      <trkpt lat="43.21926" lon="5.46481">
        <ele>557</ele>
        <time>2019-02-06T14:24:12Z</time>
      </trkpt>
      <trkpt lat="43.21931" lon="5.46482">
        <ele>555</ele>
        <time>2019-02-06T14:24:20Z</time>
      </trkpt>
      <trkpt lat="43.21937" lon="5.46482">
        <ele>561</ele>
        <time>2019-02-06T14:24:26Z</time>
      </trkpt>
      <trkpt lat="43.21941" lon="5.46482">
        <ele>562</ele>
        <time>2019-02-06T14:24:30Z</time>
      </trkpt>
      <trkpt lat="43.21947" lon="5.46483">
        <ele>561</ele>
        <time>2019-02-06T14:24:36Z</time>
      </trkpt>
      <trkpt lat="43.21953" lon="5.46485">
        <ele>561</ele>
        <time>2019-02-06T14:24:42Z</time>
      </trkpt>
      <trkpt lat="43.21958" lon="5.46488">
        <ele>560</ele>
        <time>2019-02-06T14:24:46Z</time>
      </trkpt>
      <trkpt lat="43.21963" lon="5.46488">
        <ele>561</ele>
        <time>2019-02-06T14:24:52Z</time>
      </trkpt>
      <trkpt lat="43.21967" lon="5.46487">
        <ele>564</ele>
        <time>2019-02-06T14:25:00Z</time>
      </trkpt>
      <trkpt lat="43.21972" lon="5.46487">
        <ele>566</ele>
        <time>2019-02-06T14:25:06Z</time>
      </trkpt>
      <trkpt lat="43.21977" lon="5.46487">
        <ele>567</ele>
        <time>2019-02-06T14:25:12Z</time>
      </trkpt>
      <trkpt lat="43.21982" lon="5.46487">
        <ele>567</ele>
        <time>2019-02-06T14:25:20Z</time>
      </trkpt>
      <trkpt lat="43.21988" lon="5.46487">
        <ele>567</ele>
        <time>2019-02-06T14:25:28Z</time>
      </trkpt>
      <trkpt lat="43.21993" lon="5.46486">
        <ele>569</ele>
        <time>2019-02-06T14:25:36Z</time>
      </trkpt>
      <trkpt lat="43.21998" lon="5.46486">
        <ele>567</ele>
        <time>2019-02-06T14:25:44Z</time>
      </trkpt>
      <trkpt lat="43.22004" lon="5.46485">
        <ele>569</ele>
        <time>2019-02-06T14:25:50Z</time>
      </trkpt>
      <trkpt lat="43.22011" lon="5.46485">
        <ele>570</ele>
        <time>2019-02-06T14:25:56Z</time>
      </trkpt>
      <trkpt lat="43.22017" lon="5.46483">
        <ele>573</ele>
        <time>2019-02-06T14:26:02Z</time>
      </trkpt>
      <trkpt lat="43.22022" lon="5.46481">
        <ele>575</ele>
        <time>2019-02-06T14:26:08Z</time>
      </trkpt>
      <trkpt lat="43.22026" lon="5.46476">
        <ele>576</ele>
        <time>2019-02-06T14:26:14Z</time>
      </trkpt>
      <trkpt lat="43.22029" lon="5.46472">
        <ele>577</ele>
        <time>2019-02-06T14:26:20Z</time>
      </trkpt>
      <trkpt lat="43.22034" lon="5.46468">
        <ele>575</ele>
        <time>2019-02-06T14:26:26Z</time>
      </trkpt>
      <trkpt lat="43.22038" lon="5.46463">
        <ele>575</ele>
        <time>2019-02-06T14:26:34Z</time>
      </trkpt>
      <trkpt lat="43.22039" lon="5.46456">
        <ele>575</ele>
        <time>2019-02-06T14:26:40Z</time>
      </trkpt>
      <trkpt lat="43.2204" lon="5.4645">
        <ele>576</ele>
        <time>2019-02-06T14:26:52Z</time>
      </trkpt>
      <trkpt lat="43.22042" lon="5.46457">
        <ele>570</ele>
        <time>2019-02-06T14:27:26Z</time>
      </trkpt>
      <trkpt lat="43.22042" lon="5.46464">
        <ele>569</ele>
        <time>2019-02-06T14:27:32Z</time>
      </trkpt>
      <trkpt lat="43.22041" lon="5.4647">
        <ele>569</ele>
        <time>2019-02-06T14:27:38Z</time>
      </trkpt>
      <trkpt lat="43.22042" lon="5.46477">
        <ele>568</ele>
        <time>2019-02-06T14:28:10Z</time>
      </trkpt>
      <trkpt lat="43.22042" lon="5.46484">
        <ele>566</ele>
        <time>2019-02-06T14:28:18Z</time>
      </trkpt>
      <trkpt lat="43.22041" lon="5.46491">
        <ele>563</ele>
        <time>2019-02-06T14:28:58Z</time>
      </trkpt>
      <trkpt lat="43.2204" lon="5.46484">
        <ele>574</ele>
        <time>2019-02-06T14:31:10Z</time>
      </trkpt>
      <trkpt lat="43.2204" lon="5.46476">
        <ele>576</ele>
        <time>2019-02-06T14:31:18Z</time>
      </trkpt>
      <trkpt lat="43.22041" lon="5.4647">
        <ele>578</ele>
        <time>2019-02-06T14:31:28Z</time>
      </trkpt>
      <trkpt lat="43.22042" lon="5.46476">
        <ele>576</ele>
        <time>2019-02-06T14:33:16Z</time>
      </trkpt>
      <trkpt lat="43.22041" lon="5.46482">
        <ele>574</ele>
        <time>2019-02-06T14:33:38Z</time>
      </trkpt>
      <trkpt lat="43.22042" lon="5.46488">
        <ele>571</ele>
        <time>2019-02-06T14:34:08Z</time>
      </trkpt>
      <trkpt lat="43.22041" lon="5.46495">
        <ele>569</ele>
        <time>2019-02-06T14:34:16Z</time>
      </trkpt>
      <trkpt lat="43.22042" lon="5.46501">
        <ele>566</ele>
        <time>2019-02-06T14:34:24Z</time>
      </trkpt>
      <trkpt lat="43.22044" lon="5.46508">
        <ele>563</ele>
        <time>2019-02-06T14:34:32Z</time>
      </trkpt>
      <trkpt lat="43.22045" lon="5.46515">
        <ele>563</ele>
        <time>2019-02-06T14:34:40Z</time>
      </trkpt>
      <trkpt lat="43.22044" lon="5.46522">
        <ele>562</ele>
        <time>2019-02-06T14:34:48Z</time>
      </trkpt>
      <trkpt lat="43.22044" lon="5.4653">
        <ele>561</ele>
        <time>2019-02-06T14:34:54Z</time>
      </trkpt>
      <trkpt lat="43.22044" lon="5.46536">
        <ele>562</ele>
        <time>2019-02-06T14:34:58Z</time>
      </trkpt>
      <trkpt lat="43.22044" lon="5.46543">
        <ele>561</ele>
        <time>2019-02-06T14:35:04Z</time>
      </trkpt>
      <trkpt lat="43.22046" lon="5.46551">
        <ele>561</ele>
        <time>2019-02-06T14:35:10Z</time>
      </trkpt>
      <trkpt lat="43.22048" lon="5.46559">
        <ele>561</ele>
        <time>2019-02-06T14:35:16Z</time>
      </trkpt>
      <trkpt lat="43.22048" lon="5.46566">
        <ele>562</ele>
        <time>2019-02-06T14:35:20Z</time>
      </trkpt>
      <trkpt lat="43.22048" lon="5.46573">
        <ele>561</ele>
        <time>2019-02-06T14:35:26Z</time>
      </trkpt>
      <trkpt lat="43.22047" lon="5.46581">
        <ele>559</ele>
        <time>2019-02-06T14:35:32Z</time>
      </trkpt>
      <trkpt lat="43.22047" lon="5.46589">
        <ele>558</ele>
        <time>2019-02-06T14:35:38Z</time>
      </trkpt>
      <trkpt lat="43.22047" lon="5.46597">
        <ele>558</ele>
        <time>2019-02-06T14:35:44Z</time>
      </trkpt>
      <trkpt lat="43.22048" lon="5.46603">
        <ele>559</ele>
        <time>2019-02-06T14:35:50Z</time>
      </trkpt>
      <trkpt lat="43.2205" lon="5.46612">
        <ele>558</ele>
        <time>2019-02-06T14:35:56Z</time>
      </trkpt>
      <trkpt lat="43.22051" lon="5.4662">
        <ele>560</ele>
        <time>2019-02-06T14:36:02Z</time>
      </trkpt>
      <trkpt lat="43.22052" lon="5.46627">
        <ele>562</ele>
        <time>2019-02-06T14:36:08Z</time>
      </trkpt>
      <trkpt lat="43.22053" lon="5.46634">
        <ele>562</ele>
        <time>2019-02-06T14:36:14Z</time>
      </trkpt>
      <trkpt lat="43.22053" lon="5.46642">
        <ele>562</ele>
        <time>2019-02-06T14:36:20Z</time>
      </trkpt>
      <trkpt lat="43.22053" lon="5.46648">
        <ele>562</ele>
        <time>2019-02-06T14:36:26Z</time>
      </trkpt>
      <trkpt lat="43.22053" lon="5.46655">
        <ele>561</ele>
        <time>2019-02-06T14:36:32Z</time>
      </trkpt>
      <trkpt lat="43.22053" lon="5.46663">
        <ele>561</ele>
        <time>2019-02-06T14:36:38Z</time>
      </trkpt>
      <trkpt lat="43.22052" lon="5.46671">
        <ele>563</ele>
        <time>2019-02-06T14:36:44Z</time>
      </trkpt>
      <trkpt lat="43.22052" lon="5.4668">
        <ele>562</ele>
        <time>2019-02-06T14:36:50Z</time>
      </trkpt>
      <trkpt lat="43.22051" lon="5.46687">
        <ele>562</ele>
        <time>2019-02-06T14:36:56Z</time>
      </trkpt>
      <trkpt lat="43.22051" lon="5.46695">
        <ele>563</ele>
        <time>2019-02-06T14:37:02Z</time>
      </trkpt>
      <trkpt lat="43.22049" lon="5.46703">
        <ele>561</ele>
        <time>2019-02-06T14:37:08Z</time>
      </trkpt>
      <trkpt lat="43.22048" lon="5.4671">
        <ele>563</ele>
        <time>2019-02-06T14:37:14Z</time>
      </trkpt>
      <trkpt lat="43.22047" lon="5.46717">
        <ele>562</ele>
        <time>2019-02-06T14:37:20Z</time>
      </trkpt>
      <trkpt lat="43.22045" lon="5.46722">
        <ele>561</ele>
        <time>2019-02-06T14:37:26Z</time>
      </trkpt>
      <trkpt lat="43.22042" lon="5.46729">
        <ele>559</ele>
        <time>2019-02-06T14:37:32Z</time>
      </trkpt>
      <trkpt lat="43.22045" lon="5.46736">
        <ele>559</ele>
        <time>2019-02-06T14:37:40Z</time>
      </trkpt>
      <trkpt lat="43.22049" lon="5.46743">
        <ele>559</ele>
        <time>2019-02-06T14:37:46Z</time>
      </trkpt>
      <trkpt lat="43.22053" lon="5.46749">
        <ele>557</ele>
        <time>2019-02-06T14:37:52Z</time>
      </trkpt>
      <trkpt lat="43.22057" lon="5.46757">
        <ele>558</ele>
        <time>2019-02-06T14:37:58Z</time>
      </trkpt>
      <trkpt lat="43.22061" lon="5.46764">
        <ele>557</ele>
        <time>2019-02-06T14:38:04Z</time>
      </trkpt>
      <trkpt lat="43.22064" lon="5.46769">
        <ele>556</ele>
        <time>2019-02-06T14:38:08Z</time>
      </trkpt>
      <trkpt lat="43.22067" lon="5.46775">
        <ele>556</ele>
        <time>2019-02-06T14:38:14Z</time>
      </trkpt>
      <trkpt lat="43.2207" lon="5.46781">
        <ele>556</ele>
        <time>2019-02-06T14:38:20Z</time>
      </trkpt>
      <trkpt lat="43.22072" lon="5.46788">
        <ele>555</ele>
        <time>2019-02-06T14:38:26Z</time>
      </trkpt>
      <trkpt lat="43.22075" lon="5.46795">
        <ele>554</ele>
        <time>2019-02-06T14:38:32Z</time>
      </trkpt>
      <trkpt lat="43.22076" lon="5.46802">
        <ele>552</ele>
        <time>2019-02-06T14:38:38Z</time>
      </trkpt>
      <trkpt lat="43.22078" lon="5.46809">
        <ele>551</ele>
        <time>2019-02-06T14:38:44Z</time>
      </trkpt>
      <trkpt lat="43.22079" lon="5.46816">
        <ele>551</ele>
        <time>2019-02-06T14:38:50Z</time>
      </trkpt>
      <trkpt lat="43.2208" lon="5.46823">
        <ele>550</ele>
        <time>2019-02-06T14:38:56Z</time>
      </trkpt>
      <trkpt lat="43.22082" lon="5.4683">
        <ele>547</ele>
        <time>2019-02-06T14:39:02Z</time>
      </trkpt>
      <trkpt lat="43.22083" lon="5.46838">
        <ele>545</ele>
        <time>2019-02-06T14:39:08Z</time>
      </trkpt>
      <trkpt lat="43.22084" lon="5.46844">
        <ele>545</ele>
        <time>2019-02-06T14:39:14Z</time>
      </trkpt>
      <trkpt lat="43.22086" lon="5.4685">
        <ele>542</ele>
        <time>2019-02-06T14:39:20Z</time>
      </trkpt>
      <trkpt lat="43.22087" lon="5.46858">
        <ele>540</ele>
        <time>2019-02-06T14:39:28Z</time>
      </trkpt>
      <trkpt lat="43.22088" lon="5.46866">
        <ele>540</ele>
        <time>2019-02-06T14:39:34Z</time>
      </trkpt>
      <trkpt lat="43.22089" lon="5.46873">
        <ele>539</ele>
        <time>2019-02-06T14:39:40Z</time>
      </trkpt>
      <trkpt lat="43.22091" lon="5.4688">
        <ele>539</ele>
        <time>2019-02-06T14:39:46Z</time>
      </trkpt>
      <trkpt lat="43.22093" lon="5.46887">
        <ele>537</ele>
        <time>2019-02-06T14:39:54Z</time>
      </trkpt>
      <trkpt lat="43.22095" lon="5.46894">
        <ele>535</ele>
        <time>2019-02-06T14:40:02Z</time>
      </trkpt>
      <trkpt lat="43.22096" lon="5.46901">
        <ele>534</ele>
        <time>2019-02-06T14:40:08Z</time>
      </trkpt>
      <trkpt lat="43.22097" lon="5.46909">
        <ele>533</ele>
        <time>2019-02-06T14:40:16Z</time>
      </trkpt>
      <trkpt lat="43.22098" lon="5.46916">
        <ele>532</ele>
        <time>2019-02-06T14:40:22Z</time>
      </trkpt>
      <trkpt lat="43.221" lon="5.46923">
        <ele>532</ele>
        <time>2019-02-06T14:40:30Z</time>
      </trkpt>
      <trkpt lat="43.22102" lon="5.46929">
        <ele>531</ele>
        <time>2019-02-06T14:40:36Z</time>
      </trkpt>
      <trkpt lat="43.22103" lon="5.46936">
        <ele>536</ele>
        <time>2019-02-06T14:40:44Z</time>
      </trkpt>
      <trkpt lat="43.22107" lon="5.4694">
        <ele>539</ele>
        <time>2019-02-06T14:40:52Z</time>
      </trkpt>
      <trkpt lat="43.22109" lon="5.46948">
        <ele>539</ele>
        <time>2019-02-06T14:41:00Z</time>
      </trkpt>
      <trkpt lat="43.22112" lon="5.46954">
        <ele>540</ele>
        <time>2019-02-06T14:41:06Z</time>
      </trkpt>
      <trkpt lat="43.22114" lon="5.46961">
        <ele>540</ele>
        <time>2019-02-06T14:41:14Z</time>
      </trkpt>
      <trkpt lat="43.22117" lon="5.46968">
        <ele>540</ele>
        <time>2019-02-06T14:41:22Z</time>
      </trkpt>
      <trkpt lat="43.2212" lon="5.46975">
        <ele>538</ele>
        <time>2019-02-06T14:41:30Z</time>
      </trkpt>
      <trkpt lat="43.22124" lon="5.46981">
        <ele>537</ele>
        <time>2019-02-06T14:41:38Z</time>
      </trkpt>
      <trkpt lat="43.22127" lon="5.46986">
        <ele>537</ele>
        <time>2019-02-06T14:41:44Z</time>
      </trkpt>
      <trkpt lat="43.2213" lon="5.46991">
        <ele>538</ele>
        <time>2019-02-06T14:41:50Z</time>
      </trkpt>
      <trkpt lat="43.22134" lon="5.46996">
        <ele>538</ele>
        <time>2019-02-06T14:41:56Z</time>
      </trkpt>
      <trkpt lat="43.22138" lon="5.47001">
        <ele>536</ele>
        <time>2019-02-06T14:42:02Z</time>
      </trkpt>
      <trkpt lat="43.22141" lon="5.47006">
        <ele>535</ele>
        <time>2019-02-06T14:42:08Z</time>
      </trkpt>
      <trkpt lat="43.22145" lon="5.4701">
        <ele>535</ele>
        <time>2019-02-06T14:42:14Z</time>
      </trkpt>
      <trkpt lat="43.22148" lon="5.47017">
        <ele>534</ele>
        <time>2019-02-06T14:42:20Z</time>
      </trkpt>
      <trkpt lat="43.22152" lon="5.47023">
        <ele>533</ele>
        <time>2019-02-06T14:42:26Z</time>
      </trkpt>
      <trkpt lat="43.22155" lon="5.47028">
        <ele>531</ele>
        <time>2019-02-06T14:42:30Z</time>
      </trkpt>
      <trkpt lat="43.22159" lon="5.47034">
        <ele>531</ele>
        <time>2019-02-06T14:42:36Z</time>
      </trkpt>
      <trkpt lat="43.22163" lon="5.47037">
        <ele>530</ele>
        <time>2019-02-06T14:42:42Z</time>
      </trkpt>
      <trkpt lat="43.22165" lon="5.47043">
        <ele>528</ele>
        <time>2019-02-06T14:44:14Z</time>
      </trkpt>
      <trkpt lat="43.2217" lon="5.47046">
        <ele>525</ele>
        <time>2019-02-06T14:44:22Z</time>
      </trkpt>
      <trkpt lat="43.22176" lon="5.4705">
        <ele>523</ele>
        <time>2019-02-06T14:44:28Z</time>
      </trkpt>
      <trkpt lat="43.2218" lon="5.47054">
        <ele>523</ele>
        <time>2019-02-06T14:44:34Z</time>
      </trkpt>
      <trkpt lat="43.22185" lon="5.47057">
        <ele>524</ele>
        <time>2019-02-06T14:44:40Z</time>
      </trkpt>
      <trkpt lat="43.22191" lon="5.47061">
        <ele>524</ele>
        <time>2019-02-06T14:44:46Z</time>
      </trkpt>
      <trkpt lat="43.22196" lon="5.47064">
        <ele>524</ele>
        <time>2019-02-06T14:44:52Z</time>
      </trkpt>
      <trkpt lat="43.22202" lon="5.47067">
        <ele>524</ele>
        <time>2019-02-06T14:44:58Z</time>
      </trkpt>
      <trkpt lat="43.22207" lon="5.4707">
        <ele>523</ele>
        <time>2019-02-06T14:45:04Z</time>
      </trkpt>
      <trkpt lat="43.22213" lon="5.47072">
        <ele>523</ele>
        <time>2019-02-06T14:45:10Z</time>
      </trkpt>
      <trkpt lat="43.22219" lon="5.47075">
        <ele>522</ele>
        <time>2019-02-06T14:45:16Z</time>
      </trkpt>
      <trkpt lat="43.22223" lon="5.47077">
        <ele>522</ele>
        <time>2019-02-06T14:45:20Z</time>
      </trkpt>
      <trkpt lat="43.22228" lon="5.47078">
        <ele>522</ele>
        <time>2019-02-06T14:45:24Z</time>
      </trkpt>
      <trkpt lat="43.22235" lon="5.4708">
        <ele>523</ele>
        <time>2019-02-06T14:45:30Z</time>
      </trkpt>
      <trkpt lat="43.22239" lon="5.47082">
        <ele>522</ele>
        <time>2019-02-06T14:45:34Z</time>
      </trkpt>
      <trkpt lat="43.22243" lon="5.47083">
        <ele>523</ele>
        <time>2019-02-06T14:45:38Z</time>
      </trkpt>
      <trkpt lat="43.22248" lon="5.47085">
        <ele>523</ele>
        <time>2019-02-06T14:45:42Z</time>
      </trkpt>
      <trkpt lat="43.22252" lon="5.47087">
        <ele>522</ele>
        <time>2019-02-06T14:45:46Z</time>
      </trkpt>
      <trkpt lat="43.22257" lon="5.47089">
        <ele>522</ele>
        <time>2019-02-06T14:45:50Z</time>
      </trkpt>
      <trkpt lat="43.22263" lon="5.47093">
        <ele>522</ele>
        <time>2019-02-06T14:45:56Z</time>
      </trkpt>
      <trkpt lat="43.22269" lon="5.47096">
        <ele>522</ele>
        <time>2019-02-06T14:46:02Z</time>
      </trkpt>
      <trkpt lat="43.22274" lon="5.47099">
        <ele>523</ele>
        <time>2019-02-06T14:46:06Z</time>
      </trkpt>
      <trkpt lat="43.22278" lon="5.47102">
        <ele>523</ele>
        <time>2019-02-06T14:46:10Z</time>
      </trkpt>
      <trkpt lat="43.22282" lon="5.47105">
        <ele>523</ele>
        <time>2019-02-06T14:46:14Z</time>
      </trkpt>
      <trkpt lat="43.22286" lon="5.47108">
        <ele>523</ele>
        <time>2019-02-06T14:46:18Z</time>
      </trkpt>
      <trkpt lat="43.22291" lon="5.47111">
        <ele>523</ele>
        <time>2019-02-06T14:46:22Z</time>
      </trkpt>
      <trkpt lat="43.22295" lon="5.47115">
        <ele>521</ele>
        <time>2019-02-06T14:46:26Z</time>
      </trkpt>
      <trkpt lat="43.22299" lon="5.47119">
        <ele>520</ele>
        <time>2019-02-06T14:46:30Z</time>
      </trkpt>
      <trkpt lat="43.22302" lon="5.47123">
        <ele>520</ele>
        <time>2019-02-06T14:46:34Z</time>
      </trkpt>
      <trkpt lat="43.22305" lon="5.47128">
        <ele>520</ele>
        <time>2019-02-06T14:46:38Z</time>
      </trkpt>
      <trkpt lat="43.22309" lon="5.47133">
        <ele>520</ele>
        <time>2019-02-06T14:46:42Z</time>
      </trkpt>
      <trkpt lat="43.22312" lon="5.47137">
        <ele>520</ele>
        <time>2019-02-06T14:46:46Z</time>
      </trkpt>
      <trkpt lat="43.22316" lon="5.47144">
        <ele>520</ele>
        <time>2019-02-06T14:46:52Z</time>
      </trkpt>
      <trkpt lat="43.2232" lon="5.47148">
        <ele>520</ele>
        <time>2019-02-06T14:46:56Z</time>
      </trkpt>
      <trkpt lat="43.22323" lon="5.47153">
        <ele>518</ele>
        <time>2019-02-06T14:47:00Z</time>
      </trkpt>
      <trkpt lat="43.22327" lon="5.47158">
        <ele>518</ele>
        <time>2019-02-06T14:47:04Z</time>
      </trkpt>
      <trkpt lat="43.22329" lon="5.47163">
        <ele>519</ele>
        <time>2019-02-06T14:47:08Z</time>
      </trkpt>
      <trkpt lat="43.22332" lon="5.47169">
        <ele>518</ele>
        <time>2019-02-06T14:47:12Z</time>
      </trkpt>
      <trkpt lat="43.22334" lon="5.47175">
        <ele>518</ele>
        <time>2019-02-06T14:47:16Z</time>
      </trkpt>
      <trkpt lat="43.22337" lon="5.47181">
        <ele>518</ele>
        <time>2019-02-06T14:47:20Z</time>
      </trkpt>
      <trkpt lat="43.22339" lon="5.47187">
        <ele>518</ele>
        <time>2019-02-06T14:47:24Z</time>
      </trkpt>
      <trkpt lat="43.22342" lon="5.47195">
        <ele>517</ele>
        <time>2019-02-06T14:47:30Z</time>
      </trkpt>
      <trkpt lat="43.22345" lon="5.47203">
        <ele>517</ele>
        <time>2019-02-06T14:47:36Z</time>
      </trkpt>
      <trkpt lat="43.22347" lon="5.47209">
        <ele>517</ele>
        <time>2019-02-06T14:47:40Z</time>
      </trkpt>
      <trkpt lat="43.22349" lon="5.47217">
        <ele>515</ele>
        <time>2019-02-06T14:47:46Z</time>
      </trkpt>
      <trkpt lat="43.2235" lon="5.47223">
        <ele>515</ele>
        <time>2019-02-06T14:47:50Z</time>
      </trkpt>
      <trkpt lat="43.22352" lon="5.47229">
        <ele>516</ele>
        <time>2019-02-06T14:47:54Z</time>
      </trkpt>
      <trkpt lat="43.22353" lon="5.47236">
        <ele>515</ele>
        <time>2019-02-06T14:47:58Z</time>
      </trkpt>
      <trkpt lat="43.22354" lon="5.47242">
        <ele>516</ele>
        <time>2019-02-06T14:48:02Z</time>
      </trkpt>
      <trkpt lat="43.22356" lon="5.47248">
        <ele>517</ele>
        <time>2019-02-06T14:48:06Z</time>
      </trkpt>
      <trkpt lat="43.22358" lon="5.47255">
        <ele>517</ele>
        <time>2019-02-06T14:48:10Z</time>
      </trkpt>
      <trkpt lat="43.22359" lon="5.47262">
        <ele>517</ele>
        <time>2019-02-06T14:48:14Z</time>
      </trkpt>
      <trkpt lat="43.22361" lon="5.4727">
        <ele>518</ele>
        <time>2019-02-06T14:48:20Z</time>
      </trkpt>
      <trkpt lat="43.22364" lon="5.47276">
        <ele>517</ele>
        <time>2019-02-06T14:48:24Z</time>
      </trkpt>
      <trkpt lat="43.22365" lon="5.47283">
        <ele>517</ele>
        <time>2019-02-06T14:48:28Z</time>
      </trkpt>
      <trkpt lat="43.22367" lon="5.47289">
        <ele>517</ele>
        <time>2019-02-06T14:48:32Z</time>
      </trkpt>
      <trkpt lat="43.22369" lon="5.47295">
        <ele>518</ele>
        <time>2019-02-06T14:48:36Z</time>
      </trkpt>
      <trkpt lat="43.2237" lon="5.47301">
        <ele>518</ele>
        <time>2019-02-06T14:48:40Z</time>
      </trkpt>
      <trkpt lat="43.22372" lon="5.47307">
        <ele>519</ele>
        <time>2019-02-06T14:48:44Z</time>
      </trkpt>
      <trkpt lat="43.22374" lon="5.47312">
        <ele>518</ele>
        <time>2019-02-06T14:48:48Z</time>
      </trkpt>
      <trkpt lat="43.22376" lon="5.47318">
        <ele>518</ele>
        <time>2019-02-06T14:48:52Z</time>
      </trkpt>
      <trkpt lat="43.22379" lon="5.47323">
        <ele>518</ele>
        <time>2019-02-06T14:48:56Z</time>
      </trkpt>
      <trkpt lat="43.22381" lon="5.47329">
        <ele>518</ele>
        <time>2019-02-06T14:49:00Z</time>
      </trkpt>
      <trkpt lat="43.22383" lon="5.47335">
        <ele>518</ele>
        <time>2019-02-06T14:49:04Z</time>
      </trkpt>
      <trkpt lat="43.22386" lon="5.47341">
        <ele>519</ele>
        <time>2019-02-06T14:49:08Z</time>
      </trkpt>
      <trkpt lat="43.22388" lon="5.47347">
        <ele>518</ele>
        <time>2019-02-06T14:49:12Z</time>
      </trkpt>
      <trkpt lat="43.22389" lon="5.47353">
        <ele>518</ele>
        <time>2019-02-06T14:49:16Z</time>
      </trkpt>
      <trkpt lat="43.22391" lon="5.47359">
        <ele>518</ele>
        <time>2019-02-06T14:49:20Z</time>
      </trkpt>
      <trkpt lat="43.22393" lon="5.47365">
        <ele>517</ele>
        <time>2019-02-06T14:49:24Z</time>
      </trkpt>
      <trkpt lat="43.22394" lon="5.47374">
        <ele>515</ele>
        <time>2019-02-06T14:49:30Z</time>
      </trkpt>
      <trkpt lat="43.22394" lon="5.47382">
        <ele>513</ele>
        <time>2019-02-06T14:49:36Z</time>
      </trkpt>
      <trkpt lat="43.22394" lon="5.4739">
        <ele>512</ele>
        <time>2019-02-06T14:49:42Z</time>
      </trkpt>
      <trkpt lat="43.22393" lon="5.47399">
        <ele>511</ele>
        <time>2019-02-06T14:49:48Z</time>
      </trkpt>
      <trkpt lat="43.22392" lon="5.47408">
        <ele>507</ele>
        <time>2019-02-06T14:49:54Z</time>
      </trkpt>
      <trkpt lat="43.22391" lon="5.47417">
        <ele>506</ele>
        <time>2019-02-06T14:50:00Z</time>
      </trkpt>
      <trkpt lat="43.2239" lon="5.47426">
        <ele>504</ele>
        <time>2019-02-06T14:50:06Z</time>
      </trkpt>
      <trkpt lat="43.22389" lon="5.47433">
        <ele>503</ele>
        <time>2019-02-06T14:50:12Z</time>
      </trkpt>
      <trkpt lat="43.22386" lon="5.47442">
        <ele>503</ele>
        <time>2019-02-06T14:50:18Z</time>
      </trkpt>
      <trkpt lat="43.22386" lon="5.47448">
        <ele>502</ele>
        <time>2019-02-06T14:50:22Z</time>
      </trkpt>
      <trkpt lat="43.22388" lon="5.47455">
        <ele>503</ele>
        <time>2019-02-06T14:50:28Z</time>
      </trkpt>
      <trkpt lat="43.22392" lon="5.47459">
        <ele>504</ele>
        <time>2019-02-06T14:50:34Z</time>
      </trkpt>
      <trkpt lat="43.22398" lon="5.47464">
        <ele>506</ele>
        <time>2019-02-06T14:50:40Z</time>
      </trkpt>
      <trkpt lat="43.22404" lon="5.47468">
        <ele>506</ele>
        <time>2019-02-06T14:50:46Z</time>
      </trkpt>
      <trkpt lat="43.22409" lon="5.47472">
        <ele>506</ele>
        <time>2019-02-06T14:50:52Z</time>
      </trkpt>
      <trkpt lat="43.22413" lon="5.47479">
        <ele>506</ele>
        <time>2019-02-06T14:50:58Z</time>
      </trkpt>
      <trkpt lat="43.22415" lon="5.47485">
        <ele>505</ele>
        <time>2019-02-06T14:51:18Z</time>
      </trkpt>
      <trkpt lat="43.22414" lon="5.47493">
        <ele>501</ele>
        <time>2019-02-06T14:51:26Z</time>
      </trkpt>
      <trkpt lat="43.22414" lon="5.47501">
        <ele>503</ele>
        <time>2019-02-06T14:51:36Z</time>
      </trkpt>
      <trkpt lat="43.22414" lon="5.47509">
        <ele>502</ele>
        <time>2019-02-06T14:51:44Z</time>
      </trkpt>
      <trkpt lat="43.22415" lon="5.47516">
        <ele>502</ele>
        <time>2019-02-06T14:51:50Z</time>
      </trkpt>
      <trkpt lat="43.22417" lon="5.47523">
        <ele>502</ele>
        <time>2019-02-06T14:51:56Z</time>
      </trkpt>
      <trkpt lat="43.22418" lon="5.4753">
        <ele>503</ele>
        <time>2019-02-06T14:52:02Z</time>
      </trkpt>
      <trkpt lat="43.22419" lon="5.47537">
        <ele>503</ele>
        <time>2019-02-06T14:52:08Z</time>
      </trkpt>
      <trkpt lat="43.22419" lon="5.47545">
        <ele>504</ele>
        <time>2019-02-06T14:52:16Z</time>
      </trkpt>
      <trkpt lat="43.22419" lon="5.47552">
        <ele>502</ele>
        <time>2019-02-06T14:52:22Z</time>
      </trkpt>
      <trkpt lat="43.2242" lon="5.47559">
        <ele>500</ele>
        <time>2019-02-06T14:52:28Z</time>
      </trkpt>
      <trkpt lat="43.22422" lon="5.47565">
        <ele>500</ele>
        <time>2019-02-06T14:52:36Z</time>
      </trkpt>
      <trkpt lat="43.22426" lon="5.47569">
        <ele>501</ele>
        <time>2019-02-06T14:52:42Z</time>
      </trkpt>
      <trkpt lat="43.22431" lon="5.47572">
        <ele>504</ele>
        <time>2019-02-06T14:52:50Z</time>
      </trkpt>
      <trkpt lat="43.22436" lon="5.47573">
        <ele>507</ele>
        <time>2019-02-06T14:52:56Z</time>
      </trkpt>
      <trkpt lat="43.22441" lon="5.47574">
        <ele>509</ele>
        <time>2019-02-06T14:53:04Z</time>
      </trkpt>
      <trkpt lat="43.22445" lon="5.47576">
        <ele>507</ele>
        <time>2019-02-06T14:53:40Z</time>
      </trkpt>
      <trkpt lat="43.22447" lon="5.47582">
        <ele>501</ele>
        <time>2019-02-06T14:53:56Z</time>
      </trkpt>
      <trkpt lat="43.22446" lon="5.4759">
        <ele>500</ele>
        <time>2019-02-06T14:54:02Z</time>
      </trkpt>
      <trkpt lat="43.22444" lon="5.47597">
        <ele>499</ele>
        <time>2019-02-06T14:54:08Z</time>
      </trkpt>
      <trkpt lat="43.22443" lon="5.47605">
        <ele>501</ele>
        <time>2019-02-06T14:54:14Z</time>
      </trkpt>
      <trkpt lat="43.22442" lon="5.47613">
        <ele>503</ele>
        <time>2019-02-06T14:54:20Z</time>
      </trkpt>
      <trkpt lat="43.22443" lon="5.47621">
        <ele>504</ele>
        <time>2019-02-06T14:54:26Z</time>
      </trkpt>
      <trkpt lat="43.22444" lon="5.4763">
        <ele>505</ele>
        <time>2019-02-06T14:54:32Z</time>
      </trkpt>
      <trkpt lat="43.22446" lon="5.47636">
        <ele>505</ele>
        <time>2019-02-06T14:54:36Z</time>
      </trkpt>
      <trkpt lat="43.22448" lon="5.47644">
        <ele>505</ele>
        <time>2019-02-06T14:54:42Z</time>
      </trkpt>
      <trkpt lat="43.22451" lon="5.47651">
        <ele>505</ele>
        <time>2019-02-06T14:54:48Z</time>
      </trkpt>
      <trkpt lat="43.22453" lon="5.4766">
        <ele>506</ele>
        <time>2019-02-06T14:54:54Z</time>
      </trkpt>
      <trkpt lat="43.22455" lon="5.47667">
        <ele>505</ele>
        <time>2019-02-06T14:55:00Z</time>
      </trkpt>
      <trkpt lat="43.22457" lon="5.47675">
        <ele>506</ele>
        <time>2019-02-06T14:55:06Z</time>
      </trkpt>
      <trkpt lat="43.22459" lon="5.47683">
        <ele>506</ele>
        <time>2019-02-06T14:55:12Z</time>
      </trkpt>
      <trkpt lat="43.22461" lon="5.4769">
        <ele>506</ele>
        <time>2019-02-06T14:55:16Z</time>
      </trkpt>
      <trkpt lat="43.22463" lon="5.47696">
        <ele>506</ele>
        <time>2019-02-06T14:55:20Z</time>
      </trkpt>
      <trkpt lat="43.22466" lon="5.47704">
        <ele>507</ele>
        <time>2019-02-06T14:55:26Z</time>
      </trkpt>
      <trkpt lat="43.22468" lon="5.47712">
        <ele>506</ele>
        <time>2019-02-06T14:55:32Z</time>
      </trkpt>
      <trkpt lat="43.2247" lon="5.4772">
        <ele>506</ele>
        <time>2019-02-06T14:55:38Z</time>
      </trkpt>
      <trkpt lat="43.22472" lon="5.47726">
        <ele>505</ele>
        <time>2019-02-06T14:55:42Z</time>
      </trkpt>
      <trkpt lat="43.22474" lon="5.47734">
        <ele>506</ele>
        <time>2019-02-06T14:55:48Z</time>
      </trkpt>
      <trkpt lat="43.22477" lon="5.47742">
        <ele>506</ele>
        <time>2019-02-06T14:55:54Z</time>
      </trkpt>
      <trkpt lat="43.22479" lon="5.4775">
        <ele>506</ele>
        <time>2019-02-06T14:56:00Z</time>
      </trkpt>
      <trkpt lat="43.22481" lon="5.47757">
        <ele>505</ele>
        <time>2019-02-06T14:56:06Z</time>
      </trkpt>
      <trkpt lat="43.22482" lon="5.47763">
        <ele>504</ele>
        <time>2019-02-06T14:56:10Z</time>
      </trkpt>
      <trkpt lat="43.22484" lon="5.4777">
        <ele>504</ele>
        <time>2019-02-06T14:56:14Z</time>
      </trkpt>
      <trkpt lat="43.22486" lon="5.47778">
        <ele>504</ele>
        <time>2019-02-06T14:56:20Z</time>
      </trkpt>
      <trkpt lat="43.22488" lon="5.47787">
        <ele>502</ele>
        <time>2019-02-06T14:56:26Z</time>
      </trkpt>
      <trkpt lat="43.2249" lon="5.47795">
        <ele>501</ele>
        <time>2019-02-06T14:56:32Z</time>
      </trkpt>
      <trkpt lat="43.22493" lon="5.47802">
        <ele>500</ele>
        <time>2019-02-06T14:56:38Z</time>
      </trkpt>
      <trkpt lat="43.22496" lon="5.4781">
        <ele>500</ele>
        <time>2019-02-06T14:56:44Z</time>
      </trkpt>
      <trkpt lat="43.22498" lon="5.47817">
        <ele>499</ele>
        <time>2019-02-06T14:56:50Z</time>
      </trkpt>
      <trkpt lat="43.225" lon="5.47823">
        <ele>498</ele>
        <time>2019-02-06T14:56:54Z</time>
      </trkpt>
      <trkpt lat="43.22503" lon="5.4783">
        <ele>496</ele>
        <time>2019-02-06T14:57:00Z</time>
      </trkpt>
      <trkpt lat="43.22505" lon="5.47837">
        <ele>495</ele>
        <time>2019-02-06T14:57:06Z</time>
      </trkpt>
      <trkpt lat="43.22506" lon="5.47845">
        <ele>494</ele>
        <time>2019-02-06T14:57:12Z</time>
      </trkpt>
      <trkpt lat="43.22507" lon="5.47851">
        <ele>492</ele>
        <time>2019-02-06T14:57:18Z</time>
      </trkpt>
      <trkpt lat="43.22507" lon="5.47859">
        <ele>493</ele>
        <time>2019-02-06T14:57:24Z</time>
      </trkpt>
      <trkpt lat="43.22507" lon="5.47867">
        <ele>490</ele>
        <time>2019-02-06T14:57:32Z</time>
      </trkpt>
      <trkpt lat="43.22508" lon="5.47873">
        <ele>488</ele>
        <time>2019-02-06T14:57:38Z</time>
      </trkpt>
      <trkpt lat="43.22508" lon="5.47879">
        <ele>486</ele>
        <time>2019-02-06T14:57:44Z</time>
      </trkpt>
      <trkpt lat="43.22509" lon="5.47886">
        <ele>486</ele>
        <time>2019-02-06T14:57:50Z</time>
      </trkpt>
      <trkpt lat="43.22508" lon="5.47894">
        <ele>485</ele>
        <time>2019-02-06T14:57:56Z</time>
      </trkpt>
      <trkpt lat="43.22506" lon="5.47901">
        <ele>484</ele>
        <time>2019-02-06T14:58:02Z</time>
      </trkpt>
      <trkpt lat="43.22505" lon="5.47908">
        <ele>483</ele>
        <time>2019-02-06T14:58:08Z</time>
      </trkpt>
      <trkpt lat="43.22503" lon="5.47914">
        <ele>482</ele>
        <time>2019-02-06T14:58:14Z</time>
      </trkpt>
      <trkpt lat="43.22503" lon="5.47921">
        <ele>480</ele>
        <time>2019-02-06T14:58:20Z</time>
      </trkpt>
      <trkpt lat="43.22502" lon="5.47927">
        <ele>479</ele>
        <time>2019-02-06T14:58:26Z</time>
      </trkpt>
      <trkpt lat="43.22501" lon="5.47935">
        <ele>478</ele>
        <time>2019-02-06T14:58:32Z</time>
      </trkpt>
      <trkpt lat="43.22503" lon="5.47941">
        <ele>476</ele>
        <time>2019-02-06T14:58:38Z</time>
      </trkpt>
      <trkpt lat="43.22505" lon="5.47948">
        <ele>475</ele>
        <time>2019-02-06T14:58:44Z</time>
      </trkpt>
      <trkpt lat="43.22508" lon="5.47954">
        <ele>476</ele>
        <time>2019-02-06T14:58:48Z</time>
      </trkpt>
      <trkpt lat="43.22511" lon="5.47961">
        <ele>480</ele>
        <time>2019-02-06T14:58:54Z</time>
      </trkpt>
      <trkpt lat="43.22514" lon="5.47966">
        <ele>485</ele>
        <time>2019-02-06T14:59:00Z</time>
      </trkpt>
      <trkpt lat="43.22515" lon="5.47975">
        <ele>484</ele>
        <time>2019-02-06T14:59:06Z</time>
      </trkpt>
      <trkpt lat="43.22515" lon="5.47984">
        <ele>484</ele>
        <time>2019-02-06T14:59:12Z</time>
      </trkpt>
      <trkpt lat="43.22514" lon="5.47992">
        <ele>482</ele>
        <time>2019-02-06T14:59:18Z</time>
      </trkpt>
      <trkpt lat="43.22514" lon="5.47999">
        <ele>483</ele>
        <time>2019-02-06T14:59:24Z</time>
      </trkpt>
      <trkpt lat="43.22515" lon="5.48006">
        <ele>483</ele>
        <time>2019-02-06T14:59:30Z</time>
      </trkpt>
      <trkpt lat="43.22518" lon="5.48013">
        <ele>483</ele>
        <time>2019-02-06T14:59:36Z</time>
      </trkpt>
      <trkpt lat="43.2252" lon="5.48018">
        <ele>483</ele>
        <time>2019-02-06T14:59:42Z</time>
      </trkpt>
      <trkpt lat="43.22524" lon="5.48023">
        <ele>483</ele>
        <time>2019-02-06T14:59:48Z</time>
      </trkpt>
      <trkpt lat="43.22528" lon="5.4803">
        <ele>485</ele>
        <time>2019-02-06T14:59:54Z</time>
      </trkpt>
      <trkpt lat="43.22532" lon="5.48036">
        <ele>484</ele>
        <time>2019-02-06T15:00:00Z</time>
      </trkpt>
      <trkpt lat="43.22535" lon="5.48044">
        <ele>483</ele>
        <time>2019-02-06T15:00:06Z</time>
      </trkpt>
      <trkpt lat="43.22537" lon="5.48051">
        <ele>482</ele>
        <time>2019-02-06T15:00:12Z</time>
      </trkpt>
      <trkpt lat="43.2254" lon="5.48058">
        <ele>481</ele>
        <time>2019-02-06T15:00:18Z</time>
      </trkpt>
      <trkpt lat="43.22544" lon="5.48065">
        <ele>481</ele>
        <time>2019-02-06T15:00:24Z</time>
      </trkpt>
      <trkpt lat="43.22547" lon="5.48071">
        <ele>484</ele>
        <time>2019-02-06T15:00:30Z</time>
      </trkpt>
      <trkpt lat="43.22551" lon="5.48077">
        <ele>483</ele>
        <time>2019-02-06T15:00:36Z</time>
      </trkpt>
      <trkpt lat="43.22554" lon="5.48081">
        <ele>483</ele>
        <time>2019-02-06T15:00:40Z</time>
      </trkpt>
      <trkpt lat="43.22559" lon="5.48087">
        <ele>482</ele>
        <time>2019-02-06T15:00:46Z</time>
      </trkpt>
      <trkpt lat="43.22562" lon="5.48093">
        <ele>481</ele>
        <time>2019-02-06T15:00:52Z</time>
      </trkpt>
      <trkpt lat="43.22566" lon="5.48097">
        <ele>483</ele>
        <time>2019-02-06T15:00:56Z</time>
      </trkpt>
      <trkpt lat="43.22571" lon="5.48103">
        <ele>483</ele>
        <time>2019-02-06T15:01:02Z</time>
      </trkpt>
      <trkpt lat="43.22574" lon="5.48108">
        <ele>484</ele>
        <time>2019-02-06T15:01:08Z</time>
      </trkpt>
      <trkpt lat="43.22577" lon="5.48114">
        <ele>483</ele>
        <time>2019-02-06T15:01:14Z</time>
      </trkpt>
      <trkpt lat="43.2258" lon="5.48119">
        <ele>482</ele>
        <time>2019-02-06T15:01:20Z</time>
      </trkpt>
      <trkpt lat="43.22583" lon="5.48124">
        <ele>482</ele>
        <time>2019-02-06T15:01:26Z</time>
      </trkpt>
      <trkpt lat="43.22586" lon="5.4813">
        <ele>482</ele>
        <time>2019-02-06T15:01:40Z</time>
      </trkpt>
      <trkpt lat="43.2259" lon="5.48137">
        <ele>480</ele>
        <time>2019-02-06T15:01:48Z</time>
      </trkpt>
      <trkpt lat="43.22593" lon="5.48144">
        <ele>480</ele>
        <time>2019-02-06T15:01:54Z</time>
      </trkpt>
      <trkpt lat="43.22596" lon="5.48151">
        <ele>479</ele>
        <time>2019-02-06T15:02:00Z</time>
      </trkpt>
      <trkpt lat="43.22597" lon="5.48159">
        <ele>478</ele>
        <time>2019-02-06T15:02:06Z</time>
      </trkpt>
      <trkpt lat="43.22598" lon="5.48167">
        <ele>476</ele>
        <time>2019-02-06T15:02:12Z</time>
      </trkpt>
      <trkpt lat="43.22599" lon="5.48176">
        <ele>474</ele>
        <time>2019-02-06T15:02:18Z</time>
      </trkpt>
      <trkpt lat="43.22599" lon="5.48183">
        <ele>473</ele>
        <time>2019-02-06T15:02:22Z</time>
      </trkpt>
      <trkpt lat="43.22599" lon="5.48189">
        <ele>474</ele>
        <time>2019-02-06T15:02:26Z</time>
      </trkpt>
      <trkpt lat="43.22599" lon="5.48195">
        <ele>474</ele>
        <time>2019-02-06T15:02:30Z</time>
      </trkpt>
      <trkpt lat="43.22598" lon="5.48204">
        <ele>473</ele>
        <time>2019-02-06T15:02:38Z</time>
      </trkpt>
      <trkpt lat="43.22597" lon="5.48211">
        <ele>473</ele>
        <time>2019-02-06T15:02:44Z</time>
      </trkpt>
      <trkpt lat="43.22596" lon="5.48218">
        <ele>473</ele>
        <time>2019-02-06T15:02:50Z</time>
      </trkpt>
      <trkpt lat="43.22594" lon="5.48225">
        <ele>473</ele>
        <time>2019-02-06T15:02:56Z</time>
      </trkpt>
      <trkpt lat="43.22593" lon="5.48233">
        <ele>473</ele>
        <time>2019-02-06T15:03:02Z</time>
      </trkpt>
      <trkpt lat="43.22592" lon="5.48241">
        <ele>472</ele>
        <time>2019-02-06T15:03:08Z</time>
      </trkpt>
      <trkpt lat="43.22591" lon="5.48249">
        <ele>471</ele>
        <time>2019-02-06T15:03:14Z</time>
      </trkpt>
      <trkpt lat="43.22591" lon="5.48257">
        <ele>470</ele>
        <time>2019-02-06T15:03:20Z</time>
      </trkpt>
      <trkpt lat="43.22591" lon="5.48263">
        <ele>470</ele>
        <time>2019-02-06T15:03:24Z</time>
      </trkpt>
      <trkpt lat="43.22592" lon="5.48271">
        <ele>471</ele>
        <time>2019-02-06T15:03:30Z</time>
      </trkpt>
      <trkpt lat="43.22594" lon="5.48279">
        <ele>472</ele>
        <time>2019-02-06T15:03:36Z</time>
      </trkpt>
      <trkpt lat="43.22594" lon="5.48288">
        <ele>472</ele>
        <time>2019-02-06T15:03:42Z</time>
      </trkpt>
      <trkpt lat="43.22594" lon="5.48296">
        <ele>470</ele>
        <time>2019-02-06T15:03:48Z</time>
      </trkpt>
      <trkpt lat="43.22597" lon="5.48303">
        <ele>473</ele>
        <time>2019-02-06T15:03:54Z</time>
      </trkpt>
      <trkpt lat="43.226" lon="5.4831">
        <ele>471</ele>
        <time>2019-02-06T15:04:00Z</time>
      </trkpt>
      <trkpt lat="43.22602" lon="5.48317">
        <ele>472</ele>
        <time>2019-02-06T15:04:06Z</time>
      </trkpt>
      <trkpt lat="43.22606" lon="5.48324">
        <ele>473</ele>
        <time>2019-02-06T15:04:12Z</time>
      </trkpt>
      <trkpt lat="43.22609" lon="5.4833">
        <ele>473</ele>
        <time>2019-02-06T15:04:18Z</time>
      </trkpt>
      <trkpt lat="43.22612" lon="5.48337">
        <ele>473</ele>
        <time>2019-02-06T15:04:24Z</time>
      </trkpt>
      <trkpt lat="43.22615" lon="5.48342">
        <ele>471</ele>
        <time>2019-02-06T15:04:30Z</time>
      </trkpt>
      <trkpt lat="43.22619" lon="5.48346">
        <ele>469</ele>
        <time>2019-02-06T15:04:36Z</time>
      </trkpt>
      <trkpt lat="43.22623" lon="5.48351">
        <ele>471</ele>
        <time>2019-02-06T15:04:42Z</time>
      </trkpt>
      <trkpt lat="43.22627" lon="5.48358">
        <ele>472</ele>
        <time>2019-02-06T15:04:50Z</time>
      </trkpt>
      <trkpt lat="43.2263" lon="5.48365">
        <ele>473</ele>
        <time>2019-02-06T15:04:56Z</time>
      </trkpt>
      <trkpt lat="43.22634" lon="5.48371">
        <ele>474</ele>
        <time>2019-02-06T15:05:00Z</time>
      </trkpt>
      <trkpt lat="43.22637" lon="5.48376">
        <ele>473</ele>
        <time>2019-02-06T15:05:04Z</time>
      </trkpt>
      <trkpt lat="43.22641" lon="5.48382">
        <ele>472</ele>
        <time>2019-02-06T15:05:10Z</time>
      </trkpt>
      <trkpt lat="43.22645" lon="5.48389">
        <ele>474</ele>
        <time>2019-02-06T15:05:16Z</time>
      </trkpt>
      <trkpt lat="43.22649" lon="5.48396">
        <ele>475</ele>
        <time>2019-02-06T15:05:22Z</time>
      </trkpt>
      <trkpt lat="43.22652" lon="5.48401">
        <ele>475</ele>
        <time>2019-02-06T15:05:26Z</time>
      </trkpt>
      <trkpt lat="43.22655" lon="5.48408">
        <ele>476</ele>
        <time>2019-02-06T15:05:32Z</time>
      </trkpt>
      <trkpt lat="43.2266" lon="5.48412">
        <ele>475</ele>
        <time>2019-02-06T15:05:38Z</time>
      </trkpt>
      <trkpt lat="43.22666" lon="5.48417">
        <ele>475</ele>
        <time>2019-02-06T15:05:44Z</time>
      </trkpt>
      <trkpt lat="43.2267" lon="5.48421">
        <ele>474</ele>
        <time>2019-02-06T15:05:50Z</time>
      </trkpt>
      <trkpt lat="43.22674" lon="5.48426">
        <ele>473</ele>
        <time>2019-02-06T15:05:56Z</time>
      </trkpt>
      <trkpt lat="43.22678" lon="5.48432">
        <ele>471</ele>
        <time>2019-02-06T15:06:02Z</time>
      </trkpt>
      <trkpt lat="43.22682" lon="5.48437">
        <ele>471</ele>
        <time>2019-02-06T15:06:08Z</time>
      </trkpt>
      <trkpt lat="43.22687" lon="5.48441">
        <ele>471</ele>
        <time>2019-02-06T15:06:14Z</time>
      </trkpt>
      <trkpt lat="43.2269" lon="5.48447">
        <ele>469</ele>
        <time>2019-02-06T15:06:20Z</time>
      </trkpt>
      <trkpt lat="43.22695" lon="5.48452">
        <ele>468</ele>
        <time>2019-02-06T15:06:26Z</time>
      </trkpt>
      <trkpt lat="43.22698" lon="5.48458">
        <ele>466</ele>
        <time>2019-02-06T15:06:32Z</time>
      </trkpt>
      <trkpt lat="43.22702" lon="5.48464">
        <ele>465</ele>
        <time>2019-02-06T15:06:38Z</time>
      </trkpt>
      <trkpt lat="43.22705" lon="5.48471">
        <ele>463</ele>
        <time>2019-02-06T15:06:44Z</time>
      </trkpt>
      <trkpt lat="43.22709" lon="5.48478">
        <ele>462</ele>
        <time>2019-02-06T15:06:50Z</time>
      </trkpt>
      <trkpt lat="43.22711" lon="5.48486">
        <ele>460</ele>
        <time>2019-02-06T15:06:56Z</time>
      </trkpt>
      <trkpt lat="43.22712" lon="5.48494">
        <ele>457</ele>
        <time>2019-02-06T15:07:02Z</time>
      </trkpt>
      <trkpt lat="43.22713" lon="5.48502">
        <ele>455</ele>
        <time>2019-02-06T15:07:08Z</time>
      </trkpt>
      <trkpt lat="43.22716" lon="5.4851">
        <ele>456</ele>
        <time>2019-02-06T15:07:14Z</time>
      </trkpt>
      <trkpt lat="43.22719" lon="5.48518">
        <ele>456</ele>
        <time>2019-02-06T15:07:20Z</time>
      </trkpt>
      <trkpt lat="43.22721" lon="5.48525">
        <ele>456</ele>
        <time>2019-02-06T15:07:24Z</time>
      </trkpt>
      <trkpt lat="43.22722" lon="5.48533">
        <ele>455</ele>
        <time>2019-02-06T15:07:30Z</time>
      </trkpt>
      <trkpt lat="43.22723" lon="5.48541">
        <ele>452</ele>
        <time>2019-02-06T15:07:36Z</time>
      </trkpt>
      <trkpt lat="43.22724" lon="5.48547">
        <ele>451</ele>
        <time>2019-02-06T15:07:40Z</time>
      </trkpt>
      <trkpt lat="43.22725" lon="5.48554">
        <ele>449</ele>
        <time>2019-02-06T15:07:44Z</time>
      </trkpt>
      <trkpt lat="43.22726" lon="5.4856">
        <ele>447</ele>
        <time>2019-02-06T15:07:48Z</time>
      </trkpt>
      <trkpt lat="43.22727" lon="5.48567">
        <ele>446</ele>
        <time>2019-02-06T15:07:52Z</time>
      </trkpt>
      <trkpt lat="43.22729" lon="5.48573">
        <ele>446</ele>
        <time>2019-02-06T15:07:56Z</time>
      </trkpt>
      <trkpt lat="43.22731" lon="5.48579">
        <ele>446</ele>
        <time>2019-02-06T15:08:00Z</time>
      </trkpt>
      <trkpt lat="43.22733" lon="5.48585">
        <ele>446</ele>
        <time>2019-02-06T15:08:04Z</time>
      </trkpt>
      <trkpt lat="43.22736" lon="5.48591">
        <ele>446</ele>
        <time>2019-02-06T15:08:08Z</time>
      </trkpt>
      <trkpt lat="43.22739" lon="5.48596">
        <ele>448</ele>
        <time>2019-02-06T15:08:12Z</time>
      </trkpt>
      <trkpt lat="43.22741" lon="5.48601">
        <ele>448</ele>
        <time>2019-02-06T15:08:16Z</time>
      </trkpt>
      <trkpt lat="43.22744" lon="5.48607">
        <ele>449</ele>
        <time>2019-02-06T15:08:20Z</time>
      </trkpt>
      <trkpt lat="43.22747" lon="5.48612">
        <ele>451</ele>
        <time>2019-02-06T15:08:24Z</time>
      </trkpt>
      <trkpt lat="43.2275" lon="5.4862">
        <ele>451</ele>
        <time>2019-02-06T15:08:30Z</time>
      </trkpt>
      <trkpt lat="43.22752" lon="5.48626">
        <ele>451</ele>
        <time>2019-02-06T15:08:34Z</time>
      </trkpt>
      <trkpt lat="43.22754" lon="5.48634">
        <ele>449</ele>
        <time>2019-02-06T15:08:40Z</time>
      </trkpt>
      <trkpt lat="43.22756" lon="5.48642">
        <ele>448</ele>
        <time>2019-02-06T15:08:46Z</time>
      </trkpt>
      <trkpt lat="43.22758" lon="5.48648">
        <ele>447</ele>
        <time>2019-02-06T15:08:50Z</time>
      </trkpt>
      <trkpt lat="43.2276" lon="5.48655">
        <ele>443</ele>
        <time>2019-02-06T15:08:56Z</time>
      </trkpt>
      <trkpt lat="43.22762" lon="5.48661">
        <ele>442</ele>
        <time>2019-02-06T15:09:00Z</time>
      </trkpt>
      <trkpt lat="43.22763" lon="5.4867">
        <ele>441</ele>
        <time>2019-02-06T15:09:06Z</time>
      </trkpt>
      <trkpt lat="43.22764" lon="5.48678">
        <ele>441</ele>
        <time>2019-02-06T15:09:12Z</time>
      </trkpt>
      <trkpt lat="43.22764" lon="5.48685">
        <ele>440</ele>
        <time>2019-02-06T15:09:16Z</time>
      </trkpt>
      <trkpt lat="43.22765" lon="5.48691">
        <ele>440</ele>
        <time>2019-02-06T15:09:20Z</time>
      </trkpt>
      <trkpt lat="43.22766" lon="5.48698">
        <ele>441</ele>
        <time>2019-02-06T15:09:24Z</time>
      </trkpt>
      <trkpt lat="43.22767" lon="5.48704">
        <ele>440</ele>
        <time>2019-02-06T15:09:28Z</time>
      </trkpt>
      <trkpt lat="43.22769" lon="5.48711">
        <ele>440</ele>
        <time>2019-02-06T15:09:32Z</time>
      </trkpt>
      <trkpt lat="43.22769" lon="5.48717">
        <ele>439</ele>
        <time>2019-02-06T15:09:36Z</time>
      </trkpt>
      <trkpt lat="43.22771" lon="5.48725">
        <ele>437</ele>
        <time>2019-02-06T15:09:42Z</time>
      </trkpt>
      <trkpt lat="43.22773" lon="5.48733">
        <ele>438</ele>
        <time>2019-02-06T15:09:48Z</time>
      </trkpt>
      <trkpt lat="43.22775" lon="5.48741">
        <ele>436</ele>
        <time>2019-02-06T15:09:54Z</time>
      </trkpt>
      <trkpt lat="43.22776" lon="5.48749">
        <ele>433</ele>
        <time>2019-02-06T15:10:00Z</time>
      </trkpt>
      <trkpt lat="43.22777" lon="5.48755">
        <ele>433</ele>
        <time>2019-02-06T15:10:04Z</time>
      </trkpt>
      <trkpt lat="43.22778" lon="5.48761">
        <ele>433</ele>
        <time>2019-02-06T15:10:08Z</time>
      </trkpt>
      <trkpt lat="43.2278" lon="5.4877">
        <ele>434</ele>
        <time>2019-02-06T15:10:14Z</time>
      </trkpt>
      <trkpt lat="43.22782" lon="5.48778">
        <ele>433</ele>
        <time>2019-02-06T15:10:20Z</time>
      </trkpt>
      <trkpt lat="43.22782" lon="5.48787">
        <ele>430</ele>
        <time>2019-02-06T15:10:26Z</time>
      </trkpt>
      <trkpt lat="43.22782" lon="5.48795">
        <ele>428</ele>
        <time>2019-02-06T15:10:32Z</time>
      </trkpt>
      <trkpt lat="43.22784" lon="5.48804">
        <ele>428</ele>
        <time>2019-02-06T15:10:38Z</time>
      </trkpt>
      <trkpt lat="43.22785" lon="5.4881">
        <ele>428</ele>
        <time>2019-02-06T15:10:42Z</time>
      </trkpt>
      <trkpt lat="43.22786" lon="5.48817">
        <ele>429</ele>
        <time>2019-02-06T15:10:46Z</time>
      </trkpt>
      <trkpt lat="43.22787" lon="5.48823">
        <ele>427</ele>
        <time>2019-02-06T15:10:52Z</time>
      </trkpt>
      <trkpt lat="43.22789" lon="5.48831">
        <ele>426</ele>
        <time>2019-02-06T15:10:58Z</time>
      </trkpt>
      <trkpt lat="43.2279" lon="5.48838">
        <ele>424</ele>
        <time>2019-02-06T15:11:02Z</time>
      </trkpt>
      <trkpt lat="43.22791" lon="5.48844">
        <ele>424</ele>
        <time>2019-02-06T15:11:06Z</time>
      </trkpt>
      <trkpt lat="43.22791" lon="5.48851">
        <ele>420</ele>
        <time>2019-02-06T15:11:10Z</time>
      </trkpt>
      <trkpt lat="43.22792" lon="5.48858">
        <ele>421</ele>
        <time>2019-02-06T15:11:14Z</time>
      </trkpt>
      <trkpt lat="43.22791" lon="5.48867">
        <ele>417</ele>
        <time>2019-02-06T15:11:20Z</time>
      </trkpt>
      <trkpt lat="43.22791" lon="5.48874">
        <ele>416</ele>
        <time>2019-02-06T15:11:26Z</time>
      </trkpt>
      <trkpt lat="43.22791" lon="5.48881">
        <ele>416</ele>
        <time>2019-02-06T15:11:32Z</time>
      </trkpt>
      <trkpt lat="43.22792" lon="5.48888">
        <ele>415</ele>
        <time>2019-02-06T15:11:38Z</time>
      </trkpt>
      <trkpt lat="43.22792" lon="5.48896">
        <ele>416</ele>
        <time>2019-02-06T15:11:42Z</time>
      </trkpt>
      <trkpt lat="43.22793" lon="5.48905">
        <ele>419</ele>
        <time>2019-02-06T15:11:46Z</time>
      </trkpt>
      <trkpt lat="43.22795" lon="5.48913">
        <ele>419</ele>
        <time>2019-02-06T15:11:50Z</time>
      </trkpt>
      <trkpt lat="43.22797" lon="5.4892">
        <ele>419</ele>
        <time>2019-02-06T15:11:54Z</time>
      </trkpt>
      <trkpt lat="43.22797" lon="5.48926">
        <ele>418</ele>
        <time>2019-02-06T15:11:58Z</time>
      </trkpt>
      <trkpt lat="43.22797" lon="5.48933">
        <ele>417</ele>
        <time>2019-02-06T15:12:02Z</time>
      </trkpt>
      <trkpt lat="43.22798" lon="5.48939">
        <ele>421</ele>
        <time>2019-02-06T15:12:06Z</time>
      </trkpt>
      <trkpt lat="43.22799" lon="5.48946">
        <ele>422</ele>
        <time>2019-02-06T15:12:10Z</time>
      </trkpt>
      <trkpt lat="43.22799" lon="5.48952">
        <ele>421</ele>
        <time>2019-02-06T15:12:14Z</time>
      </trkpt>
      <trkpt lat="43.228" lon="5.48961">
        <ele>419</ele>
        <time>2019-02-06T15:12:20Z</time>
      </trkpt>
      <trkpt lat="43.22801" lon="5.48971">
        <ele>418</ele>
        <time>2019-02-06T15:12:26Z</time>
      </trkpt>
      <trkpt lat="43.228" lon="5.48977">
        <ele>416</ele>
        <time>2019-02-06T15:12:30Z</time>
      </trkpt>
      <trkpt lat="43.22799" lon="5.48985">
        <ele>415</ele>
        <time>2019-02-06T15:12:36Z</time>
      </trkpt>
      <trkpt lat="43.22799" lon="5.48994">
        <ele>413</ele>
        <time>2019-02-06T15:12:42Z</time>
      </trkpt>
      <trkpt lat="43.228" lon="5.49002">
        <ele>410</ele>
        <time>2019-02-06T15:12:48Z</time>
      </trkpt>
      <trkpt lat="43.22801" lon="5.49008">
        <ele>411</ele>
        <time>2019-02-06T15:12:52Z</time>
      </trkpt>
      <trkpt lat="43.22801" lon="5.49016">
        <ele>409</ele>
        <time>2019-02-06T15:12:58Z</time>
      </trkpt>
      <trkpt lat="43.228" lon="5.49024">
        <ele>408</ele>
        <time>2019-02-06T15:13:04Z</time>
      </trkpt>
      <trkpt lat="43.228" lon="5.49033">
        <ele>407</ele>
        <time>2019-02-06T15:13:10Z</time>
      </trkpt>
      <trkpt lat="43.22802" lon="5.49042">
        <ele>407</ele>
        <time>2019-02-06T15:13:16Z</time>
      </trkpt>
      <trkpt lat="43.22803" lon="5.49048">
        <ele>407</ele>
        <time>2019-02-06T15:13:20Z</time>
      </trkpt>
      <trkpt lat="43.22809" lon="5.49048">
        <ele>410</ele>
        <time>2019-02-06T15:13:28Z</time>
      </trkpt>
      <trkpt lat="43.22807" lon="5.49054">
        <ele>408</ele>
        <time>2019-02-06T15:14:12Z</time>
      </trkpt>
      <trkpt lat="43.22804" lon="5.49061">
        <ele>407</ele>
        <time>2019-02-06T15:14:18Z</time>
      </trkpt>
      <trkpt lat="43.22804" lon="5.49068">
        <ele>408</ele>
        <time>2019-02-06T15:14:24Z</time>
      </trkpt>
      <trkpt lat="43.22805" lon="5.49075">
        <ele>406</ele>
        <time>2019-02-06T15:14:32Z</time>
      </trkpt>
      <trkpt lat="43.22805" lon="5.49083">
        <ele>404</ele>
        <time>2019-02-06T15:14:36Z</time>
      </trkpt>
      <trkpt lat="43.22804" lon="5.4909">
        <ele>400</ele>
        <time>2019-02-06T15:14:40Z</time>
      </trkpt>
      <trkpt lat="43.22804" lon="5.49099">
        <ele>398</ele>
        <time>2019-02-06T15:14:46Z</time>
      </trkpt>
      <trkpt lat="43.22804" lon="5.49106">
        <ele>394</ele>
        <time>2019-02-06T15:14:52Z</time>
      </trkpt>
      <trkpt lat="43.22803" lon="5.49115">
        <ele>393</ele>
        <time>2019-02-06T15:14:58Z</time>
      </trkpt>
      <trkpt lat="43.22802" lon="5.49121">
        <ele>392</ele>
        <time>2019-02-06T15:15:02Z</time>
      </trkpt>
      <trkpt lat="43.22802" lon="5.49129">
        <ele>392</ele>
        <time>2019-02-06T15:15:06Z</time>
      </trkpt>
      <trkpt lat="43.22803" lon="5.49135">
        <ele>392</ele>
        <time>2019-02-06T15:15:10Z</time>
      </trkpt>
      <trkpt lat="43.22803" lon="5.49142">
        <ele>391</ele>
        <time>2019-02-06T15:15:14Z</time>
      </trkpt>
      <trkpt lat="43.22803" lon="5.4915">
        <ele>391</ele>
        <time>2019-02-06T15:15:18Z</time>
      </trkpt>
      <trkpt lat="43.22803" lon="5.49156">
        <ele>390</ele>
        <time>2019-02-06T15:15:22Z</time>
      </trkpt>
      <trkpt lat="43.22802" lon="5.49165">
        <ele>386</ele>
        <time>2019-02-06T15:15:28Z</time>
      </trkpt>
      <trkpt lat="43.22803" lon="5.49173">
        <ele>384</ele>
        <time>2019-02-06T15:15:34Z</time>
      </trkpt>
      <trkpt lat="43.22802" lon="5.49181">
        <ele>382</ele>
        <time>2019-02-06T15:15:40Z</time>
      </trkpt>
      <trkpt lat="43.22802" lon="5.49188">
        <ele>382</ele>
        <time>2019-02-06T15:15:44Z</time>
      </trkpt>
      <trkpt lat="43.22802" lon="5.49196">
        <ele>382</ele>
        <time>2019-02-06T15:15:48Z</time>
      </trkpt>
      <trkpt lat="43.22801" lon="5.49203">
        <ele>382</ele>
        <time>2019-02-06T15:15:52Z</time>
      </trkpt>
      <trkpt lat="43.22799" lon="5.49209">
        <ele>381</ele>
        <time>2019-02-06T15:15:56Z</time>
      </trkpt>
      <trkpt lat="43.22798" lon="5.49215">
        <ele>380</ele>
        <time>2019-02-06T15:16:00Z</time>
      </trkpt>
      <trkpt lat="43.22795" lon="5.49221">
        <ele>378</ele>
        <time>2019-02-06T15:16:04Z</time>
      </trkpt>
      <trkpt lat="43.22794" lon="5.49227">
        <ele>376</ele>
        <time>2019-02-06T15:16:08Z</time>
      </trkpt>
      <trkpt lat="43.22792" lon="5.49233">
        <ele>376</ele>
        <time>2019-02-06T15:16:14Z</time>
      </trkpt>
      <trkpt lat="43.22791" lon="5.49243">
        <ele>376</ele>
        <time>2019-02-06T15:16:20Z</time>
      </trkpt>
      <trkpt lat="43.2279" lon="5.49251">
        <ele>375</ele>
        <time>2019-02-06T15:16:24Z</time>
      </trkpt>
      <trkpt lat="43.22789" lon="5.49257">
        <ele>375</ele>
        <time>2019-02-06T15:16:28Z</time>
      </trkpt>
      <trkpt lat="43.22787" lon="5.49264">
        <ele>376</ele>
        <time>2019-02-06T15:16:32Z</time>
      </trkpt>
      <trkpt lat="43.22785" lon="5.4927">
        <ele>376</ele>
        <time>2019-02-06T15:16:36Z</time>
      </trkpt>
      <trkpt lat="43.22785" lon="5.49278">
        <ele>382</ele>
        <time>2019-02-06T15:16:50Z</time>
      </trkpt>
      <trkpt lat="43.22783" lon="5.49287">
        <ele>379</ele>
        <time>2019-02-06T15:16:56Z</time>
      </trkpt>
      <trkpt lat="43.22781" lon="5.49295">
        <ele>377</ele>
        <time>2019-02-06T15:17:02Z</time>
      </trkpt>
      <trkpt lat="43.22777" lon="5.49302">
        <ele>375</ele>
        <time>2019-02-06T15:17:08Z</time>
      </trkpt>
      <trkpt lat="43.22776" lon="5.49308">
        <ele>371</ele>
        <time>2019-02-06T15:17:16Z</time>
      </trkpt>
      <trkpt lat="43.22774" lon="5.49317">
        <ele>371</ele>
        <time>2019-02-06T15:17:22Z</time>
      </trkpt>
      <trkpt lat="43.22773" lon="5.49325">
        <ele>371</ele>
        <time>2019-02-06T15:17:28Z</time>
      </trkpt>
      <trkpt lat="43.22772" lon="5.49331">
        <ele>373</ele>
        <time>2019-02-06T15:17:32Z</time>
      </trkpt>
      <trkpt lat="43.22771" lon="5.49337">
        <ele>370</ele>
        <time>2019-02-06T15:17:36Z</time>
      </trkpt>
      <trkpt lat="43.2277" lon="5.49346">
        <ele>368</ele>
        <time>2019-02-06T15:17:42Z</time>
      </trkpt>
      <trkpt lat="43.2277" lon="5.49352">
        <ele>367</ele>
        <time>2019-02-06T15:17:46Z</time>
      </trkpt>
      <trkpt lat="43.22769" lon="5.49358">
        <ele>367</ele>
        <time>2019-02-06T15:17:50Z</time>
      </trkpt>
      <trkpt lat="43.22769" lon="5.49366">
        <ele>366</ele>
        <time>2019-02-06T15:17:56Z</time>
      </trkpt>
      <trkpt lat="43.22768" lon="5.49373">
        <ele>365</ele>
        <time>2019-02-06T15:18:02Z</time>
      </trkpt>
      <trkpt lat="43.22766" lon="5.49379">
        <ele>363</ele>
        <time>2019-02-06T15:18:08Z</time>
      </trkpt>
      <trkpt lat="43.22765" lon="5.49387">
        <ele>364</ele>
        <time>2019-02-06T15:18:14Z</time>
      </trkpt>
      <trkpt lat="43.22763" lon="5.49393">
        <ele>361</ele>
        <time>2019-02-06T15:18:20Z</time>
      </trkpt>
      <trkpt lat="43.22761" lon="5.494">
        <ele>360</ele>
        <time>2019-02-06T15:18:26Z</time>
      </trkpt>
      <trkpt lat="43.22758" lon="5.49405">
        <ele>359</ele>
        <time>2019-02-06T15:18:34Z</time>
      </trkpt>
      <trkpt lat="43.22755" lon="5.49411">
        <ele>357</ele>
        <time>2019-02-06T15:18:40Z</time>
      </trkpt>
      <trkpt lat="43.22753" lon="5.49417">
        <ele>356</ele>
        <time>2019-02-06T15:18:46Z</time>
      </trkpt>
      <trkpt lat="43.22751" lon="5.49424">
        <ele>353</ele>
        <time>2019-02-06T15:18:52Z</time>
      </trkpt>
      <trkpt lat="43.2275" lon="5.49431">
        <ele>354</ele>
        <time>2019-02-06T15:18:58Z</time>
      </trkpt>
      <trkpt lat="43.22749" lon="5.49438">
        <ele>353</ele>
        <time>2019-02-06T15:19:04Z</time>
      </trkpt>
      <trkpt lat="43.22747" lon="5.49446">
        <ele>351</ele>
        <time>2019-02-06T15:19:10Z</time>
      </trkpt>
      <trkpt lat="43.22747" lon="5.49453">
        <ele>350</ele>
        <time>2019-02-06T15:19:16Z</time>
      </trkpt>
      <trkpt lat="43.22744" lon="5.49461">
        <ele>350</ele>
        <time>2019-02-06T15:19:22Z</time>
      </trkpt>
      <trkpt lat="43.22743" lon="5.49467">
        <ele>349</ele>
        <time>2019-02-06T15:19:28Z</time>
      </trkpt>
      <trkpt lat="43.22743" lon="5.49475">
        <ele>346</ele>
        <time>2019-02-06T15:19:36Z</time>
      </trkpt>
      <trkpt lat="43.22742" lon="5.49481">
        <ele>344</ele>
        <time>2019-02-06T15:19:42Z</time>
      </trkpt>
      <trkpt lat="43.22742" lon="5.49488">
        <ele>342</ele>
        <time>2019-02-06T15:19:48Z</time>
      </trkpt>
      <trkpt lat="43.22743" lon="5.49496">
        <ele>341</ele>
        <time>2019-02-06T15:19:56Z</time>
      </trkpt>
      <trkpt lat="43.22742" lon="5.49503">
        <ele>339</ele>
        <time>2019-02-06T15:20:02Z</time>
      </trkpt>
      <trkpt lat="43.2274" lon="5.4951">
        <ele>341</ele>
        <time>2019-02-06T15:20:08Z</time>
      </trkpt>
      <trkpt lat="43.22741" lon="5.49518">
        <ele>342</ele>
        <time>2019-02-06T15:20:14Z</time>
      </trkpt>
      <trkpt lat="43.22742" lon="5.49526">
        <ele>341</ele>
        <time>2019-02-06T15:20:20Z</time>
      </trkpt>
      <trkpt lat="43.22743" lon="5.49533">
        <ele>339</ele>
        <time>2019-02-06T15:20:26Z</time>
      </trkpt>
      <trkpt lat="43.22745" lon="5.49542">
        <ele>341</ele>
        <time>2019-02-06T15:20:32Z</time>
      </trkpt>
      <trkpt lat="43.22749" lon="5.49549">
        <ele>342</ele>
        <time>2019-02-06T15:20:38Z</time>
      </trkpt>
      <trkpt lat="43.22749" lon="5.49556">
        <ele>340</ele>
        <time>2019-02-06T15:20:44Z</time>
      </trkpt>
      <trkpt lat="43.22748" lon="5.49562">
        <ele>338</ele>
        <time>2019-02-06T15:20:48Z</time>
      </trkpt>
      <trkpt lat="43.22748" lon="5.4957">
        <ele>338</ele>
        <time>2019-02-06T15:20:52Z</time>
      </trkpt>
      <trkpt lat="43.22748" lon="5.49576">
        <ele>337</ele>
        <time>2019-02-06T15:20:56Z</time>
      </trkpt>
      <trkpt lat="43.22748" lon="5.49583">
        <ele>337</ele>
        <time>2019-02-06T15:21:00Z</time>
      </trkpt>
      <trkpt lat="43.22747" lon="5.49589">
        <ele>334</ele>
        <time>2019-02-06T15:21:04Z</time>
      </trkpt>
      <trkpt lat="43.22747" lon="5.49598">
        <ele>332</ele>
        <time>2019-02-06T15:21:10Z</time>
      </trkpt>
      <trkpt lat="43.22747" lon="5.49607">
        <ele>332</ele>
        <time>2019-02-06T15:21:16Z</time>
      </trkpt>
      <trkpt lat="43.22747" lon="5.49616">
        <ele>330</ele>
        <time>2019-02-06T15:21:22Z</time>
      </trkpt>
      <trkpt lat="43.22748" lon="5.49624">
        <ele>328</ele>
        <time>2019-02-06T15:21:28Z</time>
      </trkpt>
      <trkpt lat="43.22746" lon="5.49633">
        <ele>327</ele>
        <time>2019-02-06T15:21:34Z</time>
      </trkpt>
      <trkpt lat="43.22746" lon="5.49639">
        <ele>325</ele>
        <time>2019-02-06T15:21:38Z</time>
      </trkpt>
      <trkpt lat="43.22746" lon="5.49646">
        <ele>324</ele>
        <time>2019-02-06T15:21:44Z</time>
      </trkpt>
      <trkpt lat="43.22746" lon="5.49653">
        <ele>324</ele>
        <time>2019-02-06T15:21:48Z</time>
      </trkpt>
      <trkpt lat="43.22746" lon="5.4966">
        <ele>324</ele>
        <time>2019-02-06T15:21:52Z</time>
      </trkpt>
      <trkpt lat="43.22745" lon="5.49666">
        <ele>324</ele>
        <time>2019-02-06T15:21:56Z</time>
      </trkpt>
      <trkpt lat="43.22744" lon="5.49673">
        <ele>324</ele>
        <time>2019-02-06T15:22:00Z</time>
      </trkpt>
      <trkpt lat="43.22744" lon="5.49679">
        <ele>325</ele>
        <time>2019-02-06T15:22:04Z</time>
      </trkpt>
      <trkpt lat="43.22743" lon="5.49687">
        <ele>326</ele>
        <time>2019-02-06T15:22:08Z</time>
      </trkpt>
      <trkpt lat="43.22742" lon="5.49695">
        <ele>326</ele>
        <time>2019-02-06T15:22:14Z</time>
      </trkpt>
      <trkpt lat="43.2274" lon="5.49702">
        <ele>325</ele>
        <time>2019-02-06T15:22:18Z</time>
      </trkpt>
      <trkpt lat="43.22739" lon="5.49709">
        <ele>324</ele>
        <time>2019-02-06T15:22:22Z</time>
      </trkpt>
      <trkpt lat="43.22739" lon="5.49717">
        <ele>324</ele>
        <time>2019-02-06T15:22:26Z</time>
      </trkpt>
      <trkpt lat="43.22738" lon="5.49723">
        <ele>324</ele>
        <time>2019-02-06T15:22:30Z</time>
      </trkpt>
      <trkpt lat="43.22737" lon="5.4973">
        <ele>324</ele>
        <time>2019-02-06T15:22:34Z</time>
      </trkpt>
      <trkpt lat="43.22736" lon="5.49739">
        <ele>325</ele>
        <time>2019-02-06T15:22:40Z</time>
      </trkpt>
      <trkpt lat="43.22734" lon="5.49747">
        <ele>327</ele>
        <time>2019-02-06T15:22:46Z</time>
      </trkpt>
      <trkpt lat="43.22731" lon="5.49755">
        <ele>327</ele>
        <time>2019-02-06T15:22:52Z</time>
      </trkpt>
      <trkpt lat="43.22729" lon="5.4976">
        <ele>327</ele>
        <time>2019-02-06T15:22:56Z</time>
      </trkpt>
      <trkpt lat="43.22726" lon="5.49767">
        <ele>328</ele>
        <time>2019-02-06T15:23:02Z</time>
      </trkpt>
      <trkpt lat="43.22722" lon="5.49774">
        <ele>327</ele>
        <time>2019-02-06T15:23:08Z</time>
      </trkpt>
      <trkpt lat="43.22718" lon="5.4978">
        <ele>325</ele>
        <time>2019-02-06T15:23:14Z</time>
      </trkpt>
      <trkpt lat="43.22714" lon="5.49787">
        <ele>325</ele>
        <time>2019-02-06T15:23:20Z</time>
      </trkpt>
      <trkpt lat="43.22712" lon="5.49793">
        <ele>325</ele>
        <time>2019-02-06T15:23:24Z</time>
      </trkpt>
      <trkpt lat="43.22709" lon="5.49798">
        <ele>326</ele>
        <time>2019-02-06T15:23:28Z</time>
      </trkpt>
      <trkpt lat="43.22706" lon="5.49803">
        <ele>326</ele>
        <time>2019-02-06T15:23:32Z</time>
      </trkpt>
      <trkpt lat="43.22703" lon="5.49809">
        <ele>325</ele>
        <time>2019-02-06T15:23:38Z</time>
      </trkpt>
      <trkpt lat="43.227" lon="5.49814">
        <ele>324</ele>
        <time>2019-02-06T15:23:42Z</time>
      </trkpt>
      <trkpt lat="43.22697" lon="5.4982">
        <ele>325</ele>
        <time>2019-02-06T15:23:46Z</time>
      </trkpt>
      <trkpt lat="43.22694" lon="5.49826">
        <ele>328</ele>
        <time>2019-02-06T15:23:50Z</time>
      </trkpt>
      <trkpt lat="43.22691" lon="5.49832">
        <ele>327</ele>
        <time>2019-02-06T15:23:54Z</time>
      </trkpt>
      <trkpt lat="43.22689" lon="5.49838">
        <ele>326</ele>
        <time>2019-02-06T15:23:58Z</time>
      </trkpt>
      <trkpt lat="43.22686" lon="5.49844">
        <ele>327</ele>
        <time>2019-02-06T15:24:02Z</time>
      </trkpt>
      <trkpt lat="43.22684" lon="5.49849">
        <ele>326</ele>
        <time>2019-02-06T15:24:06Z</time>
      </trkpt>
      <trkpt lat="43.22681" lon="5.49855">
        <ele>327</ele>
        <time>2019-02-06T15:24:10Z</time>
      </trkpt>
      <trkpt lat="43.2268" lon="5.49861">
        <ele>328</ele>
        <time>2019-02-06T15:24:14Z</time>
      </trkpt>
      <trkpt lat="43.22678" lon="5.49867">
        <ele>326</ele>
        <time>2019-02-06T15:24:18Z</time>
      </trkpt>
      <trkpt lat="43.22675" lon="5.49875">
        <ele>327</ele>
        <time>2019-02-06T15:24:24Z</time>
      </trkpt>
      <trkpt lat="43.22674" lon="5.49882">
        <ele>327</ele>
        <time>2019-02-06T15:24:28Z</time>
      </trkpt>
      <trkpt lat="43.22674" lon="5.49891">
        <ele>331</ele>
        <time>2019-02-06T15:24:32Z</time>
      </trkpt>
      <trkpt lat="43.22674" lon="5.49898">
        <ele>331</ele>
        <time>2019-02-06T15:24:36Z</time>
      </trkpt>
      <trkpt lat="43.22674" lon="5.49905">
        <ele>330</ele>
        <time>2019-02-06T15:24:40Z</time>
      </trkpt>
      <trkpt lat="43.22675" lon="5.49912">
        <ele>333</ele>
        <time>2019-02-06T15:24:44Z</time>
      </trkpt>
      <trkpt lat="43.22676" lon="5.49918">
        <ele>334</ele>
        <time>2019-02-06T15:24:48Z</time>
      </trkpt>
      <trkpt lat="43.22677" lon="5.49925">
        <ele>336</ele>
        <time>2019-02-06T15:24:52Z</time>
      </trkpt>
      <trkpt lat="43.22677" lon="5.49931">
        <ele>335</ele>
        <time>2019-02-06T15:24:56Z</time>
      </trkpt>
      <trkpt lat="43.22679" lon="5.49937">
        <ele>336</ele>
        <time>2019-02-06T15:25:00Z</time>
      </trkpt>
      <trkpt lat="43.22682" lon="5.49943">
        <ele>337</ele>
        <time>2019-02-06T15:25:04Z</time>
      </trkpt>
      <trkpt lat="43.22686" lon="5.49947">
        <ele>337</ele>
        <time>2019-02-06T15:25:08Z</time>
      </trkpt>
      <trkpt lat="43.22688" lon="5.49953">
        <ele>337</ele>
        <time>2019-02-06T15:25:12Z</time>
      </trkpt>
      <trkpt lat="43.2269" lon="5.49959">
        <ele>338</ele>
        <time>2019-02-06T15:25:16Z</time>
      </trkpt>
      <trkpt lat="43.22692" lon="5.49965">
        <ele>338</ele>
        <time>2019-02-06T15:25:20Z</time>
      </trkpt>
      <trkpt lat="43.22695" lon="5.49971">
        <ele>338</ele>
        <time>2019-02-06T15:25:24Z</time>
      </trkpt>
      <trkpt lat="43.22697" lon="5.49977">
        <ele>338</ele>
        <time>2019-02-06T15:25:28Z</time>
      </trkpt>
      <trkpt lat="43.227" lon="5.49983">
        <ele>338</ele>
        <time>2019-02-06T15:25:32Z</time>
      </trkpt>
      <trkpt lat="43.22703" lon="5.49989">
        <ele>339</ele>
        <time>2019-02-06T15:25:36Z</time>
      </trkpt>
      <trkpt lat="43.22706" lon="5.49994">
        <ele>339</ele>
        <time>2019-02-06T15:25:40Z</time>
      </trkpt>
      <trkpt lat="43.2271" lon="5.50001">
        <ele>339</ele>
        <time>2019-02-06T15:25:46Z</time>
      </trkpt>
      <trkpt lat="43.22712" lon="5.50007">
        <ele>337</ele>
        <time>2019-02-06T15:25:50Z</time>
      </trkpt>
      <trkpt lat="43.22715" lon="5.50016">
        <ele>339</ele>
        <time>2019-02-06T15:25:56Z</time>
      </trkpt>
      <trkpt lat="43.22717" lon="5.50022">
        <ele>339</ele>
        <time>2019-02-06T15:26:00Z</time>
      </trkpt>
      <trkpt lat="43.22721" lon="5.50029">
        <ele>340</ele>
        <time>2019-02-06T15:26:06Z</time>
      </trkpt>
      <trkpt lat="43.22725" lon="5.50035">
        <ele>342</ele>
        <time>2019-02-06T15:26:10Z</time>
      </trkpt>
      <trkpt lat="43.22728" lon="5.50042">
        <ele>342</ele>
        <time>2019-02-06T15:26:14Z</time>
      </trkpt>
      <trkpt lat="43.22732" lon="5.5005">
        <ele>341</ele>
        <time>2019-02-06T15:26:20Z</time>
      </trkpt>
      <trkpt lat="43.22734" lon="5.50056">
        <ele>341</ele>
        <time>2019-02-06T15:26:24Z</time>
      </trkpt>
      <trkpt lat="43.22737" lon="5.50061">
        <ele>342</ele>
        <time>2019-02-06T15:26:28Z</time>
      </trkpt>
      <trkpt lat="43.22742" lon="5.50067">
        <ele>343</ele>
        <time>2019-02-06T15:26:32Z</time>
      </trkpt>
      <trkpt lat="43.22745" lon="5.50072">
        <ele>342</ele>
        <time>2019-02-06T15:26:36Z</time>
      </trkpt>
      <trkpt lat="43.22748" lon="5.5008">
        <ele>341</ele>
        <time>2019-02-06T15:26:42Z</time>
      </trkpt>
      <trkpt lat="43.22751" lon="5.50086">
        <ele>341</ele>
        <time>2019-02-06T15:26:46Z</time>
      </trkpt>
      <trkpt lat="43.22754" lon="5.50091">
        <ele>342</ele>
        <time>2019-02-06T15:26:50Z</time>
      </trkpt>
      <trkpt lat="43.22757" lon="5.50097">
        <ele>341</ele>
        <time>2019-02-06T15:26:54Z</time>
      </trkpt>
      <trkpt lat="43.22759" lon="5.50103">
        <ele>341</ele>
        <time>2019-02-06T15:26:58Z</time>
      </trkpt>
      <trkpt lat="43.22762" lon="5.50109">
        <ele>340</ele>
        <time>2019-02-06T15:27:02Z</time>
      </trkpt>
      <trkpt lat="43.22762" lon="5.50118">
        <ele>337</ele>
        <time>2019-02-06T15:27:08Z</time>
      </trkpt>
      <trkpt lat="43.22763" lon="5.50127">
        <ele>336</ele>
        <time>2019-02-06T15:27:14Z</time>
      </trkpt>
      <trkpt lat="43.22762" lon="5.50133">
        <ele>333</ele>
        <time>2019-02-06T15:27:18Z</time>
      </trkpt>
      <trkpt lat="43.22762" lon="5.50142">
        <ele>331</ele>
        <time>2019-02-06T15:27:24Z</time>
      </trkpt>
      <trkpt lat="43.22762" lon="5.50151">
        <ele>330</ele>
        <time>2019-02-06T15:27:30Z</time>
      </trkpt>
      <trkpt lat="43.22762" lon="5.50159">
        <ele>328</ele>
        <time>2019-02-06T15:27:36Z</time>
      </trkpt>
      <trkpt lat="43.22762" lon="5.50166">
        <ele>327</ele>
        <time>2019-02-06T15:27:40Z</time>
      </trkpt>
      <trkpt lat="43.22763" lon="5.50173">
        <ele>326</ele>
        <time>2019-02-06T15:27:44Z</time>
      </trkpt>
      <trkpt lat="43.22763" lon="5.5018">
        <ele>325</ele>
        <time>2019-02-06T15:27:48Z</time>
      </trkpt>
      <trkpt lat="43.22764" lon="5.50189">
        <ele>324</ele>
        <time>2019-02-06T15:27:54Z</time>
      </trkpt>
      <trkpt lat="43.22763" lon="5.50196">
        <ele>323</ele>
        <time>2019-02-06T15:27:58Z</time>
      </trkpt>
      <trkpt lat="43.22762" lon="5.50204">
        <ele>322</ele>
        <time>2019-02-06T15:28:04Z</time>
      </trkpt>
      <trkpt lat="43.22762" lon="5.50211">
        <ele>321</ele>
        <time>2019-02-06T15:28:08Z</time>
      </trkpt>
      <trkpt lat="43.22761" lon="5.50218">
        <ele>321</ele>
        <time>2019-02-06T15:28:12Z</time>
      </trkpt>
      <trkpt lat="43.2276" lon="5.50225">
        <ele>321</ele>
        <time>2019-02-06T15:28:16Z</time>
      </trkpt>
      <trkpt lat="43.22759" lon="5.50232">
        <ele>321</ele>
        <time>2019-02-06T15:28:20Z</time>
      </trkpt>
      <trkpt lat="43.22758" lon="5.50238">
        <ele>321</ele>
        <time>2019-02-06T15:28:24Z</time>
      </trkpt>
      <trkpt lat="43.22756" lon="5.50246">
        <ele>321</ele>
        <time>2019-02-06T15:28:30Z</time>
      </trkpt>
      <trkpt lat="43.22756" lon="5.50254">
        <ele>321</ele>
        <time>2019-02-06T15:28:36Z</time>
      </trkpt>
      <trkpt lat="43.22755" lon="5.50263">
        <ele>320</ele>
        <time>2019-02-06T15:28:42Z</time>
      </trkpt>
      <trkpt lat="43.22753" lon="5.50271">
        <ele>320</ele>
        <time>2019-02-06T15:28:48Z</time>
      </trkpt>
      <trkpt lat="43.22751" lon="5.50279">
        <ele>321</ele>
        <time>2019-02-06T15:28:54Z</time>
      </trkpt>
      <trkpt lat="43.22749" lon="5.50286">
        <ele>319</ele>
        <time>2019-02-06T15:29:00Z</time>
      </trkpt>
      <trkpt lat="43.22748" lon="5.50293">
        <ele>320</ele>
        <time>2019-02-06T15:29:06Z</time>
      </trkpt>
      <trkpt lat="43.22747" lon="5.503">
        <ele>320</ele>
        <time>2019-02-06T15:29:12Z</time>
      </trkpt>
      <trkpt lat="43.22745" lon="5.50307">
        <ele>319</ele>
        <time>2019-02-06T15:29:18Z</time>
      </trkpt>
      <trkpt lat="43.22744" lon="5.50314">
        <ele>318</ele>
        <time>2019-02-06T15:29:24Z</time>
      </trkpt>
      <trkpt lat="43.22743" lon="5.50321">
        <ele>318</ele>
        <time>2019-02-06T15:29:30Z</time>
      </trkpt>
      <trkpt lat="43.22741" lon="5.5033">
        <ele>317</ele>
        <time>2019-02-06T15:29:36Z</time>
      </trkpt>
      <trkpt lat="43.22739" lon="5.50335">
        <ele>317</ele>
        <time>2019-02-06T15:29:40Z</time>
      </trkpt>
      <trkpt lat="43.22738" lon="5.50342">
        <ele>317</ele>
        <time>2019-02-06T15:29:44Z</time>
      </trkpt>
      <trkpt lat="43.22737" lon="5.5035">
        <ele>316</ele>
        <time>2019-02-06T15:29:50Z</time>
      </trkpt>
      <trkpt lat="43.22734" lon="5.50355">
        <ele>314</ele>
        <time>2019-02-06T15:29:56Z</time>
      </trkpt>
    </trkseg>
  </trk>
</gpx>